<?xml version="1.0" encoding="UTF-8" standalone="no" ?>
<gpx xmlns="http://www.topografix.com/GPX/1/1" xmlns:xsi="http://www.w3.org/2001/XMLSchema-instance" xsi:schemaLocation="http://www.topografix.com/GPX/1/1 http://www.topografix.com/GPX/1/1/gpx.xsd" version="1.1" creator="VisuGPX - https://www.visugpx.com">
  <metadata>
    <name>11 févr. 2021</name>
    <desc><![CDATA[grp_trc:[nouvelles]]]></desc>
  </metadata>
  <trk>
    <name><![CDATA[11 févr. 2021]]></name>
    <cmt><![CDATA[09:22:03]]></cmt>
    <desc><![CDATA[comment ...]]></desc>
    <trkseg>
      <trkpt lat="45.31188" lon="6.24891">
        <ele>1096</ele>
        <time>2021-02-11T08:22:03Z</time>
      </trkpt>
      <trkpt lat="45.31188" lon="6.24891">
        <ele>1096</ele>
        <time>2021-02-11T08:22:04Z</time>
      </trkpt>
      <trkpt lat="45.3119" lon="6.24893">
        <ele>1096</ele>
        <time>2021-02-11T08:22:12Z</time>
      </trkpt>
      <trkpt lat="45.31193" lon="6.24894">
        <ele>1096</ele>
        <time>2021-02-11T08:22:14Z</time>
      </trkpt>
      <trkpt lat="45.31195" lon="6.24896">
        <ele>1097</ele>
        <time>2021-02-11T08:22:17Z</time>
      </trkpt>
      <trkpt lat="45.31196" lon="6.24897">
        <ele>1097</ele>
        <time>2021-02-11T08:22:19Z</time>
      </trkpt>
      <trkpt lat="45.31198" lon="6.24898">
        <ele>1096</ele>
        <time>2021-02-11T08:22:21Z</time>
      </trkpt>
      <trkpt lat="45.31199" lon="6.24901">
        <ele>1097</ele>
        <time>2021-02-11T08:22:23Z</time>
      </trkpt>
      <trkpt lat="45.31201" lon="6.24901">
        <ele>1096</ele>
        <time>2021-02-11T08:22:35Z</time>
      </trkpt>
      <trkpt lat="45.31203" lon="6.24904">
        <ele>1094</ele>
        <time>2021-02-11T08:22:38Z</time>
      </trkpt>
      <trkpt lat="45.31205" lon="6.24903">
        <ele>1093</ele>
        <time>2021-02-11T08:22:40Z</time>
      </trkpt>
      <trkpt lat="45.3121" lon="6.24905">
        <ele>1090</ele>
        <time>2021-02-11T08:22:44Z</time>
      </trkpt>
      <trkpt lat="45.31212" lon="6.24906">
        <ele>1089</ele>
        <time>2021-02-11T08:22:46Z</time>
      </trkpt>
      <trkpt lat="45.31214" lon="6.24908">
        <ele>1088</ele>
        <time>2021-02-11T08:22:48Z</time>
      </trkpt>
      <trkpt lat="45.31215" lon="6.24909">
        <ele>1089</ele>
        <time>2021-02-11T08:22:51Z</time>
      </trkpt>
      <trkpt lat="45.31218" lon="6.2491">
        <ele>1090</ele>
        <time>2021-02-11T08:22:53Z</time>
      </trkpt>
      <trkpt lat="45.31221" lon="6.2491">
        <ele>1092</ele>
        <time>2021-02-11T08:22:55Z</time>
      </trkpt>
      <trkpt lat="45.31227" lon="6.24912">
        <ele>1096</ele>
        <time>2021-02-11T08:23:02Z</time>
      </trkpt>
      <trkpt lat="45.31233" lon="6.24911">
        <ele>1097</ele>
        <time>2021-02-11T08:23:08Z</time>
      </trkpt>
      <trkpt lat="45.31238" lon="6.24913">
        <ele>1098</ele>
        <time>2021-02-11T08:23:13Z</time>
      </trkpt>
      <trkpt lat="45.31239" lon="6.24912">
        <ele>1098</ele>
        <time>2021-02-11T08:23:15Z</time>
      </trkpt>
      <trkpt lat="45.31245" lon="6.2491">
        <ele>1100</ele>
        <time>2021-02-11T08:23:22Z</time>
      </trkpt>
      <trkpt lat="45.31247" lon="6.2491">
        <ele>1101</ele>
        <time>2021-02-11T08:23:25Z</time>
      </trkpt>
      <trkpt lat="45.31249" lon="6.2491">
        <ele>1102</ele>
        <time>2021-02-11T08:23:27Z</time>
      </trkpt>
      <trkpt lat="45.31251" lon="6.2491">
        <ele>1103</ele>
        <time>2021-02-11T08:23:29Z</time>
      </trkpt>
      <trkpt lat="45.31253" lon="6.2491">
        <ele>1103</ele>
        <time>2021-02-11T08:23:33Z</time>
      </trkpt>
      <trkpt lat="45.31255" lon="6.24908">
        <ele>1103</ele>
        <time>2021-02-11T08:23:36Z</time>
      </trkpt>
      <trkpt lat="45.31259" lon="6.24904">
        <ele>1100</ele>
        <time>2021-02-11T08:23:41Z</time>
      </trkpt>
      <trkpt lat="45.31263" lon="6.24902">
        <ele>1098</ele>
        <time>2021-02-11T08:23:43Z</time>
      </trkpt>
      <trkpt lat="45.31265" lon="6.24902">
        <ele>1097</ele>
        <time>2021-02-11T08:23:45Z</time>
      </trkpt>
      <trkpt lat="45.31267" lon="6.249">
        <ele>1096</ele>
        <time>2021-02-11T08:23:47Z</time>
      </trkpt>
      <trkpt lat="45.31269" lon="6.24901">
        <ele>1096</ele>
        <time>2021-02-11T08:23:49Z</time>
      </trkpt>
      <trkpt lat="45.3127" lon="6.24899">
        <ele>1096</ele>
        <time>2021-02-11T08:23:51Z</time>
      </trkpt>
      <trkpt lat="45.31272" lon="6.24897">
        <ele>1095</ele>
        <time>2021-02-11T08:23:55Z</time>
      </trkpt>
      <trkpt lat="45.31274" lon="6.24898">
        <ele>1098</ele>
        <time>2021-02-11T08:23:58Z</time>
      </trkpt>
      <trkpt lat="45.31276" lon="6.24898">
        <ele>1100</ele>
        <time>2021-02-11T08:24:02Z</time>
      </trkpt>
      <trkpt lat="45.31277" lon="6.24897">
        <ele>1103</ele>
        <time>2021-02-11T08:24:06Z</time>
      </trkpt>
      <trkpt lat="45.3128" lon="6.24896">
        <ele>1104</ele>
        <time>2021-02-11T08:24:09Z</time>
      </trkpt>
      <trkpt lat="45.31281" lon="6.24895">
        <ele>1105</ele>
        <time>2021-02-11T08:24:13Z</time>
      </trkpt>
      <trkpt lat="45.31283" lon="6.24893">
        <ele>1106</ele>
        <time>2021-02-11T08:24:16Z</time>
      </trkpt>
      <trkpt lat="45.31286" lon="6.24891">
        <ele>1108</ele>
        <time>2021-02-11T08:24:21Z</time>
      </trkpt>
      <trkpt lat="45.31288" lon="6.2489">
        <ele>1110</ele>
        <time>2021-02-11T08:24:24Z</time>
      </trkpt>
      <trkpt lat="45.31289" lon="6.2489">
        <ele>1111</ele>
        <time>2021-02-11T08:24:28Z</time>
      </trkpt>
      <trkpt lat="45.31291" lon="6.24891">
        <ele>1112</ele>
        <time>2021-02-11T08:24:34Z</time>
      </trkpt>
      <trkpt lat="45.31295" lon="6.24888">
        <ele>1111</ele>
        <time>2021-02-11T08:24:45Z</time>
      </trkpt>
      <trkpt lat="45.31297" lon="6.24888">
        <ele>1111</ele>
        <time>2021-02-11T08:24:49Z</time>
      </trkpt>
      <trkpt lat="45.31298" lon="6.24889">
        <ele>1111</ele>
        <time>2021-02-11T08:24:51Z</time>
      </trkpt>
      <trkpt lat="45.31302" lon="6.24892">
        <ele>1111</ele>
        <time>2021-02-11T08:24:55Z</time>
      </trkpt>
      <trkpt lat="45.3131" lon="6.24897">
        <ele>1112</ele>
        <time>2021-02-11T08:25:02Z</time>
      </trkpt>
      <trkpt lat="45.31313" lon="6.24896">
        <ele>1111</ele>
        <time>2021-02-11T08:25:04Z</time>
      </trkpt>
      <trkpt lat="45.31317" lon="6.24897">
        <ele>1110</ele>
        <time>2021-02-11T08:25:08Z</time>
      </trkpt>
      <trkpt lat="45.31319" lon="6.24897">
        <ele>1110</ele>
        <time>2021-02-11T08:25:10Z</time>
      </trkpt>
      <trkpt lat="45.3132" lon="6.24898">
        <ele>1109</ele>
        <time>2021-02-11T08:25:12Z</time>
      </trkpt>
      <trkpt lat="45.31322" lon="6.24898">
        <ele>1109</ele>
        <time>2021-02-11T08:25:14Z</time>
      </trkpt>
      <trkpt lat="45.31324" lon="6.24898">
        <ele>1109</ele>
        <time>2021-02-11T08:25:16Z</time>
      </trkpt>
      <trkpt lat="45.31328" lon="6.24897">
        <ele>1109</ele>
        <time>2021-02-11T08:25:20Z</time>
      </trkpt>
      <trkpt lat="45.31329" lon="6.24896">
        <ele>1109</ele>
        <time>2021-02-11T08:25:22Z</time>
      </trkpt>
      <trkpt lat="45.31334" lon="6.24893">
        <ele>1109</ele>
        <time>2021-02-11T08:25:26Z</time>
      </trkpt>
      <trkpt lat="45.31337" lon="6.24889">
        <ele>1109</ele>
        <time>2021-02-11T08:25:31Z</time>
      </trkpt>
      <trkpt lat="45.31347" lon="6.24882">
        <ele>1108</ele>
        <time>2021-02-11T08:25:47Z</time>
      </trkpt>
      <trkpt lat="45.31348" lon="6.2488">
        <ele>1109</ele>
        <time>2021-02-11T08:25:51Z</time>
      </trkpt>
      <trkpt lat="45.31349" lon="6.24879">
        <ele>1109</ele>
        <time>2021-02-11T08:25:54Z</time>
      </trkpt>
      <trkpt lat="45.31351" lon="6.24879">
        <ele>1110</ele>
        <time>2021-02-11T08:25:58Z</time>
      </trkpt>
      <trkpt lat="45.31358" lon="6.24873">
        <ele>1110</ele>
        <time>2021-02-11T08:26:12Z</time>
      </trkpt>
      <trkpt lat="45.31359" lon="6.24871">
        <ele>1110</ele>
        <time>2021-02-11T08:26:14Z</time>
      </trkpt>
      <trkpt lat="45.3136" lon="6.24869">
        <ele>1110</ele>
        <time>2021-02-11T08:26:16Z</time>
      </trkpt>
      <trkpt lat="45.31364" lon="6.24867">
        <ele>1110</ele>
        <time>2021-02-11T08:26:20Z</time>
      </trkpt>
      <trkpt lat="45.31366" lon="6.24866">
        <ele>1110</ele>
        <time>2021-02-11T08:26:23Z</time>
      </trkpt>
      <trkpt lat="45.3137" lon="6.24859">
        <ele>1111</ele>
        <time>2021-02-11T08:26:31Z</time>
      </trkpt>
      <trkpt lat="45.31371" lon="6.24855">
        <ele>1111</ele>
        <time>2021-02-11T08:26:36Z</time>
      </trkpt>
      <trkpt lat="45.31373" lon="6.24856">
        <ele>1111</ele>
        <time>2021-02-11T08:27:00Z</time>
      </trkpt>
      <trkpt lat="45.31376" lon="6.24861">
        <ele>1111</ele>
        <time>2021-02-11T08:27:23Z</time>
      </trkpt>
      <trkpt lat="45.31381" lon="6.24853">
        <ele>1110</ele>
        <time>2021-02-11T08:27:36Z</time>
      </trkpt>
      <trkpt lat="45.31382" lon="6.24844">
        <ele>1110</ele>
        <time>2021-02-11T08:27:45Z</time>
      </trkpt>
      <trkpt lat="45.31381" lon="6.24833">
        <ele>1110</ele>
        <time>2021-02-11T08:27:49Z</time>
      </trkpt>
      <trkpt lat="45.31382" lon="6.24829">
        <ele>1111</ele>
        <time>2021-02-11T08:27:54Z</time>
      </trkpt>
      <trkpt lat="45.31385" lon="6.24827">
        <ele>1111</ele>
        <time>2021-02-11T08:27:57Z</time>
      </trkpt>
      <trkpt lat="45.31388" lon="6.24828">
        <ele>1111</ele>
        <time>2021-02-11T08:27:59Z</time>
      </trkpt>
      <trkpt lat="45.31393" lon="6.24811">
        <ele>1117</ele>
        <time>2021-02-11T08:28:10Z</time>
      </trkpt>
      <trkpt lat="45.31394" lon="6.24807">
        <ele>1118</ele>
        <time>2021-02-11T08:28:11Z</time>
      </trkpt>
      <trkpt lat="45.31396" lon="6.24804">
        <ele>1120</ele>
        <time>2021-02-11T08:28:13Z</time>
      </trkpt>
      <trkpt lat="45.31395" lon="6.24799">
        <ele>1118</ele>
        <time>2021-02-11T08:28:17Z</time>
      </trkpt>
      <trkpt lat="45.31399" lon="6.24778">
        <ele>1131</ele>
        <time>2021-02-11T08:28:28Z</time>
      </trkpt>
      <trkpt lat="45.31404" lon="6.24774">
        <ele>1142</ele>
        <time>2021-02-11T08:28:34Z</time>
      </trkpt>
      <trkpt lat="45.31404" lon="6.24769">
        <ele>1144</ele>
        <time>2021-02-11T08:28:39Z</time>
      </trkpt>
      <trkpt lat="45.31401" lon="6.24768">
        <ele>1145</ele>
        <time>2021-02-11T08:28:46Z</time>
      </trkpt>
      <trkpt lat="45.31403" lon="6.24764">
        <ele>1151</ele>
        <time>2021-02-11T08:28:53Z</time>
      </trkpt>
      <trkpt lat="45.31402" lon="6.2476">
        <ele>1152</ele>
        <time>2021-02-11T08:28:57Z</time>
      </trkpt>
      <trkpt lat="45.31402" lon="6.24756">
        <ele>1154</ele>
        <time>2021-02-11T08:29:02Z</time>
      </trkpt>
      <trkpt lat="45.31405" lon="6.24753">
        <ele>1155</ele>
        <time>2021-02-11T08:29:06Z</time>
      </trkpt>
      <trkpt lat="45.31405" lon="6.24748">
        <ele>1156</ele>
        <time>2021-02-11T08:29:12Z</time>
      </trkpt>
      <trkpt lat="45.31403" lon="6.24738">
        <ele>1157</ele>
        <time>2021-02-11T08:29:18Z</time>
      </trkpt>
      <trkpt lat="45.314" lon="6.24734">
        <ele>1157</ele>
        <time>2021-02-11T08:29:21Z</time>
      </trkpt>
      <trkpt lat="45.31399" lon="6.2473">
        <ele>1156</ele>
        <time>2021-02-11T08:29:24Z</time>
      </trkpt>
      <trkpt lat="45.31396" lon="6.2473">
        <ele>1156</ele>
        <time>2021-02-11T08:29:26Z</time>
      </trkpt>
      <trkpt lat="45.31396" lon="6.24725">
        <ele>1156</ele>
        <time>2021-02-11T08:29:32Z</time>
      </trkpt>
      <trkpt lat="45.31399" lon="6.24724">
        <ele>1156</ele>
        <time>2021-02-11T08:29:37Z</time>
      </trkpt>
      <trkpt lat="45.31399" lon="6.24719">
        <ele>1155</ele>
        <time>2021-02-11T08:29:42Z</time>
      </trkpt>
      <trkpt lat="45.314" lon="6.24714">
        <ele>1155</ele>
        <time>2021-02-11T08:29:46Z</time>
      </trkpt>
      <trkpt lat="45.31398" lon="6.24701">
        <ele>1155</ele>
        <time>2021-02-11T08:29:51Z</time>
      </trkpt>
      <trkpt lat="45.31398" lon="6.24695">
        <ele>1154</ele>
        <time>2021-02-11T08:29:53Z</time>
      </trkpt>
      <trkpt lat="45.31393" lon="6.24642">
        <ele>1142</ele>
        <time>2021-02-11T08:30:11Z</time>
      </trkpt>
      <trkpt lat="45.31395" lon="6.24639">
        <ele>1138</ele>
        <time>2021-02-11T08:30:15Z</time>
      </trkpt>
      <trkpt lat="45.31394" lon="6.24634">
        <ele>1134</ele>
        <time>2021-02-11T08:30:17Z</time>
      </trkpt>
      <trkpt lat="45.31393" lon="6.24631">
        <ele>1133</ele>
        <time>2021-02-11T08:30:19Z</time>
      </trkpt>
      <trkpt lat="45.31392" lon="6.24627">
        <ele>1131</ele>
        <time>2021-02-11T08:30:21Z</time>
      </trkpt>
      <trkpt lat="45.31393" lon="6.24622">
        <ele>1130</ele>
        <time>2021-02-11T08:30:23Z</time>
      </trkpt>
      <trkpt lat="45.31392" lon="6.24613">
        <ele>1126</ele>
        <time>2021-02-11T08:30:25Z</time>
      </trkpt>
      <trkpt lat="45.31397" lon="6.24599">
        <ele>1122</ele>
        <time>2021-02-11T08:30:27Z</time>
      </trkpt>
      <trkpt lat="45.31403" lon="6.24593">
        <ele>1118</ele>
        <time>2021-02-11T08:30:37Z</time>
      </trkpt>
      <trkpt lat="45.31403" lon="6.24588">
        <ele>1116</ele>
        <time>2021-02-11T08:30:41Z</time>
      </trkpt>
      <trkpt lat="45.314" lon="6.24581">
        <ele>1112</ele>
        <time>2021-02-11T08:30:45Z</time>
      </trkpt>
      <trkpt lat="45.314" lon="6.24577">
        <ele>1110</ele>
        <time>2021-02-11T08:30:49Z</time>
      </trkpt>
      <trkpt lat="45.31401" lon="6.24574">
        <ele>1109</ele>
        <time>2021-02-11T08:30:52Z</time>
      </trkpt>
      <trkpt lat="45.31404" lon="6.24573">
        <ele>1108</ele>
        <time>2021-02-11T08:30:54Z</time>
      </trkpt>
      <trkpt lat="45.31407" lon="6.24569">
        <ele>1108</ele>
        <time>2021-02-11T08:30:58Z</time>
      </trkpt>
      <trkpt lat="45.31414" lon="6.24566">
        <ele>1107</ele>
        <time>2021-02-11T08:31:06Z</time>
      </trkpt>
      <trkpt lat="45.31415" lon="6.24563">
        <ele>1106</ele>
        <time>2021-02-11T08:31:09Z</time>
      </trkpt>
      <trkpt lat="45.31414" lon="6.2456">
        <ele>1105</ele>
        <time>2021-02-11T08:31:10Z</time>
      </trkpt>
      <trkpt lat="45.31416" lon="6.24557">
        <ele>1105</ele>
        <time>2021-02-11T08:31:14Z</time>
      </trkpt>
      <trkpt lat="45.31414" lon="6.2455">
        <ele>1103</ele>
        <time>2021-02-11T08:31:21Z</time>
      </trkpt>
      <trkpt lat="45.31414" lon="6.24547">
        <ele>1103</ele>
        <time>2021-02-11T08:31:24Z</time>
      </trkpt>
      <trkpt lat="45.31417" lon="6.24545">
        <ele>1103</ele>
        <time>2021-02-11T08:31:32Z</time>
      </trkpt>
      <trkpt lat="45.31422" lon="6.24542">
        <ele>1102</ele>
        <time>2021-02-11T08:31:41Z</time>
      </trkpt>
      <trkpt lat="45.31457" lon="6.24515">
        <ele>1104</ele>
        <time>2021-02-11T08:32:04Z</time>
      </trkpt>
      <trkpt lat="45.3146" lon="6.24517">
        <ele>1104</ele>
        <time>2021-02-11T08:32:07Z</time>
      </trkpt>
      <trkpt lat="45.31462" lon="6.24515">
        <ele>1103</ele>
        <time>2021-02-11T08:32:10Z</time>
      </trkpt>
      <trkpt lat="45.31463" lon="6.24511">
        <ele>1103</ele>
        <time>2021-02-11T08:32:12Z</time>
      </trkpt>
      <trkpt lat="45.31462" lon="6.24503">
        <ele>1103</ele>
        <time>2021-02-11T08:32:16Z</time>
      </trkpt>
      <trkpt lat="45.31466" lon="6.24493">
        <ele>1100</ele>
        <time>2021-02-11T08:32:23Z</time>
      </trkpt>
      <trkpt lat="45.31467" lon="6.24489">
        <ele>1099</ele>
        <time>2021-02-11T08:32:28Z</time>
      </trkpt>
      <trkpt lat="45.31466" lon="6.24486">
        <ele>1098</ele>
        <time>2021-02-11T08:32:31Z</time>
      </trkpt>
      <trkpt lat="45.31468" lon="6.24485">
        <ele>1097</ele>
        <time>2021-02-11T08:32:39Z</time>
      </trkpt>
      <trkpt lat="45.31471" lon="6.24485">
        <ele>1097</ele>
        <time>2021-02-11T08:32:42Z</time>
      </trkpt>
      <trkpt lat="45.31476" lon="6.24488">
        <ele>1099</ele>
        <time>2021-02-11T08:32:47Z</time>
      </trkpt>
      <trkpt lat="45.31477" lon="6.24491">
        <ele>1100</ele>
        <time>2021-02-11T08:32:50Z</time>
      </trkpt>
      <trkpt lat="45.31479" lon="6.24493">
        <ele>1101</ele>
        <time>2021-02-11T08:32:52Z</time>
      </trkpt>
      <trkpt lat="45.31485" lon="6.245">
        <ele>1103</ele>
        <time>2021-02-11T08:33:00Z</time>
      </trkpt>
      <trkpt lat="45.31489" lon="6.24503">
        <ele>1105</ele>
        <time>2021-02-11T08:33:18Z</time>
      </trkpt>
      <trkpt lat="45.31491" lon="6.24504">
        <ele>1105</ele>
        <time>2021-02-11T08:33:21Z</time>
      </trkpt>
      <trkpt lat="45.31494" lon="6.24503">
        <ele>1106</ele>
        <time>2021-02-11T08:33:24Z</time>
      </trkpt>
      <trkpt lat="45.31496" lon="6.24501">
        <ele>1106</ele>
        <time>2021-02-11T08:33:27Z</time>
      </trkpt>
      <trkpt lat="45.31498" lon="6.245">
        <ele>1105</ele>
        <time>2021-02-11T08:33:32Z</time>
      </trkpt>
      <trkpt lat="45.31504" lon="6.24497">
        <ele>1103</ele>
        <time>2021-02-11T08:33:38Z</time>
      </trkpt>
      <trkpt lat="45.31507" lon="6.24496">
        <ele>1103</ele>
        <time>2021-02-11T08:33:40Z</time>
      </trkpt>
      <trkpt lat="45.31509" lon="6.24494">
        <ele>1102</ele>
        <time>2021-02-11T08:33:43Z</time>
      </trkpt>
      <trkpt lat="45.31522" lon="6.24488">
        <ele>1102</ele>
        <time>2021-02-11T08:33:57Z</time>
      </trkpt>
      <trkpt lat="45.31525" lon="6.24489">
        <ele>1101</ele>
        <time>2021-02-11T08:34:04Z</time>
      </trkpt>
      <trkpt lat="45.31527" lon="6.24492">
        <ele>1100</ele>
        <time>2021-02-11T08:34:08Z</time>
      </trkpt>
      <trkpt lat="45.31531" lon="6.24493">
        <ele>1100</ele>
        <time>2021-02-11T08:34:11Z</time>
      </trkpt>
      <trkpt lat="45.31536" lon="6.24497">
        <ele>1102</ele>
        <time>2021-02-11T08:34:14Z</time>
      </trkpt>
      <trkpt lat="45.31542" lon="6.245">
        <ele>1102</ele>
        <time>2021-02-11T08:34:19Z</time>
      </trkpt>
      <trkpt lat="45.31545" lon="6.24509">
        <ele>1105</ele>
        <time>2021-02-11T08:34:22Z</time>
      </trkpt>
      <trkpt lat="45.31545" lon="6.24512">
        <ele>1108</ele>
        <time>2021-02-11T08:34:24Z</time>
      </trkpt>
      <trkpt lat="45.31546" lon="6.24516">
        <ele>1109</ele>
        <time>2021-02-11T08:34:26Z</time>
      </trkpt>
      <trkpt lat="45.31548" lon="6.24518">
        <ele>1111</ele>
        <time>2021-02-11T08:34:28Z</time>
      </trkpt>
      <trkpt lat="45.31559" lon="6.24522">
        <ele>1116</ele>
        <time>2021-02-11T08:34:40Z</time>
      </trkpt>
      <trkpt lat="45.31562" lon="6.24524">
        <ele>1117</ele>
        <time>2021-02-11T08:34:42Z</time>
      </trkpt>
      <trkpt lat="45.31564" lon="6.24525">
        <ele>1117</ele>
        <time>2021-02-11T08:34:44Z</time>
      </trkpt>
      <trkpt lat="45.31567" lon="6.24527">
        <ele>1117</ele>
        <time>2021-02-11T08:34:46Z</time>
      </trkpt>
      <trkpt lat="45.31569" lon="6.24529">
        <ele>1119</ele>
        <time>2021-02-11T08:34:48Z</time>
      </trkpt>
      <trkpt lat="45.31574" lon="6.24531">
        <ele>1121</ele>
        <time>2021-02-11T08:34:54Z</time>
      </trkpt>
      <trkpt lat="45.31576" lon="6.24532">
        <ele>1121</ele>
        <time>2021-02-11T08:34:58Z</time>
      </trkpt>
      <trkpt lat="45.31583" lon="6.24527">
        <ele>1120</ele>
        <time>2021-02-11T08:35:11Z</time>
      </trkpt>
      <trkpt lat="45.31584" lon="6.24524">
        <ele>1119</ele>
        <time>2021-02-11T08:35:14Z</time>
      </trkpt>
      <trkpt lat="45.31586" lon="6.24521">
        <ele>1119</ele>
        <time>2021-02-11T08:35:22Z</time>
      </trkpt>
      <trkpt lat="45.31589" lon="6.24519">
        <ele>1118</ele>
        <time>2021-02-11T08:35:26Z</time>
      </trkpt>
      <trkpt lat="45.3159" lon="6.24511">
        <ele>1117</ele>
        <time>2021-02-11T08:35:29Z</time>
      </trkpt>
      <trkpt lat="45.3159" lon="6.24493">
        <ele>1117</ele>
        <time>2021-02-11T08:35:36Z</time>
      </trkpt>
      <trkpt lat="45.31588" lon="6.2449">
        <ele>1116</ele>
        <time>2021-02-11T08:35:39Z</time>
      </trkpt>
      <trkpt lat="45.31592" lon="6.24484">
        <ele>1117</ele>
        <time>2021-02-11T08:35:47Z</time>
      </trkpt>
      <trkpt lat="45.31594" lon="6.24479">
        <ele>1119</ele>
        <time>2021-02-11T08:35:48Z</time>
      </trkpt>
      <trkpt lat="45.31595" lon="6.24475">
        <ele>1120</ele>
        <time>2021-02-11T08:35:49Z</time>
      </trkpt>
      <trkpt lat="45.31591" lon="6.24469">
        <ele>1121</ele>
        <time>2021-02-11T08:35:50Z</time>
      </trkpt>
      <trkpt lat="45.31594" lon="6.24465">
        <ele>1122</ele>
        <time>2021-02-11T08:35:54Z</time>
      </trkpt>
      <trkpt lat="45.31595" lon="6.24462">
        <ele>1123</ele>
        <time>2021-02-11T08:35:57Z</time>
      </trkpt>
      <trkpt lat="45.31597" lon="6.24458">
        <ele>1124</ele>
        <time>2021-02-11T08:36:01Z</time>
      </trkpt>
      <trkpt lat="45.316" lon="6.24456">
        <ele>1125</ele>
        <time>2021-02-11T08:36:05Z</time>
      </trkpt>
      <trkpt lat="45.31611" lon="6.24452">
        <ele>1127</ele>
        <time>2021-02-11T08:36:18Z</time>
      </trkpt>
      <trkpt lat="45.3161" lon="6.24448">
        <ele>1126</ele>
        <time>2021-02-11T08:36:23Z</time>
      </trkpt>
      <trkpt lat="45.31608" lon="6.24444">
        <ele>1121</ele>
        <time>2021-02-11T08:37:00Z</time>
      </trkpt>
      <trkpt lat="45.31606" lon="6.24448">
        <ele>1119</ele>
        <time>2021-02-11T08:37:08Z</time>
      </trkpt>
      <trkpt lat="45.31604" lon="6.24448">
        <ele>1117</ele>
        <time>2021-02-11T08:37:18Z</time>
      </trkpt>
      <trkpt lat="45.31606" lon="6.24444">
        <ele>1117</ele>
        <time>2021-02-11T08:37:23Z</time>
      </trkpt>
      <trkpt lat="45.31606" lon="6.24445">
        <ele>1118</ele>
        <time>2021-02-11T08:37:39Z</time>
      </trkpt>
      <trkpt lat="45.31609" lon="6.24445">
        <ele>1119</ele>
        <time>2021-02-11T08:37:53Z</time>
      </trkpt>
      <trkpt lat="45.31611" lon="6.24446">
        <ele>1120</ele>
        <time>2021-02-11T08:37:56Z</time>
      </trkpt>
      <trkpt lat="45.31611" lon="6.24451">
        <ele>1122</ele>
        <time>2021-02-11T08:38:14Z</time>
      </trkpt>
      <trkpt lat="45.31612" lon="6.24453">
        <ele>1123</ele>
        <time>2021-02-11T08:38:37Z</time>
      </trkpt>
      <trkpt lat="45.31608" lon="6.24455">
        <ele>1124</ele>
        <time>2021-02-11T08:38:58Z</time>
      </trkpt>
      <trkpt lat="45.31609" lon="6.24452">
        <ele>1124</ele>
        <time>2021-02-11T08:39:07Z</time>
      </trkpt>
      <trkpt lat="45.31608" lon="6.24449">
        <ele>1124</ele>
        <time>2021-02-11T08:39:20Z</time>
      </trkpt>
      <trkpt lat="45.31606" lon="6.24446">
        <ele>1125</ele>
        <time>2021-02-11T08:39:37Z</time>
      </trkpt>
      <trkpt lat="45.31604" lon="6.24452">
        <ele>1125</ele>
        <time>2021-02-11T08:39:41Z</time>
      </trkpt>
      <trkpt lat="45.31606" lon="6.24453">
        <ele>1124</ele>
        <time>2021-02-11T08:40:03Z</time>
      </trkpt>
      <trkpt lat="45.31606" lon="6.2446">
        <ele>1122</ele>
        <time>2021-02-11T08:40:23Z</time>
      </trkpt>
      <trkpt lat="45.31605" lon="6.2446">
        <ele>1122</ele>
        <time>2021-02-11T08:40:42Z</time>
      </trkpt>
      <trkpt lat="45.31606" lon="6.24455">
        <ele>1121</ele>
        <time>2021-02-11T08:40:48Z</time>
      </trkpt>
      <trkpt lat="45.31604" lon="6.24453">
        <ele>1120</ele>
        <time>2021-02-11T08:40:58Z</time>
      </trkpt>
      <trkpt lat="45.31606" lon="6.24451">
        <ele>1120</ele>
        <time>2021-02-11T08:41:02Z</time>
      </trkpt>
      <trkpt lat="45.31608" lon="6.24448">
        <ele>1120</ele>
        <time>2021-02-11T08:41:05Z</time>
      </trkpt>
      <trkpt lat="45.31612" lon="6.24445">
        <ele>1122</ele>
        <time>2021-02-11T08:41:23Z</time>
      </trkpt>
      <trkpt lat="45.31617" lon="6.2443">
        <ele>1122</ele>
        <time>2021-02-11T08:41:36Z</time>
      </trkpt>
      <trkpt lat="45.31623" lon="6.2442">
        <ele>1120</ele>
        <time>2021-02-11T08:41:43Z</time>
      </trkpt>
      <trkpt lat="45.31625" lon="6.24417">
        <ele>1119</ele>
        <time>2021-02-11T08:41:46Z</time>
      </trkpt>
      <trkpt lat="45.31627" lon="6.24413">
        <ele>1119</ele>
        <time>2021-02-11T08:41:50Z</time>
      </trkpt>
      <trkpt lat="45.31627" lon="6.24411">
        <ele>1119</ele>
        <time>2021-02-11T08:41:53Z</time>
      </trkpt>
      <trkpt lat="45.31627" lon="6.24408">
        <ele>1118</ele>
        <time>2021-02-11T08:41:59Z</time>
      </trkpt>
      <trkpt lat="45.31629" lon="6.24406">
        <ele>1118</ele>
        <time>2021-02-11T08:42:02Z</time>
      </trkpt>
      <trkpt lat="45.31634" lon="6.24402">
        <ele>1117</ele>
        <time>2021-02-11T08:42:07Z</time>
      </trkpt>
      <trkpt lat="45.31637" lon="6.24399">
        <ele>1116</ele>
        <time>2021-02-11T08:42:10Z</time>
      </trkpt>
      <trkpt lat="45.31638" lon="6.24396">
        <ele>1116</ele>
        <time>2021-02-11T08:42:13Z</time>
      </trkpt>
      <trkpt lat="45.31639" lon="6.24394">
        <ele>1116</ele>
        <time>2021-02-11T08:42:16Z</time>
      </trkpt>
      <trkpt lat="45.31641" lon="6.2439">
        <ele>1116</ele>
        <time>2021-02-11T08:42:22Z</time>
      </trkpt>
      <trkpt lat="45.31649" lon="6.24383">
        <ele>1117</ele>
        <time>2021-02-11T08:42:29Z</time>
      </trkpt>
      <trkpt lat="45.31654" lon="6.2438">
        <ele>1119</ele>
        <time>2021-02-11T08:42:36Z</time>
      </trkpt>
      <trkpt lat="45.31656" lon="6.24378">
        <ele>1120</ele>
        <time>2021-02-11T08:42:39Z</time>
      </trkpt>
      <trkpt lat="45.3167" lon="6.24363">
        <ele>1121</ele>
        <time>2021-02-11T08:43:00Z</time>
      </trkpt>
      <trkpt lat="45.31675" lon="6.24347">
        <ele>1122</ele>
        <time>2021-02-11T08:43:14Z</time>
      </trkpt>
      <trkpt lat="45.31678" lon="6.24349">
        <ele>1123</ele>
        <time>2021-02-11T08:43:19Z</time>
      </trkpt>
      <trkpt lat="45.31684" lon="6.24345">
        <ele>1128</ele>
        <time>2021-02-11T08:43:27Z</time>
      </trkpt>
      <trkpt lat="45.31685" lon="6.24342">
        <ele>1132</ele>
        <time>2021-02-11T08:43:30Z</time>
      </trkpt>
      <trkpt lat="45.31687" lon="6.24341">
        <ele>1134</ele>
        <time>2021-02-11T08:43:33Z</time>
      </trkpt>
      <trkpt lat="45.31688" lon="6.24338">
        <ele>1139</ele>
        <time>2021-02-11T08:43:39Z</time>
      </trkpt>
      <trkpt lat="45.31695" lon="6.24338">
        <ele>1143</ele>
        <time>2021-02-11T08:43:46Z</time>
      </trkpt>
      <trkpt lat="45.31698" lon="6.24335">
        <ele>1144</ele>
        <time>2021-02-11T08:43:48Z</time>
      </trkpt>
      <trkpt lat="45.31703" lon="6.24335">
        <ele>1146</ele>
        <time>2021-02-11T08:43:52Z</time>
      </trkpt>
      <trkpt lat="45.31706" lon="6.24333">
        <ele>1147</ele>
        <time>2021-02-11T08:43:57Z</time>
      </trkpt>
      <trkpt lat="45.31716" lon="6.24329">
        <ele>1147</ele>
        <time>2021-02-11T08:44:12Z</time>
      </trkpt>
      <trkpt lat="45.31718" lon="6.24322">
        <ele>1146</ele>
        <time>2021-02-11T08:44:14Z</time>
      </trkpt>
      <trkpt lat="45.31718" lon="6.24294">
        <ele>1141</ele>
        <time>2021-02-11T08:44:16Z</time>
      </trkpt>
      <trkpt lat="45.31719" lon="6.24291">
        <ele>1138</ele>
        <time>2021-02-11T08:44:19Z</time>
      </trkpt>
      <trkpt lat="45.31721" lon="6.24288">
        <ele>1136</ele>
        <time>2021-02-11T08:44:21Z</time>
      </trkpt>
      <trkpt lat="45.31722" lon="6.24286">
        <ele>1134</ele>
        <time>2021-02-11T08:44:24Z</time>
      </trkpt>
      <trkpt lat="45.31725" lon="6.24284">
        <ele>1133</ele>
        <time>2021-02-11T08:44:27Z</time>
      </trkpt>
      <trkpt lat="45.31725" lon="6.24281">
        <ele>1132</ele>
        <time>2021-02-11T08:44:29Z</time>
      </trkpt>
      <trkpt lat="45.31726" lon="6.24278">
        <ele>1131</ele>
        <time>2021-02-11T08:44:32Z</time>
      </trkpt>
      <trkpt lat="45.31728" lon="6.24277">
        <ele>1130</ele>
        <time>2021-02-11T08:44:34Z</time>
      </trkpt>
      <trkpt lat="45.3173" lon="6.24278">
        <ele>1131</ele>
        <time>2021-02-11T08:44:38Z</time>
      </trkpt>
      <trkpt lat="45.31729" lon="6.24281">
        <ele>1132</ele>
        <time>2021-02-11T08:44:39Z</time>
      </trkpt>
      <trkpt lat="45.31732" lon="6.24282">
        <ele>1134</ele>
        <time>2021-02-11T08:44:43Z</time>
      </trkpt>
      <trkpt lat="45.31737" lon="6.24279">
        <ele>1134</ele>
        <time>2021-02-11T08:44:50Z</time>
      </trkpt>
      <trkpt lat="45.31745" lon="6.24267">
        <ele>1139</ele>
        <time>2021-02-11T08:44:58Z</time>
      </trkpt>
      <trkpt lat="45.31748" lon="6.24266">
        <ele>1139</ele>
        <time>2021-02-11T08:45:00Z</time>
      </trkpt>
      <trkpt lat="45.31749" lon="6.24266">
        <ele>1141</ele>
        <time>2021-02-11T08:45:01Z</time>
      </trkpt>
      <trkpt lat="45.31752" lon="6.24264">
        <ele>1142</ele>
        <time>2021-02-11T08:45:04Z</time>
      </trkpt>
      <trkpt lat="45.31753" lon="6.24263">
        <ele>1143</ele>
        <time>2021-02-11T08:45:08Z</time>
      </trkpt>
      <trkpt lat="45.31755" lon="6.24261">
        <ele>1143</ele>
        <time>2021-02-11T08:45:11Z</time>
      </trkpt>
      <trkpt lat="45.31758" lon="6.24261">
        <ele>1143</ele>
        <time>2021-02-11T08:45:14Z</time>
      </trkpt>
      <trkpt lat="45.3176" lon="6.24262">
        <ele>1142</ele>
        <time>2021-02-11T08:45:17Z</time>
      </trkpt>
      <trkpt lat="45.31762" lon="6.24266">
        <ele>1142</ele>
        <time>2021-02-11T08:45:20Z</time>
      </trkpt>
      <trkpt lat="45.31764" lon="6.24268">
        <ele>1141</ele>
        <time>2021-02-11T08:45:23Z</time>
      </trkpt>
      <trkpt lat="45.31766" lon="6.2427">
        <ele>1139</ele>
        <time>2021-02-11T08:45:31Z</time>
      </trkpt>
      <trkpt lat="45.31769" lon="6.24268">
        <ele>1138</ele>
        <time>2021-02-11T08:45:34Z</time>
      </trkpt>
      <trkpt lat="45.31772" lon="6.24268">
        <ele>1137</ele>
        <time>2021-02-11T08:45:38Z</time>
      </trkpt>
      <trkpt lat="45.31774" lon="6.2427">
        <ele>1136</ele>
        <time>2021-02-11T08:45:41Z</time>
      </trkpt>
      <trkpt lat="45.31782" lon="6.24269">
        <ele>1135</ele>
        <time>2021-02-11T08:45:51Z</time>
      </trkpt>
      <trkpt lat="45.31785" lon="6.24268">
        <ele>1134</ele>
        <time>2021-02-11T08:45:53Z</time>
      </trkpt>
      <trkpt lat="45.31788" lon="6.2427">
        <ele>1134</ele>
        <time>2021-02-11T08:45:56Z</time>
      </trkpt>
      <trkpt lat="45.3179" lon="6.24271">
        <ele>1136</ele>
        <time>2021-02-11T08:45:59Z</time>
      </trkpt>
      <trkpt lat="45.31798" lon="6.24274">
        <ele>1138</ele>
        <time>2021-02-11T08:46:05Z</time>
      </trkpt>
      <trkpt lat="45.31809" lon="6.24279">
        <ele>1142</ele>
        <time>2021-02-11T08:46:16Z</time>
      </trkpt>
      <trkpt lat="45.31815" lon="6.24278">
        <ele>1145</ele>
        <time>2021-02-11T08:46:20Z</time>
      </trkpt>
      <trkpt lat="45.31816" lon="6.24281">
        <ele>1146</ele>
        <time>2021-02-11T08:46:25Z</time>
      </trkpt>
      <trkpt lat="45.31818" lon="6.24281">
        <ele>1147</ele>
        <time>2021-02-11T08:46:30Z</time>
      </trkpt>
      <trkpt lat="45.31821" lon="6.24281">
        <ele>1148</ele>
        <time>2021-02-11T08:46:35Z</time>
      </trkpt>
      <trkpt lat="45.31823" lon="6.24284">
        <ele>1148</ele>
        <time>2021-02-11T08:46:40Z</time>
      </trkpt>
      <trkpt lat="45.31825" lon="6.24283">
        <ele>1148</ele>
        <time>2021-02-11T08:46:44Z</time>
      </trkpt>
      <trkpt lat="45.31832" lon="6.24282">
        <ele>1147</ele>
        <time>2021-02-11T08:46:53Z</time>
      </trkpt>
      <trkpt lat="45.31835" lon="6.24282">
        <ele>1147</ele>
        <time>2021-02-11T08:46:56Z</time>
      </trkpt>
      <trkpt lat="45.31842" lon="6.24284">
        <ele>1145</ele>
        <time>2021-02-11T08:47:10Z</time>
      </trkpt>
      <trkpt lat="45.31844" lon="6.24285">
        <ele>1145</ele>
        <time>2021-02-11T08:47:12Z</time>
      </trkpt>
      <trkpt lat="45.31846" lon="6.24286">
        <ele>1144</ele>
        <time>2021-02-11T08:47:15Z</time>
      </trkpt>
      <trkpt lat="45.31849" lon="6.24286">
        <ele>1144</ele>
        <time>2021-02-11T08:47:19Z</time>
      </trkpt>
      <trkpt lat="45.31852" lon="6.24284">
        <ele>1143</ele>
        <time>2021-02-11T08:47:26Z</time>
      </trkpt>
      <trkpt lat="45.31856" lon="6.24284">
        <ele>1144</ele>
        <time>2021-02-11T08:47:37Z</time>
      </trkpt>
      <trkpt lat="45.31858" lon="6.24284">
        <ele>1144</ele>
        <time>2021-02-11T08:47:40Z</time>
      </trkpt>
      <trkpt lat="45.31871" lon="6.24282">
        <ele>1149</ele>
        <time>2021-02-11T08:47:55Z</time>
      </trkpt>
      <trkpt lat="45.31876" lon="6.2428">
        <ele>1150</ele>
        <time>2021-02-11T08:48:04Z</time>
      </trkpt>
      <trkpt lat="45.31884" lon="6.24276">
        <ele>1151</ele>
        <time>2021-02-11T08:48:17Z</time>
      </trkpt>
      <trkpt lat="45.31887" lon="6.24274">
        <ele>1151</ele>
        <time>2021-02-11T08:48:23Z</time>
      </trkpt>
      <trkpt lat="45.31892" lon="6.24273">
        <ele>1150</ele>
        <time>2021-02-11T08:48:31Z</time>
      </trkpt>
      <trkpt lat="45.31894" lon="6.24271">
        <ele>1150</ele>
        <time>2021-02-11T08:48:33Z</time>
      </trkpt>
      <trkpt lat="45.31897" lon="6.24271">
        <ele>1150</ele>
        <time>2021-02-11T08:48:36Z</time>
      </trkpt>
      <trkpt lat="45.319" lon="6.24264">
        <ele>1149</ele>
        <time>2021-02-11T08:48:45Z</time>
      </trkpt>
      <trkpt lat="45.31903" lon="6.24263">
        <ele>1149</ele>
        <time>2021-02-11T08:48:48Z</time>
      </trkpt>
      <trkpt lat="45.31905" lon="6.2426">
        <ele>1150</ele>
        <time>2021-02-11T08:48:51Z</time>
      </trkpt>
      <trkpt lat="45.31908" lon="6.24253">
        <ele>1151</ele>
        <time>2021-02-11T08:48:57Z</time>
      </trkpt>
      <trkpt lat="45.31909" lon="6.24249">
        <ele>1152</ele>
        <time>2021-02-11T08:49:00Z</time>
      </trkpt>
      <trkpt lat="45.3191" lon="6.24245">
        <ele>1152</ele>
        <time>2021-02-11T08:49:04Z</time>
      </trkpt>
      <trkpt lat="45.3193" lon="6.24227">
        <ele>1157</ele>
        <time>2021-02-11T08:49:35Z</time>
      </trkpt>
      <trkpt lat="45.31933" lon="6.24217">
        <ele>1159</ele>
        <time>2021-02-11T08:49:51Z</time>
      </trkpt>
      <trkpt lat="45.31937" lon="6.2421">
        <ele>1160</ele>
        <time>2021-02-11T08:49:56Z</time>
      </trkpt>
      <trkpt lat="45.31941" lon="6.24204">
        <ele>1164</ele>
        <time>2021-02-11T08:50:03Z</time>
      </trkpt>
      <trkpt lat="45.31944" lon="6.24206">
        <ele>1164</ele>
        <time>2021-02-11T08:50:07Z</time>
      </trkpt>
      <trkpt lat="45.31946" lon="6.24203">
        <ele>1165</ele>
        <time>2021-02-11T08:50:29Z</time>
      </trkpt>
      <trkpt lat="45.31953" lon="6.24184">
        <ele>1177</ele>
        <time>2021-02-11T08:50:49Z</time>
      </trkpt>
      <trkpt lat="45.31961" lon="6.24167">
        <ele>1184</ele>
        <time>2021-02-11T08:51:14Z</time>
      </trkpt>
      <trkpt lat="45.31961" lon="6.24162">
        <ele>1184</ele>
        <time>2021-02-11T08:51:19Z</time>
      </trkpt>
      <trkpt lat="45.31961" lon="6.24159">
        <ele>1183</ele>
        <time>2021-02-11T08:51:23Z</time>
      </trkpt>
      <trkpt lat="45.31963" lon="6.24156">
        <ele>1181</ele>
        <time>2021-02-11T08:51:28Z</time>
      </trkpt>
      <trkpt lat="45.31964" lon="6.24149">
        <ele>1177</ele>
        <time>2021-02-11T08:51:37Z</time>
      </trkpt>
      <trkpt lat="45.31966" lon="6.24146">
        <ele>1178</ele>
        <time>2021-02-11T08:51:41Z</time>
      </trkpt>
      <trkpt lat="45.31967" lon="6.24143">
        <ele>1178</ele>
        <time>2021-02-11T08:51:44Z</time>
      </trkpt>
      <trkpt lat="45.31967" lon="6.24139">
        <ele>1178</ele>
        <time>2021-02-11T08:51:48Z</time>
      </trkpt>
      <trkpt lat="45.31968" lon="6.24136">
        <ele>1179</ele>
        <time>2021-02-11T08:51:52Z</time>
      </trkpt>
      <trkpt lat="45.31969" lon="6.24133">
        <ele>1180</ele>
        <time>2021-02-11T08:51:55Z</time>
      </trkpt>
      <trkpt lat="45.31971" lon="6.24131">
        <ele>1180</ele>
        <time>2021-02-11T08:51:57Z</time>
      </trkpt>
      <trkpt lat="45.3197" lon="6.24128">
        <ele>1181</ele>
        <time>2021-02-11T08:52:02Z</time>
      </trkpt>
      <trkpt lat="45.31972" lon="6.24125">
        <ele>1181</ele>
        <time>2021-02-11T08:52:06Z</time>
      </trkpt>
      <trkpt lat="45.31973" lon="6.2412">
        <ele>1181</ele>
        <time>2021-02-11T08:52:12Z</time>
      </trkpt>
      <trkpt lat="45.31977" lon="6.24112">
        <ele>1185</ele>
        <time>2021-02-11T08:52:32Z</time>
      </trkpt>
      <trkpt lat="45.31978" lon="6.24111">
        <ele>1187</ele>
        <time>2021-02-11T08:52:33Z</time>
      </trkpt>
      <trkpt lat="45.31986" lon="6.24103">
        <ele>1191</ele>
        <time>2021-02-11T08:52:51Z</time>
      </trkpt>
      <trkpt lat="45.31986" lon="6.241">
        <ele>1190</ele>
        <time>2021-02-11T08:52:56Z</time>
      </trkpt>
      <trkpt lat="45.31988" lon="6.24097">
        <ele>1188</ele>
        <time>2021-02-11T08:52:58Z</time>
      </trkpt>
      <trkpt lat="45.31991" lon="6.24097">
        <ele>1187</ele>
        <time>2021-02-11T08:53:02Z</time>
      </trkpt>
      <trkpt lat="45.31997" lon="6.24084">
        <ele>1192</ele>
        <time>2021-02-11T08:53:17Z</time>
      </trkpt>
      <trkpt lat="45.31997" lon="6.24082">
        <ele>1199</ele>
        <time>2021-02-11T08:53:49Z</time>
      </trkpt>
      <trkpt lat="45.32002" lon="6.24082">
        <ele>1199</ele>
        <time>2021-02-11T08:54:04Z</time>
      </trkpt>
      <trkpt lat="45.32012" lon="6.24091">
        <ele>1224</ele>
        <time>2021-02-11T08:54:11Z</time>
      </trkpt>
      <trkpt lat="45.32014" lon="6.24087">
        <ele>1229</ele>
        <time>2021-02-11T08:54:17Z</time>
      </trkpt>
      <trkpt lat="45.32011" lon="6.24081">
        <ele>1229</ele>
        <time>2021-02-11T08:54:19Z</time>
      </trkpt>
      <trkpt lat="45.32012" lon="6.24076">
        <ele>1230</ele>
        <time>2021-02-11T08:54:24Z</time>
      </trkpt>
      <trkpt lat="45.32015" lon="6.24074">
        <ele>1232</ele>
        <time>2021-02-11T08:54:29Z</time>
      </trkpt>
      <trkpt lat="45.32016" lon="6.24069">
        <ele>1232</ele>
        <time>2021-02-11T08:54:31Z</time>
      </trkpt>
      <trkpt lat="45.32014" lon="6.24065">
        <ele>1232</ele>
        <time>2021-02-11T08:54:36Z</time>
      </trkpt>
      <trkpt lat="45.32014" lon="6.24061">
        <ele>1230</ele>
        <time>2021-02-11T08:54:40Z</time>
      </trkpt>
      <trkpt lat="45.3202" lon="6.24064">
        <ele>1222</ele>
        <time>2021-02-11T08:54:48Z</time>
      </trkpt>
      <trkpt lat="45.32025" lon="6.24063">
        <ele>1221</ele>
        <time>2021-02-11T08:54:51Z</time>
      </trkpt>
      <trkpt lat="45.32024" lon="6.24059">
        <ele>1218</ele>
        <time>2021-02-11T08:54:52Z</time>
      </trkpt>
      <trkpt lat="45.32028" lon="6.24052">
        <ele>1213</ele>
        <time>2021-02-11T08:54:57Z</time>
      </trkpt>
      <trkpt lat="45.32039" lon="6.24049">
        <ele>1217</ele>
        <time>2021-02-11T08:55:17Z</time>
      </trkpt>
      <trkpt lat="45.32045" lon="6.24053">
        <ele>1221</ele>
        <time>2021-02-11T08:55:20Z</time>
      </trkpt>
      <trkpt lat="45.32048" lon="6.24053">
        <ele>1225</ele>
        <time>2021-02-11T08:55:23Z</time>
      </trkpt>
      <trkpt lat="45.32048" lon="6.24048">
        <ele>1226</ele>
        <time>2021-02-11T08:55:27Z</time>
      </trkpt>
      <trkpt lat="45.3205" lon="6.24045">
        <ele>1224</ele>
        <time>2021-02-11T08:55:30Z</time>
      </trkpt>
      <trkpt lat="45.3207" lon="6.24035">
        <ele>1221</ele>
        <time>2021-02-11T08:56:08Z</time>
      </trkpt>
      <trkpt lat="45.3207" lon="6.24031">
        <ele>1217</ele>
        <time>2021-02-11T08:56:12Z</time>
      </trkpt>
      <trkpt lat="45.32076" lon="6.24021">
        <ele>1213</ele>
        <time>2021-02-11T08:56:21Z</time>
      </trkpt>
      <trkpt lat="45.32079" lon="6.2402">
        <ele>1214</ele>
        <time>2021-02-11T08:56:26Z</time>
      </trkpt>
      <trkpt lat="45.32081" lon="6.24023">
        <ele>1213</ele>
        <time>2021-02-11T08:56:30Z</time>
      </trkpt>
      <trkpt lat="45.3209" lon="6.24023">
        <ele>1211</ele>
        <time>2021-02-11T08:56:43Z</time>
      </trkpt>
      <trkpt lat="45.32092" lon="6.24006">
        <ele>1213</ele>
        <time>2021-02-11T08:57:08Z</time>
      </trkpt>
      <trkpt lat="45.32095" lon="6.24003">
        <ele>1213</ele>
        <time>2021-02-11T08:57:11Z</time>
      </trkpt>
      <trkpt lat="45.32095" lon="6.23999">
        <ele>1214</ele>
        <time>2021-02-11T08:57:17Z</time>
      </trkpt>
      <trkpt lat="45.32101" lon="6.23994">
        <ele>1216</ele>
        <time>2021-02-11T08:57:29Z</time>
      </trkpt>
      <trkpt lat="45.32108" lon="6.23995">
        <ele>1217</ele>
        <time>2021-02-11T08:57:33Z</time>
      </trkpt>
      <trkpt lat="45.3211" lon="6.23993">
        <ele>1218</ele>
        <time>2021-02-11T08:57:37Z</time>
      </trkpt>
      <trkpt lat="45.32111" lon="6.23988">
        <ele>1218</ele>
        <time>2021-02-11T08:57:49Z</time>
      </trkpt>
      <trkpt lat="45.32115" lon="6.23985">
        <ele>1219</ele>
        <time>2021-02-11T08:57:55Z</time>
      </trkpt>
      <trkpt lat="45.32122" lon="6.2397">
        <ele>1217</ele>
        <time>2021-02-11T08:58:13Z</time>
      </trkpt>
      <trkpt lat="45.32111" lon="6.23958">
        <ele>1225</ele>
        <time>2021-02-11T08:58:26Z</time>
      </trkpt>
      <trkpt lat="45.32117" lon="6.23955">
        <ele>1231</ele>
        <time>2021-02-11T08:58:32Z</time>
      </trkpt>
      <trkpt lat="45.32119" lon="6.23952">
        <ele>1231</ele>
        <time>2021-02-11T08:58:34Z</time>
      </trkpt>
      <trkpt lat="45.32122" lon="6.23951">
        <ele>1232</ele>
        <time>2021-02-11T08:58:44Z</time>
      </trkpt>
      <trkpt lat="45.32124" lon="6.23949">
        <ele>1231</ele>
        <time>2021-02-11T08:58:51Z</time>
      </trkpt>
      <trkpt lat="45.32127" lon="6.23948">
        <ele>1231</ele>
        <time>2021-02-11T08:58:58Z</time>
      </trkpt>
      <trkpt lat="45.32126" lon="6.23952">
        <ele>1231</ele>
        <time>2021-02-11T08:59:01Z</time>
      </trkpt>
      <trkpt lat="45.32126" lon="6.23955">
        <ele>1231</ele>
        <time>2021-02-11T08:59:09Z</time>
      </trkpt>
      <trkpt lat="45.32126" lon="6.23959">
        <ele>1231</ele>
        <time>2021-02-11T08:59:12Z</time>
      </trkpt>
      <trkpt lat="45.32126" lon="6.23961">
        <ele>1232</ele>
        <time>2021-02-11T08:59:16Z</time>
      </trkpt>
      <trkpt lat="45.32123" lon="6.23961">
        <ele>1231</ele>
        <time>2021-02-11T08:59:27Z</time>
      </trkpt>
      <trkpt lat="45.32123" lon="6.23964">
        <ele>1231</ele>
        <time>2021-02-11T08:59:34Z</time>
      </trkpt>
      <trkpt lat="45.32126" lon="6.23964">
        <ele>1231</ele>
        <time>2021-02-11T08:59:50Z</time>
      </trkpt>
      <trkpt lat="45.32128" lon="6.23963">
        <ele>1231</ele>
        <time>2021-02-11T08:59:54Z</time>
      </trkpt>
      <trkpt lat="45.3213" lon="6.23963">
        <ele>1231</ele>
        <time>2021-02-11T09:00:03Z</time>
      </trkpt>
      <trkpt lat="45.32133" lon="6.23963">
        <ele>1231</ele>
        <time>2021-02-11T09:00:08Z</time>
      </trkpt>
      <trkpt lat="45.32131" lon="6.23964">
        <ele>1230</ele>
        <time>2021-02-11T09:00:26Z</time>
      </trkpt>
      <trkpt lat="45.32136" lon="6.23954">
        <ele>1230</ele>
        <time>2021-02-11T09:01:00Z</time>
      </trkpt>
      <trkpt lat="45.32145" lon="6.23942">
        <ele>1227</ele>
        <time>2021-02-11T09:01:24Z</time>
      </trkpt>
      <trkpt lat="45.32151" lon="6.23944">
        <ele>1226</ele>
        <time>2021-02-11T09:01:30Z</time>
      </trkpt>
      <trkpt lat="45.32154" lon="6.23942">
        <ele>1226</ele>
        <time>2021-02-11T09:01:35Z</time>
      </trkpt>
      <trkpt lat="45.32155" lon="6.23939">
        <ele>1226</ele>
        <time>2021-02-11T09:01:41Z</time>
      </trkpt>
      <trkpt lat="45.32154" lon="6.23937">
        <ele>1228</ele>
        <time>2021-02-11T09:01:48Z</time>
      </trkpt>
      <trkpt lat="45.32155" lon="6.23933">
        <ele>1230</ele>
        <time>2021-02-11T09:01:53Z</time>
      </trkpt>
      <trkpt lat="45.32156" lon="6.23929">
        <ele>1230</ele>
        <time>2021-02-11T09:01:57Z</time>
      </trkpt>
      <trkpt lat="45.32159" lon="6.23927">
        <ele>1231</ele>
        <time>2021-02-11T09:02:01Z</time>
      </trkpt>
      <trkpt lat="45.32161" lon="6.23925">
        <ele>1231</ele>
        <time>2021-02-11T09:02:03Z</time>
      </trkpt>
      <trkpt lat="45.32163" lon="6.23922">
        <ele>1233</ele>
        <time>2021-02-11T09:02:06Z</time>
      </trkpt>
      <trkpt lat="45.32161" lon="6.2392">
        <ele>1235</ele>
        <time>2021-02-11T09:02:12Z</time>
      </trkpt>
      <trkpt lat="45.32169" lon="6.23915">
        <ele>1237</ele>
        <time>2021-02-11T09:02:30Z</time>
      </trkpt>
      <trkpt lat="45.32169" lon="6.23911">
        <ele>1237</ele>
        <time>2021-02-11T09:02:36Z</time>
      </trkpt>
      <trkpt lat="45.3217" lon="6.23907">
        <ele>1238</ele>
        <time>2021-02-11T09:02:39Z</time>
      </trkpt>
      <trkpt lat="45.32175" lon="6.23904">
        <ele>1238</ele>
        <time>2021-02-11T09:02:45Z</time>
      </trkpt>
      <trkpt lat="45.32176" lon="6.23901">
        <ele>1239</ele>
        <time>2021-02-11T09:02:55Z</time>
      </trkpt>
      <trkpt lat="45.32175" lon="6.23897">
        <ele>1239</ele>
        <time>2021-02-11T09:02:58Z</time>
      </trkpt>
      <trkpt lat="45.32174" lon="6.23894">
        <ele>1237</ele>
        <time>2021-02-11T09:03:02Z</time>
      </trkpt>
      <trkpt lat="45.32177" lon="6.23888">
        <ele>1237</ele>
        <time>2021-02-11T09:03:08Z</time>
      </trkpt>
      <trkpt lat="45.32175" lon="6.23885">
        <ele>1238</ele>
        <time>2021-02-11T09:03:16Z</time>
      </trkpt>
      <trkpt lat="45.32175" lon="6.23881">
        <ele>1239</ele>
        <time>2021-02-11T09:03:19Z</time>
      </trkpt>
      <trkpt lat="45.32177" lon="6.23877">
        <ele>1240</ele>
        <time>2021-02-11T09:03:23Z</time>
      </trkpt>
      <trkpt lat="45.32175" lon="6.23874">
        <ele>1240</ele>
        <time>2021-02-11T09:03:27Z</time>
      </trkpt>
      <trkpt lat="45.32172" lon="6.23878">
        <ele>1242</ele>
        <time>2021-02-11T09:03:30Z</time>
      </trkpt>
      <trkpt lat="45.32173" lon="6.23878">
        <ele>1248</ele>
        <time>2021-02-11T09:03:52Z</time>
      </trkpt>
      <trkpt lat="45.32177" lon="6.23872">
        <ele>1251</ele>
        <time>2021-02-11T09:03:59Z</time>
      </trkpt>
      <trkpt lat="45.32179" lon="6.23865">
        <ele>1252</ele>
        <time>2021-02-11T09:04:08Z</time>
      </trkpt>
      <trkpt lat="45.32178" lon="6.23863">
        <ele>1254</ele>
        <time>2021-02-11T09:04:16Z</time>
      </trkpt>
      <trkpt lat="45.32175" lon="6.23865">
        <ele>1254</ele>
        <time>2021-02-11T09:04:19Z</time>
      </trkpt>
      <trkpt lat="45.32173" lon="6.23865">
        <ele>1255</ele>
        <time>2021-02-11T09:04:21Z</time>
      </trkpt>
      <trkpt lat="45.32171" lon="6.23867">
        <ele>1255</ele>
        <time>2021-02-11T09:04:25Z</time>
      </trkpt>
      <trkpt lat="45.3217" lon="6.23866">
        <ele>1256</ele>
        <time>2021-02-11T09:04:41Z</time>
      </trkpt>
      <trkpt lat="45.32175" lon="6.23847">
        <ele>1261</ele>
        <time>2021-02-11T09:05:01Z</time>
      </trkpt>
      <trkpt lat="45.32179" lon="6.23844">
        <ele>1261</ele>
        <time>2021-02-11T09:05:06Z</time>
      </trkpt>
      <trkpt lat="45.32181" lon="6.23843">
        <ele>1261</ele>
        <time>2021-02-11T09:05:09Z</time>
      </trkpt>
      <trkpt lat="45.32183" lon="6.23845">
        <ele>1263</ele>
        <time>2021-02-11T09:05:34Z</time>
      </trkpt>
      <trkpt lat="45.32185" lon="6.23846">
        <ele>1263</ele>
        <time>2021-02-11T09:05:40Z</time>
      </trkpt>
      <trkpt lat="45.32188" lon="6.23846">
        <ele>1263</ele>
        <time>2021-02-11T09:05:46Z</time>
      </trkpt>
      <trkpt lat="45.32189" lon="6.23838">
        <ele>1264</ele>
        <time>2021-02-11T09:05:55Z</time>
      </trkpt>
      <trkpt lat="45.32192" lon="6.23836">
        <ele>1265</ele>
        <time>2021-02-11T09:06:07Z</time>
      </trkpt>
      <trkpt lat="45.32195" lon="6.23837">
        <ele>1266</ele>
        <time>2021-02-11T09:06:18Z</time>
      </trkpt>
      <trkpt lat="45.32198" lon="6.23829">
        <ele>1268</ele>
        <time>2021-02-11T09:06:27Z</time>
      </trkpt>
      <trkpt lat="45.32201" lon="6.23828">
        <ele>1268</ele>
        <time>2021-02-11T09:06:30Z</time>
      </trkpt>
      <trkpt lat="45.32209" lon="6.23833">
        <ele>1268</ele>
        <time>2021-02-11T09:06:38Z</time>
      </trkpt>
      <trkpt lat="45.32214" lon="6.23828">
        <ele>1268</ele>
        <time>2021-02-11T09:06:58Z</time>
      </trkpt>
      <trkpt lat="45.32216" lon="6.23824">
        <ele>1268</ele>
        <time>2021-02-11T09:07:07Z</time>
      </trkpt>
      <trkpt lat="45.32218" lon="6.23818">
        <ele>1268</ele>
        <time>2021-02-11T09:07:13Z</time>
      </trkpt>
      <trkpt lat="45.32221" lon="6.23817">
        <ele>1268</ele>
        <time>2021-02-11T09:07:15Z</time>
      </trkpt>
      <trkpt lat="45.32224" lon="6.23816">
        <ele>1268</ele>
        <time>2021-02-11T09:07:21Z</time>
      </trkpt>
      <trkpt lat="45.32228" lon="6.23817">
        <ele>1268</ele>
        <time>2021-02-11T09:07:26Z</time>
      </trkpt>
      <trkpt lat="45.32235" lon="6.23811">
        <ele>1267</ele>
        <time>2021-02-11T09:07:36Z</time>
      </trkpt>
      <trkpt lat="45.32239" lon="6.2381">
        <ele>1264</ele>
        <time>2021-02-11T09:07:42Z</time>
      </trkpt>
      <trkpt lat="45.32246" lon="6.23807">
        <ele>1261</ele>
        <time>2021-02-11T09:07:52Z</time>
      </trkpt>
      <trkpt lat="45.32252" lon="6.238">
        <ele>1261</ele>
        <time>2021-02-11T09:07:59Z</time>
      </trkpt>
      <trkpt lat="45.32265" lon="6.23789">
        <ele>1258</ele>
        <time>2021-02-11T09:08:13Z</time>
      </trkpt>
      <trkpt lat="45.32267" lon="6.23791">
        <ele>1258</ele>
        <time>2021-02-11T09:08:15Z</time>
      </trkpt>
      <trkpt lat="45.3227" lon="6.23792">
        <ele>1260</ele>
        <time>2021-02-11T09:08:19Z</time>
      </trkpt>
      <trkpt lat="45.32272" lon="6.23791">
        <ele>1270</ele>
        <time>2021-02-11T09:08:46Z</time>
      </trkpt>
      <trkpt lat="45.32268" lon="6.23806">
        <ele>1290</ele>
        <time>2021-02-11T09:08:48Z</time>
      </trkpt>
      <trkpt lat="45.32272" lon="6.23804">
        <ele>1311</ele>
        <time>2021-02-11T09:08:51Z</time>
      </trkpt>
      <trkpt lat="45.32275" lon="6.23803">
        <ele>1327</ele>
        <time>2021-02-11T09:08:55Z</time>
      </trkpt>
      <trkpt lat="45.3228" lon="6.23799">
        <ele>1345</ele>
        <time>2021-02-11T09:09:13Z</time>
      </trkpt>
      <trkpt lat="45.32282" lon="6.23798">
        <ele>1346</ele>
        <time>2021-02-11T09:09:17Z</time>
      </trkpt>
      <trkpt lat="45.32284" lon="6.23796">
        <ele>1345</ele>
        <time>2021-02-11T09:09:22Z</time>
      </trkpt>
      <trkpt lat="45.32287" lon="6.23794">
        <ele>1342</ele>
        <time>2021-02-11T09:09:25Z</time>
      </trkpt>
      <trkpt lat="45.3229" lon="6.23794">
        <ele>1338</ele>
        <time>2021-02-11T09:09:29Z</time>
      </trkpt>
      <trkpt lat="45.32294" lon="6.23787">
        <ele>1328</ele>
        <time>2021-02-11T09:09:35Z</time>
      </trkpt>
      <trkpt lat="45.32298" lon="6.23784">
        <ele>1324</ele>
        <time>2021-02-11T09:09:39Z</time>
      </trkpt>
      <trkpt lat="45.32299" lon="6.2378">
        <ele>1319</ele>
        <time>2021-02-11T09:09:44Z</time>
      </trkpt>
      <trkpt lat="45.32308" lon="6.23784">
        <ele>1309</ele>
        <time>2021-02-11T09:10:01Z</time>
      </trkpt>
      <trkpt lat="45.3232" lon="6.23759">
        <ele>1310</ele>
        <time>2021-02-11T09:10:18Z</time>
      </trkpt>
      <trkpt lat="45.3232" lon="6.23754">
        <ele>1305</ele>
        <time>2021-02-11T09:10:24Z</time>
      </trkpt>
      <trkpt lat="45.32323" lon="6.23753">
        <ele>1299</ele>
        <time>2021-02-11T09:10:37Z</time>
      </trkpt>
      <trkpt lat="45.32326" lon="6.23755">
        <ele>1298</ele>
        <time>2021-02-11T09:10:45Z</time>
      </trkpt>
      <trkpt lat="45.3233" lon="6.23742">
        <ele>1291</ele>
        <time>2021-02-11T09:11:00Z</time>
      </trkpt>
      <trkpt lat="45.32327" lon="6.23738">
        <ele>1290</ele>
        <time>2021-02-11T09:11:07Z</time>
      </trkpt>
      <trkpt lat="45.32327" lon="6.23735">
        <ele>1291</ele>
        <time>2021-02-11T09:11:22Z</time>
      </trkpt>
      <trkpt lat="45.32315" lon="6.2375">
        <ele>1302</ele>
        <time>2021-02-11T09:11:30Z</time>
      </trkpt>
      <trkpt lat="45.32308" lon="6.23749">
        <ele>1306</ele>
        <time>2021-02-11T09:11:40Z</time>
      </trkpt>
      <trkpt lat="45.32309" lon="6.23745">
        <ele>1306</ele>
        <time>2021-02-11T09:11:41Z</time>
      </trkpt>
      <trkpt lat="45.32308" lon="6.23742">
        <ele>1305</ele>
        <time>2021-02-11T09:11:45Z</time>
      </trkpt>
      <trkpt lat="45.32307" lon="6.23738">
        <ele>1305</ele>
        <time>2021-02-11T09:11:48Z</time>
      </trkpt>
      <trkpt lat="45.32319" lon="6.23728">
        <ele>1303</ele>
        <time>2021-02-11T09:12:16Z</time>
      </trkpt>
      <trkpt lat="45.3232" lon="6.2372">
        <ele>1303</ele>
        <time>2021-02-11T09:12:18Z</time>
      </trkpt>
      <trkpt lat="45.32321" lon="6.23716">
        <ele>1302</ele>
        <time>2021-02-11T09:12:23Z</time>
      </trkpt>
      <trkpt lat="45.32331" lon="6.23709">
        <ele>1301</ele>
        <time>2021-02-11T09:12:53Z</time>
      </trkpt>
      <trkpt lat="45.32337" lon="6.23703">
        <ele>1301</ele>
        <time>2021-02-11T09:12:59Z</time>
      </trkpt>
      <trkpt lat="45.32335" lon="6.23699">
        <ele>1302</ele>
        <time>2021-02-11T09:13:04Z</time>
      </trkpt>
      <trkpt lat="45.32329" lon="6.23696">
        <ele>1302</ele>
        <time>2021-02-11T09:13:12Z</time>
      </trkpt>
      <trkpt lat="45.32327" lon="6.23692">
        <ele>1302</ele>
        <time>2021-02-11T09:13:18Z</time>
      </trkpt>
      <trkpt lat="45.3232" lon="6.23688">
        <ele>1303</ele>
        <time>2021-02-11T09:13:25Z</time>
      </trkpt>
      <trkpt lat="45.3232" lon="6.23682">
        <ele>1303</ele>
        <time>2021-02-11T09:13:31Z</time>
      </trkpt>
      <trkpt lat="45.32325" lon="6.23683">
        <ele>1304</ele>
        <time>2021-02-11T09:13:35Z</time>
      </trkpt>
      <trkpt lat="45.32334" lon="6.23673">
        <ele>1305</ele>
        <time>2021-02-11T09:13:48Z</time>
      </trkpt>
      <trkpt lat="45.3235" lon="6.23669">
        <ele>1306</ele>
        <time>2021-02-11T09:14:16Z</time>
      </trkpt>
      <trkpt lat="45.32349" lon="6.23661">
        <ele>1306</ele>
        <time>2021-02-11T09:14:21Z</time>
      </trkpt>
      <trkpt lat="45.32355" lon="6.23664">
        <ele>1308</ele>
        <time>2021-02-11T09:14:30Z</time>
      </trkpt>
      <trkpt lat="45.32362" lon="6.23649">
        <ele>1312</ele>
        <time>2021-02-11T09:14:56Z</time>
      </trkpt>
      <trkpt lat="45.32369" lon="6.2365">
        <ele>1313</ele>
        <time>2021-02-11T09:15:01Z</time>
      </trkpt>
      <trkpt lat="45.32366" lon="6.23639">
        <ele>1312</ele>
        <time>2021-02-11T09:15:24Z</time>
      </trkpt>
      <trkpt lat="45.32372" lon="6.23633">
        <ele>1317</ele>
        <time>2021-02-11T09:15:34Z</time>
      </trkpt>
      <trkpt lat="45.32373" lon="6.23632">
        <ele>1323</ele>
        <time>2021-02-11T09:15:54Z</time>
      </trkpt>
      <trkpt lat="45.32369" lon="6.23631">
        <ele>1324</ele>
        <time>2021-02-11T09:15:59Z</time>
      </trkpt>
      <trkpt lat="45.32363" lon="6.23625">
        <ele>1325</ele>
        <time>2021-02-11T09:16:05Z</time>
      </trkpt>
      <trkpt lat="45.32366" lon="6.23622">
        <ele>1326</ele>
        <time>2021-02-11T09:16:10Z</time>
      </trkpt>
      <trkpt lat="45.32382" lon="6.23624">
        <ele>1332</ele>
        <time>2021-02-11T09:16:38Z</time>
      </trkpt>
      <trkpt lat="45.32386" lon="6.2362">
        <ele>1333</ele>
        <time>2021-02-11T09:16:48Z</time>
      </trkpt>
      <trkpt lat="45.32387" lon="6.23614">
        <ele>1333</ele>
        <time>2021-02-11T09:16:54Z</time>
      </trkpt>
      <trkpt lat="45.3239" lon="6.23607">
        <ele>1334</ele>
        <time>2021-02-11T09:17:09Z</time>
      </trkpt>
      <trkpt lat="45.32392" lon="6.23603">
        <ele>1335</ele>
        <time>2021-02-11T09:17:13Z</time>
      </trkpt>
      <trkpt lat="45.3239" lon="6.236">
        <ele>1335</ele>
        <time>2021-02-11T09:17:18Z</time>
      </trkpt>
      <trkpt lat="45.32393" lon="6.23598">
        <ele>1335</ele>
        <time>2021-02-11T09:17:24Z</time>
      </trkpt>
      <trkpt lat="45.32396" lon="6.23597">
        <ele>1335</ele>
        <time>2021-02-11T09:17:27Z</time>
      </trkpt>
      <trkpt lat="45.32398" lon="6.23595">
        <ele>1337</ele>
        <time>2021-02-11T09:17:36Z</time>
      </trkpt>
      <trkpt lat="45.32401" lon="6.23596">
        <ele>1338</ele>
        <time>2021-02-11T09:17:40Z</time>
      </trkpt>
      <trkpt lat="45.32402" lon="6.23599">
        <ele>1339</ele>
        <time>2021-02-11T09:17:43Z</time>
      </trkpt>
      <trkpt lat="45.32403" lon="6.23596">
        <ele>1342</ele>
        <time>2021-02-11T09:17:51Z</time>
      </trkpt>
      <trkpt lat="45.32406" lon="6.23595">
        <ele>1342</ele>
        <time>2021-02-11T09:17:57Z</time>
      </trkpt>
      <trkpt lat="45.32409" lon="6.23593">
        <ele>1342</ele>
        <time>2021-02-11T09:18:00Z</time>
      </trkpt>
      <trkpt lat="45.3241" lon="6.23591">
        <ele>1343</ele>
        <time>2021-02-11T09:18:03Z</time>
      </trkpt>
      <trkpt lat="45.32411" lon="6.23588">
        <ele>1345</ele>
        <time>2021-02-11T09:18:07Z</time>
      </trkpt>
      <trkpt lat="45.3241" lon="6.23584">
        <ele>1346</ele>
        <time>2021-02-11T09:18:11Z</time>
      </trkpt>
      <trkpt lat="45.32411" lon="6.23584">
        <ele>1350</ele>
        <time>2021-02-11T09:18:23Z</time>
      </trkpt>
      <trkpt lat="45.32406" lon="6.23582">
        <ele>1350</ele>
        <time>2021-02-11T09:18:30Z</time>
      </trkpt>
      <trkpt lat="45.32404" lon="6.23579">
        <ele>1354</ele>
        <time>2021-02-11T09:18:39Z</time>
      </trkpt>
      <trkpt lat="45.32404" lon="6.23575">
        <ele>1354</ele>
        <time>2021-02-11T09:18:42Z</time>
      </trkpt>
      <trkpt lat="45.32404" lon="6.23571">
        <ele>1355</ele>
        <time>2021-02-11T09:18:45Z</time>
      </trkpt>
      <trkpt lat="45.32407" lon="6.23569">
        <ele>1356</ele>
        <time>2021-02-11T09:18:50Z</time>
      </trkpt>
      <trkpt lat="45.32411" lon="6.2357">
        <ele>1357</ele>
        <time>2021-02-11T09:18:52Z</time>
      </trkpt>
      <trkpt lat="45.32413" lon="6.23567">
        <ele>1359</ele>
        <time>2021-02-11T09:18:56Z</time>
      </trkpt>
      <trkpt lat="45.32413" lon="6.23563">
        <ele>1361</ele>
        <time>2021-02-11T09:19:01Z</time>
      </trkpt>
      <trkpt lat="45.32411" lon="6.2356">
        <ele>1361</ele>
        <time>2021-02-11T09:19:03Z</time>
      </trkpt>
      <trkpt lat="45.3241" lon="6.23556">
        <ele>1362</ele>
        <time>2021-02-11T09:19:06Z</time>
      </trkpt>
      <trkpt lat="45.32413" lon="6.23554">
        <ele>1364</ele>
        <time>2021-02-11T09:19:19Z</time>
      </trkpt>
      <trkpt lat="45.32418" lon="6.23549">
        <ele>1367</ele>
        <time>2021-02-11T09:19:25Z</time>
      </trkpt>
      <trkpt lat="45.32426" lon="6.23543">
        <ele>1374</ele>
        <time>2021-02-11T09:19:38Z</time>
      </trkpt>
      <trkpt lat="45.32429" lon="6.23541">
        <ele>1374</ele>
        <time>2021-02-11T09:19:40Z</time>
      </trkpt>
      <trkpt lat="45.32431" lon="6.23538">
        <ele>1375</ele>
        <time>2021-02-11T09:19:43Z</time>
      </trkpt>
      <trkpt lat="45.32434" lon="6.23538">
        <ele>1376</ele>
        <time>2021-02-11T09:19:48Z</time>
      </trkpt>
      <trkpt lat="45.32434" lon="6.23535">
        <ele>1377</ele>
        <time>2021-02-11T09:19:53Z</time>
      </trkpt>
      <trkpt lat="45.32433" lon="6.23531">
        <ele>1377</ele>
        <time>2021-02-11T09:19:55Z</time>
      </trkpt>
      <trkpt lat="45.32432" lon="6.23527">
        <ele>1378</ele>
        <time>2021-02-11T09:19:59Z</time>
      </trkpt>
      <trkpt lat="45.32433" lon="6.23523">
        <ele>1378</ele>
        <time>2021-02-11T09:20:08Z</time>
      </trkpt>
      <trkpt lat="45.32433" lon="6.23518">
        <ele>1378</ele>
        <time>2021-02-11T09:20:11Z</time>
      </trkpt>
      <trkpt lat="45.32432" lon="6.23515">
        <ele>1379</ele>
        <time>2021-02-11T09:20:15Z</time>
      </trkpt>
      <trkpt lat="45.32431" lon="6.23511">
        <ele>1379</ele>
        <time>2021-02-11T09:20:18Z</time>
      </trkpt>
      <trkpt lat="45.3244" lon="6.23517">
        <ele>1378</ele>
        <time>2021-02-11T09:20:41Z</time>
      </trkpt>
      <trkpt lat="45.32445" lon="6.23521">
        <ele>1377</ele>
        <time>2021-02-11T09:20:48Z</time>
      </trkpt>
      <trkpt lat="45.32452" lon="6.23523">
        <ele>1378</ele>
        <time>2021-02-11T09:20:50Z</time>
      </trkpt>
      <trkpt lat="45.32449" lon="6.23522">
        <ele>1380</ele>
        <time>2021-02-11T09:20:55Z</time>
      </trkpt>
      <trkpt lat="45.32448" lon="6.2352">
        <ele>1381</ele>
        <time>2021-02-11T09:20:57Z</time>
      </trkpt>
      <trkpt lat="45.32448" lon="6.23515">
        <ele>1383</ele>
        <time>2021-02-11T09:21:02Z</time>
      </trkpt>
      <trkpt lat="45.32451" lon="6.23514">
        <ele>1384</ele>
        <time>2021-02-11T09:21:04Z</time>
      </trkpt>
      <trkpt lat="45.32454" lon="6.23514">
        <ele>1386</ele>
        <time>2021-02-11T09:21:06Z</time>
      </trkpt>
      <trkpt lat="45.32456" lon="6.2351">
        <ele>1386</ele>
        <time>2021-02-11T09:21:16Z</time>
      </trkpt>
      <trkpt lat="45.32459" lon="6.2351">
        <ele>1383</ele>
        <time>2021-02-11T09:21:18Z</time>
      </trkpt>
      <trkpt lat="45.32461" lon="6.23506">
        <ele>1381</ele>
        <time>2021-02-11T09:21:26Z</time>
      </trkpt>
      <trkpt lat="45.32461" lon="6.235">
        <ele>1380</ele>
        <time>2021-02-11T09:21:29Z</time>
      </trkpt>
      <trkpt lat="45.3246" lon="6.23495">
        <ele>1381</ele>
        <time>2021-02-11T09:21:32Z</time>
      </trkpt>
      <trkpt lat="45.32457" lon="6.23488">
        <ele>1383</ele>
        <time>2021-02-11T09:21:42Z</time>
      </trkpt>
      <trkpt lat="45.32457" lon="6.23485">
        <ele>1383</ele>
        <time>2021-02-11T09:21:47Z</time>
      </trkpt>
      <trkpt lat="45.32457" lon="6.23481">
        <ele>1385</ele>
        <time>2021-02-11T09:21:54Z</time>
      </trkpt>
      <trkpt lat="45.32458" lon="6.23477">
        <ele>1385</ele>
        <time>2021-02-11T09:21:59Z</time>
      </trkpt>
      <trkpt lat="45.32456" lon="6.23475">
        <ele>1386</ele>
        <time>2021-02-11T09:22:02Z</time>
      </trkpt>
      <trkpt lat="45.32453" lon="6.23472">
        <ele>1387</ele>
        <time>2021-02-11T09:22:11Z</time>
      </trkpt>
      <trkpt lat="45.32454" lon="6.23471">
        <ele>1384</ele>
        <time>2021-02-11T09:22:24Z</time>
      </trkpt>
      <trkpt lat="45.32458" lon="6.23472">
        <ele>1377</ele>
        <time>2021-02-11T09:22:26Z</time>
      </trkpt>
      <trkpt lat="45.32461" lon="6.23471">
        <ele>1372</ele>
        <time>2021-02-11T09:22:28Z</time>
      </trkpt>
      <trkpt lat="45.32463" lon="6.23468">
        <ele>1366</ele>
        <time>2021-02-11T09:22:32Z</time>
      </trkpt>
      <trkpt lat="45.32467" lon="6.23466">
        <ele>1361</ele>
        <time>2021-02-11T09:22:40Z</time>
      </trkpt>
      <trkpt lat="45.32464" lon="6.2346">
        <ele>1361</ele>
        <time>2021-02-11T09:22:46Z</time>
      </trkpt>
      <trkpt lat="45.32461" lon="6.23459">
        <ele>1363</ele>
        <time>2021-02-11T09:22:48Z</time>
      </trkpt>
      <trkpt lat="45.32448" lon="6.23457">
        <ele>1365</ele>
        <time>2021-02-11T09:22:52Z</time>
      </trkpt>
      <trkpt lat="45.32454" lon="6.2346">
        <ele>1365</ele>
        <time>2021-02-11T09:22:56Z</time>
      </trkpt>
      <trkpt lat="45.32461" lon="6.23462">
        <ele>1370</ele>
        <time>2021-02-11T09:23:03Z</time>
      </trkpt>
      <trkpt lat="45.3246" lon="6.23455">
        <ele>1375</ele>
        <time>2021-02-11T09:23:09Z</time>
      </trkpt>
      <trkpt lat="45.32462" lon="6.23452">
        <ele>1381</ele>
        <time>2021-02-11T09:23:11Z</time>
      </trkpt>
      <trkpt lat="45.32461" lon="6.23447">
        <ele>1383</ele>
        <time>2021-02-11T09:23:16Z</time>
      </trkpt>
      <trkpt lat="45.32466" lon="6.23444">
        <ele>1384</ele>
        <time>2021-02-11T09:23:20Z</time>
      </trkpt>
      <trkpt lat="45.3247" lon="6.23437">
        <ele>1387</ele>
        <time>2021-02-11T09:23:25Z</time>
      </trkpt>
      <trkpt lat="45.32465" lon="6.23428">
        <ele>1389</ele>
        <time>2021-02-11T09:23:32Z</time>
      </trkpt>
      <trkpt lat="45.3247" lon="6.23421">
        <ele>1389</ele>
        <time>2021-02-11T09:23:50Z</time>
      </trkpt>
      <trkpt lat="45.32467" lon="6.2342">
        <ele>1389</ele>
        <time>2021-02-11T09:23:53Z</time>
      </trkpt>
      <trkpt lat="45.32465" lon="6.23422">
        <ele>1391</ele>
        <time>2021-02-11T09:24:01Z</time>
      </trkpt>
      <trkpt lat="45.32464" lon="6.23421">
        <ele>1392</ele>
        <time>2021-02-11T09:24:05Z</time>
      </trkpt>
      <trkpt lat="45.32461" lon="6.23421">
        <ele>1395</ele>
        <time>2021-02-11T09:24:13Z</time>
      </trkpt>
      <trkpt lat="45.32463" lon="6.23418">
        <ele>1396</ele>
        <time>2021-02-11T09:24:18Z</time>
      </trkpt>
      <trkpt lat="45.32463" lon="6.23415">
        <ele>1396</ele>
        <time>2021-02-11T09:24:20Z</time>
      </trkpt>
      <trkpt lat="45.32465" lon="6.23413">
        <ele>1397</ele>
        <time>2021-02-11T09:24:25Z</time>
      </trkpt>
      <trkpt lat="45.32465" lon="6.23408">
        <ele>1397</ele>
        <time>2021-02-11T09:24:32Z</time>
      </trkpt>
      <trkpt lat="45.32463" lon="6.23404">
        <ele>1398</ele>
        <time>2021-02-11T09:24:34Z</time>
      </trkpt>
      <trkpt lat="45.32465" lon="6.23401">
        <ele>1398</ele>
        <time>2021-02-11T09:24:37Z</time>
      </trkpt>
      <trkpt lat="45.32467" lon="6.23398">
        <ele>1398</ele>
        <time>2021-02-11T09:24:42Z</time>
      </trkpt>
      <trkpt lat="45.32471" lon="6.23391">
        <ele>1398</ele>
        <time>2021-02-11T09:24:50Z</time>
      </trkpt>
      <trkpt lat="45.32481" lon="6.23385">
        <ele>1400</ele>
        <time>2021-02-11T09:25:10Z</time>
      </trkpt>
      <trkpt lat="45.32482" lon="6.23382">
        <ele>1401</ele>
        <time>2021-02-11T09:25:14Z</time>
      </trkpt>
      <trkpt lat="45.32481" lon="6.23379">
        <ele>1402</ele>
        <time>2021-02-11T09:25:17Z</time>
      </trkpt>
      <trkpt lat="45.32481" lon="6.23376">
        <ele>1403</ele>
        <time>2021-02-11T09:25:23Z</time>
      </trkpt>
      <trkpt lat="45.32482" lon="6.23372">
        <ele>1404</ele>
        <time>2021-02-11T09:25:30Z</time>
      </trkpt>
      <trkpt lat="45.32482" lon="6.23368">
        <ele>1405</ele>
        <time>2021-02-11T09:25:34Z</time>
      </trkpt>
      <trkpt lat="45.32483" lon="6.23365">
        <ele>1406</ele>
        <time>2021-02-11T09:25:39Z</time>
      </trkpt>
      <trkpt lat="45.32482" lon="6.23362">
        <ele>1407</ele>
        <time>2021-02-11T09:25:46Z</time>
      </trkpt>
      <trkpt lat="45.32482" lon="6.23352">
        <ele>1408</ele>
        <time>2021-02-11T09:26:03Z</time>
      </trkpt>
      <trkpt lat="45.32485" lon="6.23349">
        <ele>1410</ele>
        <time>2021-02-11T09:26:10Z</time>
      </trkpt>
      <trkpt lat="45.32487" lon="6.2335">
        <ele>1410</ele>
        <time>2021-02-11T09:26:16Z</time>
      </trkpt>
      <trkpt lat="45.32491" lon="6.23348">
        <ele>1412</ele>
        <time>2021-02-11T09:26:32Z</time>
      </trkpt>
      <trkpt lat="45.32495" lon="6.23348">
        <ele>1418</ele>
        <time>2021-02-11T09:26:58Z</time>
      </trkpt>
      <trkpt lat="45.32498" lon="6.23348">
        <ele>1419</ele>
        <time>2021-02-11T09:27:02Z</time>
      </trkpt>
      <trkpt lat="45.32499" lon="6.23346">
        <ele>1419</ele>
        <time>2021-02-11T09:27:13Z</time>
      </trkpt>
      <trkpt lat="45.32499" lon="6.23342">
        <ele>1419</ele>
        <time>2021-02-11T09:27:32Z</time>
      </trkpt>
      <trkpt lat="45.32501" lon="6.23343">
        <ele>1418</ele>
        <time>2021-02-11T09:27:38Z</time>
      </trkpt>
      <trkpt lat="45.32501" lon="6.23339">
        <ele>1418</ele>
        <time>2021-02-11T09:27:43Z</time>
      </trkpt>
      <trkpt lat="45.32504" lon="6.2334">
        <ele>1419</ele>
        <time>2021-02-11T09:27:56Z</time>
      </trkpt>
      <trkpt lat="45.32505" lon="6.23338">
        <ele>1419</ele>
        <time>2021-02-11T09:28:02Z</time>
      </trkpt>
      <trkpt lat="45.32505" lon="6.23335">
        <ele>1418</ele>
        <time>2021-02-11T09:28:20Z</time>
      </trkpt>
      <trkpt lat="45.32511" lon="6.23333">
        <ele>1417</ele>
        <time>2021-02-11T09:28:40Z</time>
      </trkpt>
      <trkpt lat="45.32513" lon="6.23331">
        <ele>1417</ele>
        <time>2021-02-11T09:28:45Z</time>
      </trkpt>
      <trkpt lat="45.32512" lon="6.23329">
        <ele>1416</ele>
        <time>2021-02-11T09:28:55Z</time>
      </trkpt>
      <trkpt lat="45.3251" lon="6.23326">
        <ele>1417</ele>
        <time>2021-02-11T09:29:02Z</time>
      </trkpt>
      <trkpt lat="45.3251" lon="6.23323">
        <ele>1417</ele>
        <time>2021-02-11T09:29:05Z</time>
      </trkpt>
      <trkpt lat="45.32513" lon="6.23321">
        <ele>1417</ele>
        <time>2021-02-11T09:29:13Z</time>
      </trkpt>
      <trkpt lat="45.32515" lon="6.23319">
        <ele>1417</ele>
        <time>2021-02-11T09:29:21Z</time>
      </trkpt>
      <trkpt lat="45.32513" lon="6.23318">
        <ele>1418</ele>
        <time>2021-02-11T09:29:25Z</time>
      </trkpt>
      <trkpt lat="45.32505" lon="6.23317">
        <ele>1418</ele>
        <time>2021-02-11T09:29:46Z</time>
      </trkpt>
      <trkpt lat="45.32503" lon="6.23315">
        <ele>1418</ele>
        <time>2021-02-11T09:29:50Z</time>
      </trkpt>
      <trkpt lat="45.32504" lon="6.23312">
        <ele>1419</ele>
        <time>2021-02-11T09:30:07Z</time>
      </trkpt>
      <trkpt lat="45.32503" lon="6.23309">
        <ele>1420</ele>
        <time>2021-02-11T09:30:19Z</time>
      </trkpt>
      <trkpt lat="45.32504" lon="6.23305">
        <ele>1421</ele>
        <time>2021-02-11T09:30:34Z</time>
      </trkpt>
      <trkpt lat="45.3251" lon="6.23307">
        <ele>1424</ele>
        <time>2021-02-11T09:30:47Z</time>
      </trkpt>
      <trkpt lat="45.32513" lon="6.23308">
        <ele>1424</ele>
        <time>2021-02-11T09:30:53Z</time>
      </trkpt>
      <trkpt lat="45.32517" lon="6.23309">
        <ele>1426</ele>
        <time>2021-02-11T09:31:01Z</time>
      </trkpt>
      <trkpt lat="45.3252" lon="6.23309">
        <ele>1426</ele>
        <time>2021-02-11T09:31:24Z</time>
      </trkpt>
      <trkpt lat="45.3251" lon="6.23304">
        <ele>1426</ele>
        <time>2021-02-11T09:31:51Z</time>
      </trkpt>
      <trkpt lat="45.3251" lon="6.23299">
        <ele>1427</ele>
        <time>2021-02-11T09:32:18Z</time>
      </trkpt>
      <trkpt lat="45.32512" lon="6.23297">
        <ele>1429</ele>
        <time>2021-02-11T09:32:24Z</time>
      </trkpt>
      <trkpt lat="45.32512" lon="6.23295">
        <ele>1431</ele>
        <time>2021-02-11T09:32:49Z</time>
      </trkpt>
      <trkpt lat="45.32516" lon="6.23292">
        <ele>1431</ele>
        <time>2021-02-11T09:33:14Z</time>
      </trkpt>
      <trkpt lat="45.32519" lon="6.23292">
        <ele>1432</ele>
        <time>2021-02-11T09:33:16Z</time>
      </trkpt>
      <trkpt lat="45.32518" lon="6.23289">
        <ele>1433</ele>
        <time>2021-02-11T09:33:25Z</time>
      </trkpt>
      <trkpt lat="45.32516" lon="6.23286">
        <ele>1434</ele>
        <time>2021-02-11T09:33:28Z</time>
      </trkpt>
      <trkpt lat="45.32515" lon="6.23284">
        <ele>1434</ele>
        <time>2021-02-11T09:33:33Z</time>
      </trkpt>
      <trkpt lat="45.32513" lon="6.23282">
        <ele>1436</ele>
        <time>2021-02-11T09:33:37Z</time>
      </trkpt>
      <trkpt lat="45.32511" lon="6.2328">
        <ele>1436</ele>
        <time>2021-02-11T09:33:42Z</time>
      </trkpt>
      <trkpt lat="45.3251" lon="6.23277">
        <ele>1437</ele>
        <time>2021-02-11T09:33:45Z</time>
      </trkpt>
      <trkpt lat="45.3251" lon="6.23274">
        <ele>1438</ele>
        <time>2021-02-11T09:33:47Z</time>
      </trkpt>
      <trkpt lat="45.3251" lon="6.23271">
        <ele>1439</ele>
        <time>2021-02-11T09:33:50Z</time>
      </trkpt>
      <trkpt lat="45.32508" lon="6.23269">
        <ele>1439</ele>
        <time>2021-02-11T09:33:55Z</time>
      </trkpt>
      <trkpt lat="45.32506" lon="6.23269">
        <ele>1441</ele>
        <time>2021-02-11T09:33:59Z</time>
      </trkpt>
      <trkpt lat="45.32504" lon="6.23272">
        <ele>1442</ele>
        <time>2021-02-11T09:34:17Z</time>
      </trkpt>
      <trkpt lat="45.32503" lon="6.23275">
        <ele>1443</ele>
        <time>2021-02-11T09:34:35Z</time>
      </trkpt>
      <trkpt lat="45.32502" lon="6.23281">
        <ele>1444</ele>
        <time>2021-02-11T09:34:47Z</time>
      </trkpt>
      <trkpt lat="45.32502" lon="6.23288">
        <ele>1445</ele>
        <time>2021-02-11T09:34:53Z</time>
      </trkpt>
      <trkpt lat="45.32501" lon="6.2329">
        <ele>1445</ele>
        <time>2021-02-11T09:35:00Z</time>
      </trkpt>
      <trkpt lat="45.32499" lon="6.2329">
        <ele>1446</ele>
        <time>2021-02-11T09:35:02Z</time>
      </trkpt>
      <trkpt lat="45.32498" lon="6.23287">
        <ele>1446</ele>
        <time>2021-02-11T09:35:21Z</time>
      </trkpt>
      <trkpt lat="45.32498" lon="6.23284">
        <ele>1447</ele>
        <time>2021-02-11T09:35:27Z</time>
      </trkpt>
      <trkpt lat="45.32496" lon="6.23286">
        <ele>1448</ele>
        <time>2021-02-11T09:35:32Z</time>
      </trkpt>
      <trkpt lat="45.32496" lon="6.2329">
        <ele>1448</ele>
        <time>2021-02-11T09:35:35Z</time>
      </trkpt>
      <trkpt lat="45.32496" lon="6.23293">
        <ele>1450</ele>
        <time>2021-02-11T09:35:40Z</time>
      </trkpt>
      <trkpt lat="45.32494" lon="6.23288">
        <ele>1450</ele>
        <time>2021-02-11T09:36:02Z</time>
      </trkpt>
      <trkpt lat="45.32492" lon="6.23287">
        <ele>1450</ele>
        <time>2021-02-11T09:36:07Z</time>
      </trkpt>
      <trkpt lat="45.32487" lon="6.23288">
        <ele>1450</ele>
        <time>2021-02-11T09:36:16Z</time>
      </trkpt>
      <trkpt lat="45.32485" lon="6.23289">
        <ele>1451</ele>
        <time>2021-02-11T09:36:18Z</time>
      </trkpt>
      <trkpt lat="45.32484" lon="6.2329">
        <ele>1451</ele>
        <time>2021-02-11T09:36:21Z</time>
      </trkpt>
      <trkpt lat="45.32484" lon="6.23286">
        <ele>1451</ele>
        <time>2021-02-11T09:36:24Z</time>
      </trkpt>
      <trkpt lat="45.32485" lon="6.23284">
        <ele>1451</ele>
        <time>2021-02-11T09:36:27Z</time>
      </trkpt>
      <trkpt lat="45.32489" lon="6.23275">
        <ele>1452</ele>
        <time>2021-02-11T09:36:36Z</time>
      </trkpt>
      <trkpt lat="45.32489" lon="6.23272">
        <ele>1452</ele>
        <time>2021-02-11T09:36:39Z</time>
      </trkpt>
      <trkpt lat="45.32489" lon="6.2327">
        <ele>1452</ele>
        <time>2021-02-11T09:36:42Z</time>
      </trkpt>
      <trkpt lat="45.32491" lon="6.23269">
        <ele>1452</ele>
        <time>2021-02-11T09:36:47Z</time>
      </trkpt>
      <trkpt lat="45.32491" lon="6.23271">
        <ele>1453</ele>
        <time>2021-02-11T09:37:16Z</time>
      </trkpt>
      <trkpt lat="45.32491" lon="6.23274">
        <ele>1453</ele>
        <time>2021-02-11T09:37:24Z</time>
      </trkpt>
      <trkpt lat="45.32489" lon="6.23271">
        <ele>1453</ele>
        <time>2021-02-11T09:37:28Z</time>
      </trkpt>
      <trkpt lat="45.32489" lon="6.23267">
        <ele>1452</ele>
        <time>2021-02-11T09:37:32Z</time>
      </trkpt>
      <trkpt lat="45.32486" lon="6.23266">
        <ele>1450</ele>
        <time>2021-02-11T09:37:38Z</time>
      </trkpt>
      <trkpt lat="45.32474" lon="6.23269">
        <ele>1458</ele>
        <time>2021-02-11T09:37:53Z</time>
      </trkpt>
      <trkpt lat="45.32474" lon="6.23262">
        <ele>1464</ele>
        <time>2021-02-11T09:38:14Z</time>
      </trkpt>
      <trkpt lat="45.32475" lon="6.23259">
        <ele>1465</ele>
        <time>2021-02-11T09:38:24Z</time>
      </trkpt>
      <trkpt lat="45.32476" lon="6.23257">
        <ele>1465</ele>
        <time>2021-02-11T09:38:35Z</time>
      </trkpt>
      <trkpt lat="45.32479" lon="6.23254">
        <ele>1466</ele>
        <time>2021-02-11T09:38:49Z</time>
      </trkpt>
      <trkpt lat="45.32479" lon="6.23257">
        <ele>1467</ele>
        <time>2021-02-11T09:38:52Z</time>
      </trkpt>
      <trkpt lat="45.32478" lon="6.23257">
        <ele>1467</ele>
        <time>2021-02-11T09:39:11Z</time>
      </trkpt>
      <trkpt lat="45.32477" lon="6.23253">
        <ele>1467</ele>
        <time>2021-02-11T09:39:15Z</time>
      </trkpt>
      <trkpt lat="45.32478" lon="6.2325">
        <ele>1467</ele>
        <time>2021-02-11T09:39:18Z</time>
      </trkpt>
      <trkpt lat="45.32481" lon="6.23237">
        <ele>1469</ele>
        <time>2021-02-11T09:39:25Z</time>
      </trkpt>
      <trkpt lat="45.32481" lon="6.23234">
        <ele>1469</ele>
        <time>2021-02-11T09:39:28Z</time>
      </trkpt>
      <trkpt lat="45.32481" lon="6.2323">
        <ele>1470</ele>
        <time>2021-02-11T09:39:32Z</time>
      </trkpt>
      <trkpt lat="45.32484" lon="6.23232">
        <ele>1470</ele>
        <time>2021-02-11T09:39:41Z</time>
      </trkpt>
      <trkpt lat="45.32487" lon="6.23232">
        <ele>1471</ele>
        <time>2021-02-11T09:39:43Z</time>
      </trkpt>
      <trkpt lat="45.32488" lon="6.23229">
        <ele>1471</ele>
        <time>2021-02-11T09:39:46Z</time>
      </trkpt>
      <trkpt lat="45.3249" lon="6.23226">
        <ele>1471</ele>
        <time>2021-02-11T09:39:49Z</time>
      </trkpt>
      <trkpt lat="45.32492" lon="6.2322">
        <ele>1471</ele>
        <time>2021-02-11T09:39:53Z</time>
      </trkpt>
      <trkpt lat="45.32499" lon="6.23215">
        <ele>1474</ele>
        <time>2021-02-11T09:40:02Z</time>
      </trkpt>
      <trkpt lat="45.325" lon="6.23212">
        <ele>1474</ele>
        <time>2021-02-11T09:40:05Z</time>
      </trkpt>
      <trkpt lat="45.32501" lon="6.23209">
        <ele>1475</ele>
        <time>2021-02-11T09:40:08Z</time>
      </trkpt>
      <trkpt lat="45.32502" lon="6.23205">
        <ele>1475</ele>
        <time>2021-02-11T09:40:11Z</time>
      </trkpt>
      <trkpt lat="45.32511" lon="6.23199">
        <ele>1477</ele>
        <time>2021-02-11T09:40:23Z</time>
      </trkpt>
      <trkpt lat="45.32512" lon="6.23195">
        <ele>1477</ele>
        <time>2021-02-11T09:40:26Z</time>
      </trkpt>
      <trkpt lat="45.32512" lon="6.23192">
        <ele>1476</ele>
        <time>2021-02-11T09:40:30Z</time>
      </trkpt>
      <trkpt lat="45.32513" lon="6.23194">
        <ele>1476</ele>
        <time>2021-02-11T09:40:33Z</time>
      </trkpt>
      <trkpt lat="45.32512" lon="6.23195">
        <ele>1477</ele>
        <time>2021-02-11T09:40:44Z</time>
      </trkpt>
      <trkpt lat="45.3251" lon="6.23194">
        <ele>1477</ele>
        <time>2021-02-11T09:40:49Z</time>
      </trkpt>
      <trkpt lat="45.3251" lon="6.23197">
        <ele>1477</ele>
        <time>2021-02-11T09:41:30Z</time>
      </trkpt>
      <trkpt lat="45.32509" lon="6.23197">
        <ele>1477</ele>
        <time>2021-02-11T09:41:36Z</time>
      </trkpt>
      <trkpt lat="45.3251" lon="6.23199">
        <ele>1475</ele>
        <time>2021-02-11T09:42:10Z</time>
      </trkpt>
      <trkpt lat="45.32512" lon="6.23198">
        <ele>1476</ele>
        <time>2021-02-11T09:42:14Z</time>
      </trkpt>
      <trkpt lat="45.32513" lon="6.23202">
        <ele>1476</ele>
        <time>2021-02-11T09:42:24Z</time>
      </trkpt>
      <trkpt lat="45.32515" lon="6.23204">
        <ele>1475</ele>
        <time>2021-02-11T09:42:25Z</time>
      </trkpt>
      <trkpt lat="45.32505" lon="6.23208">
        <ele>1475</ele>
        <time>2021-02-11T09:42:27Z</time>
      </trkpt>
      <trkpt lat="45.325" lon="6.23206">
        <ele>1475</ele>
        <time>2021-02-11T09:42:28Z</time>
      </trkpt>
      <trkpt lat="45.32494" lon="6.23201">
        <ele>1475</ele>
        <time>2021-02-11T09:42:29Z</time>
      </trkpt>
      <trkpt lat="45.32489" lon="6.23193">
        <ele>1475</ele>
        <time>2021-02-11T09:42:30Z</time>
      </trkpt>
      <trkpt lat="45.32497" lon="6.23192">
        <ele>1474</ele>
        <time>2021-02-11T09:42:32Z</time>
      </trkpt>
      <trkpt lat="45.32502" lon="6.23191">
        <ele>1474</ele>
        <time>2021-02-11T09:42:35Z</time>
      </trkpt>
      <trkpt lat="45.32503" lon="6.23194">
        <ele>1473</ele>
        <time>2021-02-11T09:42:37Z</time>
      </trkpt>
      <trkpt lat="45.32503" lon="6.23198">
        <ele>1473</ele>
        <time>2021-02-11T09:42:39Z</time>
      </trkpt>
      <trkpt lat="45.32501" lon="6.23199">
        <ele>1471</ele>
        <time>2021-02-11T09:42:44Z</time>
      </trkpt>
      <trkpt lat="45.32496" lon="6.23205">
        <ele>1470</ele>
        <time>2021-02-11T09:42:51Z</time>
      </trkpt>
      <trkpt lat="45.32491" lon="6.23211">
        <ele>1471</ele>
        <time>2021-02-11T09:42:58Z</time>
      </trkpt>
      <trkpt lat="45.32487" lon="6.23213">
        <ele>1472</ele>
        <time>2021-02-11T09:43:00Z</time>
      </trkpt>
      <trkpt lat="45.32485" lon="6.23213">
        <ele>1474</ele>
        <time>2021-02-11T09:43:03Z</time>
      </trkpt>
      <trkpt lat="45.32483" lon="6.23211">
        <ele>1475</ele>
        <time>2021-02-11T09:43:06Z</time>
      </trkpt>
      <trkpt lat="45.32481" lon="6.23209">
        <ele>1475</ele>
        <time>2021-02-11T09:43:09Z</time>
      </trkpt>
      <trkpt lat="45.32482" lon="6.23205">
        <ele>1477</ele>
        <time>2021-02-11T09:43:12Z</time>
      </trkpt>
      <trkpt lat="45.32482" lon="6.23201">
        <ele>1478</ele>
        <time>2021-02-11T09:43:15Z</time>
      </trkpt>
      <trkpt lat="45.32484" lon="6.23198">
        <ele>1480</ele>
        <time>2021-02-11T09:43:18Z</time>
      </trkpt>
      <trkpt lat="45.32484" lon="6.23196">
        <ele>1481</ele>
        <time>2021-02-11T09:43:20Z</time>
      </trkpt>
      <trkpt lat="45.32483" lon="6.23189">
        <ele>1483</ele>
        <time>2021-02-11T09:43:30Z</time>
      </trkpt>
      <trkpt lat="45.32482" lon="6.23185">
        <ele>1483</ele>
        <time>2021-02-11T09:43:34Z</time>
      </trkpt>
      <trkpt lat="45.32482" lon="6.23182">
        <ele>1483</ele>
        <time>2021-02-11T09:43:37Z</time>
      </trkpt>
      <trkpt lat="45.32483" lon="6.23179">
        <ele>1484</ele>
        <time>2021-02-11T09:43:39Z</time>
      </trkpt>
      <trkpt lat="45.32481" lon="6.23178">
        <ele>1484</ele>
        <time>2021-02-11T09:43:45Z</time>
      </trkpt>
      <trkpt lat="45.3248" lon="6.23175">
        <ele>1485</ele>
        <time>2021-02-11T09:43:49Z</time>
      </trkpt>
      <trkpt lat="45.32479" lon="6.23172">
        <ele>1485</ele>
        <time>2021-02-11T09:43:53Z</time>
      </trkpt>
      <trkpt lat="45.32479" lon="6.23168">
        <ele>1486</ele>
        <time>2021-02-11T09:44:05Z</time>
      </trkpt>
      <trkpt lat="45.32475" lon="6.23163">
        <ele>1486</ele>
        <time>2021-02-11T09:44:13Z</time>
      </trkpt>
      <trkpt lat="45.32473" lon="6.23161">
        <ele>1485</ele>
        <time>2021-02-11T09:44:17Z</time>
      </trkpt>
      <trkpt lat="45.32473" lon="6.23158">
        <ele>1486</ele>
        <time>2021-02-11T09:44:21Z</time>
      </trkpt>
      <trkpt lat="45.32471" lon="6.23155">
        <ele>1486</ele>
        <time>2021-02-11T09:44:25Z</time>
      </trkpt>
      <trkpt lat="45.32469" lon="6.23153">
        <ele>1486</ele>
        <time>2021-02-11T09:44:29Z</time>
      </trkpt>
      <trkpt lat="45.32466" lon="6.23153">
        <ele>1486</ele>
        <time>2021-02-11T09:44:33Z</time>
      </trkpt>
      <trkpt lat="45.32466" lon="6.2315">
        <ele>1486</ele>
        <time>2021-02-11T09:44:37Z</time>
      </trkpt>
      <trkpt lat="45.32464" lon="6.23148">
        <ele>1486</ele>
        <time>2021-02-11T09:44:40Z</time>
      </trkpt>
      <trkpt lat="45.32461" lon="6.23141">
        <ele>1487</ele>
        <time>2021-02-11T09:44:53Z</time>
      </trkpt>
      <trkpt lat="45.32456" lon="6.23136">
        <ele>1488</ele>
        <time>2021-02-11T09:45:09Z</time>
      </trkpt>
      <trkpt lat="45.32455" lon="6.23133">
        <ele>1488</ele>
        <time>2021-02-11T09:45:18Z</time>
      </trkpt>
      <trkpt lat="45.32455" lon="6.23128">
        <ele>1486</ele>
        <time>2021-02-11T09:45:28Z</time>
      </trkpt>
      <trkpt lat="45.32458" lon="6.23125">
        <ele>1486</ele>
        <time>2021-02-11T09:45:36Z</time>
      </trkpt>
      <trkpt lat="45.32458" lon="6.2312">
        <ele>1487</ele>
        <time>2021-02-11T09:45:38Z</time>
      </trkpt>
      <trkpt lat="45.32456" lon="6.23116">
        <ele>1489</ele>
        <time>2021-02-11T09:45:41Z</time>
      </trkpt>
      <trkpt lat="45.32454" lon="6.23111">
        <ele>1490</ele>
        <time>2021-02-11T09:45:43Z</time>
      </trkpt>
      <trkpt lat="45.32454" lon="6.23106">
        <ele>1493</ele>
        <time>2021-02-11T09:45:50Z</time>
      </trkpt>
      <trkpt lat="45.32457" lon="6.23104">
        <ele>1495</ele>
        <time>2021-02-11T09:45:54Z</time>
      </trkpt>
      <trkpt lat="45.3246" lon="6.23105">
        <ele>1496</ele>
        <time>2021-02-11T09:45:57Z</time>
      </trkpt>
      <trkpt lat="45.32458" lon="6.231">
        <ele>1496</ele>
        <time>2021-02-11T09:46:05Z</time>
      </trkpt>
      <trkpt lat="45.32456" lon="6.23098">
        <ele>1498</ele>
        <time>2021-02-11T09:46:09Z</time>
      </trkpt>
      <trkpt lat="45.32455" lon="6.23093">
        <ele>1501</ele>
        <time>2021-02-11T09:46:18Z</time>
      </trkpt>
      <trkpt lat="45.32455" lon="6.23091">
        <ele>1502</ele>
        <time>2021-02-11T09:46:21Z</time>
      </trkpt>
      <trkpt lat="45.32454" lon="6.23089">
        <ele>1502</ele>
        <time>2021-02-11T09:46:24Z</time>
      </trkpt>
      <trkpt lat="45.32449" lon="6.23089">
        <ele>1502</ele>
        <time>2021-02-11T09:46:28Z</time>
      </trkpt>
      <trkpt lat="45.32447" lon="6.23086">
        <ele>1500</ele>
        <time>2021-02-11T09:46:34Z</time>
      </trkpt>
      <trkpt lat="45.32443" lon="6.23083">
        <ele>1500</ele>
        <time>2021-02-11T09:46:43Z</time>
      </trkpt>
      <trkpt lat="45.32428" lon="6.23076">
        <ele>1507</ele>
        <time>2021-02-11T09:46:53Z</time>
      </trkpt>
      <trkpt lat="45.32424" lon="6.23071">
        <ele>1509</ele>
        <time>2021-02-11T09:46:59Z</time>
      </trkpt>
      <trkpt lat="45.32425" lon="6.23066">
        <ele>1515</ele>
        <time>2021-02-11T09:47:13Z</time>
      </trkpt>
      <trkpt lat="45.32431" lon="6.2306">
        <ele>1517</ele>
        <time>2021-02-11T09:47:20Z</time>
      </trkpt>
      <trkpt lat="45.32433" lon="6.23054">
        <ele>1517</ele>
        <time>2021-02-11T09:47:34Z</time>
      </trkpt>
      <trkpt lat="45.32436" lon="6.23055">
        <ele>1516</ele>
        <time>2021-02-11T09:47:38Z</time>
      </trkpt>
      <trkpt lat="45.3244" lon="6.23049">
        <ele>1516</ele>
        <time>2021-02-11T09:47:45Z</time>
      </trkpt>
      <trkpt lat="45.32444" lon="6.2306">
        <ele>1515</ele>
        <time>2021-02-11T09:47:53Z</time>
      </trkpt>
      <trkpt lat="45.32443" lon="6.23055">
        <ele>1510</ele>
        <time>2021-02-11T09:48:08Z</time>
      </trkpt>
      <trkpt lat="45.32446" lon="6.2305">
        <ele>1512</ele>
        <time>2021-02-11T09:48:09Z</time>
      </trkpt>
      <trkpt lat="45.32437" lon="6.23037">
        <ele>1513</ele>
        <time>2021-02-11T09:48:22Z</time>
      </trkpt>
      <trkpt lat="45.32436" lon="6.23032">
        <ele>1513</ele>
        <time>2021-02-11T09:48:33Z</time>
      </trkpt>
      <trkpt lat="45.32433" lon="6.23031">
        <ele>1513</ele>
        <time>2021-02-11T09:48:36Z</time>
      </trkpt>
      <trkpt lat="45.3243" lon="6.23028">
        <ele>1513</ele>
        <time>2021-02-11T09:48:39Z</time>
      </trkpt>
      <trkpt lat="45.32427" lon="6.23026">
        <ele>1511</ele>
        <time>2021-02-11T09:48:47Z</time>
      </trkpt>
      <trkpt lat="45.32424" lon="6.23025">
        <ele>1509</ele>
        <time>2021-02-11T09:48:52Z</time>
      </trkpt>
      <trkpt lat="45.32421" lon="6.23026">
        <ele>1504</ele>
        <time>2021-02-11T09:49:00Z</time>
      </trkpt>
      <trkpt lat="45.32419" lon="6.23023">
        <ele>1502</ele>
        <time>2021-02-11T09:49:08Z</time>
      </trkpt>
      <trkpt lat="45.32414" lon="6.23021">
        <ele>1501</ele>
        <time>2021-02-11T09:49:10Z</time>
      </trkpt>
      <trkpt lat="45.32416" lon="6.23017">
        <ele>1500</ele>
        <time>2021-02-11T09:49:15Z</time>
      </trkpt>
      <trkpt lat="45.32416" lon="6.23012">
        <ele>1500</ele>
        <time>2021-02-11T09:49:21Z</time>
      </trkpt>
      <trkpt lat="45.32418" lon="6.23008">
        <ele>1500</ele>
        <time>2021-02-11T09:49:24Z</time>
      </trkpt>
      <trkpt lat="45.32415" lon="6.23008">
        <ele>1500</ele>
        <time>2021-02-11T09:49:29Z</time>
      </trkpt>
      <trkpt lat="45.32414" lon="6.23004">
        <ele>1502</ele>
        <time>2021-02-11T09:49:34Z</time>
      </trkpt>
      <trkpt lat="45.32413" lon="6.23001">
        <ele>1502</ele>
        <time>2021-02-11T09:49:40Z</time>
      </trkpt>
      <trkpt lat="45.32413" lon="6.22997">
        <ele>1504</ele>
        <time>2021-02-11T09:49:44Z</time>
      </trkpt>
      <trkpt lat="45.32412" lon="6.2299">
        <ele>1511</ele>
        <time>2021-02-11T09:49:57Z</time>
      </trkpt>
      <trkpt lat="45.3241" lon="6.22987">
        <ele>1512</ele>
        <time>2021-02-11T09:50:00Z</time>
      </trkpt>
      <trkpt lat="45.32412" lon="6.22984">
        <ele>1515</ele>
        <time>2021-02-11T09:50:04Z</time>
      </trkpt>
      <trkpt lat="45.32413" lon="6.2298">
        <ele>1517</ele>
        <time>2021-02-11T09:50:09Z</time>
      </trkpt>
      <trkpt lat="45.3241" lon="6.22979">
        <ele>1517</ele>
        <time>2021-02-11T09:50:12Z</time>
      </trkpt>
      <trkpt lat="45.32408" lon="6.22977">
        <ele>1520</ele>
        <time>2021-02-11T09:50:14Z</time>
      </trkpt>
      <trkpt lat="45.32406" lon="6.22976">
        <ele>1522</ele>
        <time>2021-02-11T09:50:20Z</time>
      </trkpt>
      <trkpt lat="45.32405" lon="6.2297">
        <ele>1526</ele>
        <time>2021-02-11T09:50:30Z</time>
      </trkpt>
      <trkpt lat="45.32403" lon="6.22967">
        <ele>1528</ele>
        <time>2021-02-11T09:50:33Z</time>
      </trkpt>
      <trkpt lat="45.32402" lon="6.22965">
        <ele>1529</ele>
        <time>2021-02-11T09:50:36Z</time>
      </trkpt>
      <trkpt lat="45.32398" lon="6.22966">
        <ele>1536</ele>
        <time>2021-02-11T09:51:09Z</time>
      </trkpt>
      <trkpt lat="45.32395" lon="6.22971">
        <ele>1539</ele>
        <time>2021-02-11T09:51:18Z</time>
      </trkpt>
      <trkpt lat="45.32391" lon="6.22971">
        <ele>1539</ele>
        <time>2021-02-11T09:51:25Z</time>
      </trkpt>
      <trkpt lat="45.32389" lon="6.22973">
        <ele>1539</ele>
        <time>2021-02-11T09:51:27Z</time>
      </trkpt>
      <trkpt lat="45.3239" lon="6.22977">
        <ele>1540</ele>
        <time>2021-02-11T09:51:44Z</time>
      </trkpt>
      <trkpt lat="45.32389" lon="6.22981">
        <ele>1541</ele>
        <time>2021-02-11T09:51:48Z</time>
      </trkpt>
      <trkpt lat="45.32391" lon="6.22983">
        <ele>1541</ele>
        <time>2021-02-11T09:51:54Z</time>
      </trkpt>
      <trkpt lat="45.32388" lon="6.2299">
        <ele>1543</ele>
        <time>2021-02-11T09:52:01Z</time>
      </trkpt>
      <trkpt lat="45.32385" lon="6.22997">
        <ele>1546</ele>
        <time>2021-02-11T09:52:22Z</time>
      </trkpt>
      <trkpt lat="45.32384" lon="6.23001">
        <ele>1548</ele>
        <time>2021-02-11T09:52:31Z</time>
      </trkpt>
      <trkpt lat="45.32385" lon="6.23004">
        <ele>1550</ele>
        <time>2021-02-11T09:52:37Z</time>
      </trkpt>
      <trkpt lat="45.32384" lon="6.23007">
        <ele>1551</ele>
        <time>2021-02-11T09:52:46Z</time>
      </trkpt>
      <trkpt lat="45.32385" lon="6.23001">
        <ele>1553</ele>
        <time>2021-02-11T09:53:16Z</time>
      </trkpt>
      <trkpt lat="45.32381" lon="6.22994">
        <ele>1553</ele>
        <time>2021-02-11T09:53:34Z</time>
      </trkpt>
      <trkpt lat="45.32382" lon="6.2299">
        <ele>1553</ele>
        <time>2021-02-11T09:53:40Z</time>
      </trkpt>
      <trkpt lat="45.32382" lon="6.22987">
        <ele>1554</ele>
        <time>2021-02-11T09:53:46Z</time>
      </trkpt>
      <trkpt lat="45.32387" lon="6.22985">
        <ele>1554</ele>
        <time>2021-02-11T09:53:48Z</time>
      </trkpt>
      <trkpt lat="45.32389" lon="6.22982">
        <ele>1554</ele>
        <time>2021-02-11T09:53:51Z</time>
      </trkpt>
      <trkpt lat="45.32389" lon="6.22978">
        <ele>1554</ele>
        <time>2021-02-11T09:53:54Z</time>
      </trkpt>
      <trkpt lat="45.32387" lon="6.22975">
        <ele>1554</ele>
        <time>2021-02-11T09:53:57Z</time>
      </trkpt>
      <trkpt lat="45.32383" lon="6.22973">
        <ele>1554</ele>
        <time>2021-02-11T09:54:00Z</time>
      </trkpt>
      <trkpt lat="45.32381" lon="6.22972">
        <ele>1555</ele>
        <time>2021-02-11T09:54:02Z</time>
      </trkpt>
      <trkpt lat="45.32381" lon="6.22961">
        <ele>1555</ele>
        <time>2021-02-11T09:54:10Z</time>
      </trkpt>
      <trkpt lat="45.32383" lon="6.22958">
        <ele>1555</ele>
        <time>2021-02-11T09:54:14Z</time>
      </trkpt>
      <trkpt lat="45.32383" lon="6.22955">
        <ele>1555</ele>
        <time>2021-02-11T09:54:18Z</time>
      </trkpt>
      <trkpt lat="45.32385" lon="6.22951">
        <ele>1556</ele>
        <time>2021-02-11T09:54:21Z</time>
      </trkpt>
      <trkpt lat="45.32384" lon="6.22948">
        <ele>1556</ele>
        <time>2021-02-11T09:54:30Z</time>
      </trkpt>
      <trkpt lat="45.32383" lon="6.22948">
        <ele>1557</ele>
        <time>2021-02-11T09:54:48Z</time>
      </trkpt>
      <trkpt lat="45.32382" lon="6.22947">
        <ele>1559</ele>
        <time>2021-02-11T09:54:57Z</time>
      </trkpt>
      <trkpt lat="45.32382" lon="6.22942">
        <ele>1557</ele>
        <time>2021-02-11T09:55:25Z</time>
      </trkpt>
      <trkpt lat="45.3238" lon="6.22948">
        <ele>1556</ele>
        <time>2021-02-11T09:56:00Z</time>
      </trkpt>
      <trkpt lat="45.32383" lon="6.22954">
        <ele>1559</ele>
        <time>2021-02-11T09:56:07Z</time>
      </trkpt>
      <trkpt lat="45.32383" lon="6.22951">
        <ele>1559</ele>
        <time>2021-02-11T09:56:15Z</time>
      </trkpt>
      <trkpt lat="45.32386" lon="6.22948">
        <ele>1560</ele>
        <time>2021-02-11T09:56:28Z</time>
      </trkpt>
      <trkpt lat="45.32381" lon="6.22943">
        <ele>1561</ele>
        <time>2021-02-11T09:57:03Z</time>
      </trkpt>
      <trkpt lat="45.32377" lon="6.22935">
        <ele>1561</ele>
        <time>2021-02-11T09:57:23Z</time>
      </trkpt>
      <trkpt lat="45.32378" lon="6.22903">
        <ele>1564</ele>
        <time>2021-02-11T09:57:59Z</time>
      </trkpt>
      <trkpt lat="45.32377" lon="6.22898">
        <ele>1563</ele>
        <time>2021-02-11T09:58:05Z</time>
      </trkpt>
      <trkpt lat="45.32378" lon="6.22893">
        <ele>1563</ele>
        <time>2021-02-11T09:58:10Z</time>
      </trkpt>
      <trkpt lat="45.32379" lon="6.22889">
        <ele>1562</ele>
        <time>2021-02-11T09:58:24Z</time>
      </trkpt>
      <trkpt lat="45.32376" lon="6.22886">
        <ele>1562</ele>
        <time>2021-02-11T09:58:45Z</time>
      </trkpt>
      <trkpt lat="45.32376" lon="6.22881">
        <ele>1561</ele>
        <time>2021-02-11T09:58:51Z</time>
      </trkpt>
      <trkpt lat="45.32376" lon="6.22877">
        <ele>1561</ele>
        <time>2021-02-11T09:58:58Z</time>
      </trkpt>
      <trkpt lat="45.32377" lon="6.22871">
        <ele>1561</ele>
        <time>2021-02-11T09:59:04Z</time>
      </trkpt>
      <trkpt lat="45.32376" lon="6.22867">
        <ele>1561</ele>
        <time>2021-02-11T09:59:08Z</time>
      </trkpt>
      <trkpt lat="45.3237" lon="6.22848">
        <ele>1561</ele>
        <time>2021-02-11T09:59:26Z</time>
      </trkpt>
      <trkpt lat="45.32366" lon="6.22845">
        <ele>1561</ele>
        <time>2021-02-11T09:59:28Z</time>
      </trkpt>
      <trkpt lat="45.32362" lon="6.22837">
        <ele>1563</ele>
        <time>2021-02-11T09:59:35Z</time>
      </trkpt>
      <trkpt lat="45.32361" lon="6.22828">
        <ele>1569</ele>
        <time>2021-02-11T09:59:41Z</time>
      </trkpt>
      <trkpt lat="45.32362" lon="6.22824">
        <ele>1570</ele>
        <time>2021-02-11T09:59:46Z</time>
      </trkpt>
      <trkpt lat="45.32364" lon="6.2282">
        <ele>1571</ele>
        <time>2021-02-11T09:59:55Z</time>
      </trkpt>
      <trkpt lat="45.32361" lon="6.22816">
        <ele>1570</ele>
        <time>2021-02-11T10:00:00Z</time>
      </trkpt>
      <trkpt lat="45.3236" lon="6.22812">
        <ele>1570</ele>
        <time>2021-02-11T10:00:04Z</time>
      </trkpt>
      <trkpt lat="45.32359" lon="6.22808">
        <ele>1570</ele>
        <time>2021-02-11T10:00:11Z</time>
      </trkpt>
      <trkpt lat="45.32358" lon="6.22798">
        <ele>1570</ele>
        <time>2021-02-11T10:00:30Z</time>
      </trkpt>
      <trkpt lat="45.32359" lon="6.22792">
        <ele>1570</ele>
        <time>2021-02-11T10:00:33Z</time>
      </trkpt>
      <trkpt lat="45.32356" lon="6.22778">
        <ele>1573</ele>
        <time>2021-02-11T10:00:45Z</time>
      </trkpt>
      <trkpt lat="45.32354" lon="6.22774">
        <ele>1573</ele>
        <time>2021-02-11T10:00:49Z</time>
      </trkpt>
      <trkpt lat="45.32354" lon="6.22764">
        <ele>1576</ele>
        <time>2021-02-11T10:00:58Z</time>
      </trkpt>
      <trkpt lat="45.32347" lon="6.2274">
        <ele>1582</ele>
        <time>2021-02-11T10:01:22Z</time>
      </trkpt>
      <trkpt lat="45.3235" lon="6.22737">
        <ele>1583</ele>
        <time>2021-02-11T10:01:29Z</time>
      </trkpt>
      <trkpt lat="45.32347" lon="6.22721">
        <ele>1584</ele>
        <time>2021-02-11T10:01:51Z</time>
      </trkpt>
      <trkpt lat="45.32344" lon="6.22716">
        <ele>1586</ele>
        <time>2021-02-11T10:01:55Z</time>
      </trkpt>
      <trkpt lat="45.32341" lon="6.22695">
        <ele>1592</ele>
        <time>2021-02-11T10:02:11Z</time>
      </trkpt>
      <trkpt lat="45.32341" lon="6.2269">
        <ele>1592</ele>
        <time>2021-02-11T10:02:18Z</time>
      </trkpt>
      <trkpt lat="45.32346" lon="6.22682">
        <ele>1592</ele>
        <time>2021-02-11T10:02:27Z</time>
      </trkpt>
      <trkpt lat="45.32347" lon="6.2268">
        <ele>1594</ele>
        <time>2021-02-11T10:02:41Z</time>
      </trkpt>
      <trkpt lat="45.32351" lon="6.22679">
        <ele>1594</ele>
        <time>2021-02-11T10:02:52Z</time>
      </trkpt>
      <trkpt lat="45.32353" lon="6.22664">
        <ele>1594</ele>
        <time>2021-02-11T10:03:03Z</time>
      </trkpt>
      <trkpt lat="45.32359" lon="6.22657">
        <ele>1594</ele>
        <time>2021-02-11T10:03:08Z</time>
      </trkpt>
      <trkpt lat="45.32361" lon="6.22646">
        <ele>1595</ele>
        <time>2021-02-11T10:03:17Z</time>
      </trkpt>
      <trkpt lat="45.32367" lon="6.22637">
        <ele>1595</ele>
        <time>2021-02-11T10:03:30Z</time>
      </trkpt>
      <trkpt lat="45.32365" lon="6.22634">
        <ele>1595</ele>
        <time>2021-02-11T10:03:34Z</time>
      </trkpt>
      <trkpt lat="45.3238" lon="6.22622">
        <ele>1591</ele>
        <time>2021-02-11T10:03:47Z</time>
      </trkpt>
      <trkpt lat="45.32383" lon="6.2262">
        <ele>1591</ele>
        <time>2021-02-11T10:03:50Z</time>
      </trkpt>
      <trkpt lat="45.32386" lon="6.22614">
        <ele>1587</ele>
        <time>2021-02-11T10:03:57Z</time>
      </trkpt>
      <trkpt lat="45.32399" lon="6.22609">
        <ele>1588</ele>
        <time>2021-02-11T10:04:06Z</time>
      </trkpt>
      <trkpt lat="45.32401" lon="6.22605">
        <ele>1588</ele>
        <time>2021-02-11T10:04:14Z</time>
      </trkpt>
      <trkpt lat="45.32404" lon="6.22596">
        <ele>1589</ele>
        <time>2021-02-11T10:04:21Z</time>
      </trkpt>
      <trkpt lat="45.32406" lon="6.22593">
        <ele>1590</ele>
        <time>2021-02-11T10:04:25Z</time>
      </trkpt>
      <trkpt lat="45.3241" lon="6.22586">
        <ele>1591</ele>
        <time>2021-02-11T10:04:36Z</time>
      </trkpt>
      <trkpt lat="45.32413" lon="6.22584">
        <ele>1591</ele>
        <time>2021-02-11T10:04:44Z</time>
      </trkpt>
      <trkpt lat="45.32415" lon="6.22581">
        <ele>1591</ele>
        <time>2021-02-11T10:04:46Z</time>
      </trkpt>
      <trkpt lat="45.32417" lon="6.22576">
        <ele>1593</ele>
        <time>2021-02-11T10:04:48Z</time>
      </trkpt>
      <trkpt lat="45.32416" lon="6.22569">
        <ele>1596</ele>
        <time>2021-02-11T10:04:54Z</time>
      </trkpt>
      <trkpt lat="45.32417" lon="6.22566">
        <ele>1597</ele>
        <time>2021-02-11T10:04:57Z</time>
      </trkpt>
      <trkpt lat="45.3242" lon="6.22564">
        <ele>1599</ele>
        <time>2021-02-11T10:05:04Z</time>
      </trkpt>
      <trkpt lat="45.32422" lon="6.22562">
        <ele>1604</ele>
        <time>2021-02-11T10:05:16Z</time>
      </trkpt>
      <trkpt lat="45.32427" lon="6.22566">
        <ele>1605</ele>
        <time>2021-02-11T10:05:18Z</time>
      </trkpt>
      <trkpt lat="45.32425" lon="6.22567">
        <ele>1607</ele>
        <time>2021-02-11T10:05:23Z</time>
      </trkpt>
      <trkpt lat="45.32424" lon="6.22569">
        <ele>1609</ele>
        <time>2021-02-11T10:05:24Z</time>
      </trkpt>
      <trkpt lat="45.32439" lon="6.22578">
        <ele>1610</ele>
        <time>2021-02-11T10:05:28Z</time>
      </trkpt>
      <trkpt lat="45.32435" lon="6.22584">
        <ele>1610</ele>
        <time>2021-02-11T10:05:31Z</time>
      </trkpt>
      <trkpt lat="45.32434" lon="6.22594">
        <ele>1610</ele>
        <time>2021-02-11T10:05:34Z</time>
      </trkpt>
      <trkpt lat="45.32425" lon="6.22565">
        <ele>1610</ele>
        <time>2021-02-11T10:05:38Z</time>
      </trkpt>
      <trkpt lat="45.32418" lon="6.22559">
        <ele>1609</ele>
        <time>2021-02-11T10:05:42Z</time>
      </trkpt>
      <trkpt lat="45.32418" lon="6.22553">
        <ele>1609</ele>
        <time>2021-02-11T10:05:46Z</time>
      </trkpt>
      <trkpt lat="45.3242" lon="6.22549">
        <ele>1609</ele>
        <time>2021-02-11T10:05:49Z</time>
      </trkpt>
      <trkpt lat="45.32411" lon="6.22552">
        <ele>1610</ele>
        <time>2021-02-11T10:06:27Z</time>
      </trkpt>
      <trkpt lat="45.32406" lon="6.22522">
        <ele>1611</ele>
        <time>2021-02-11T10:07:45Z</time>
      </trkpt>
      <trkpt lat="45.32408" lon="6.22519">
        <ele>1612</ele>
        <time>2021-02-11T10:07:49Z</time>
      </trkpt>
      <trkpt lat="45.324" lon="6.22521">
        <ele>1617</ele>
        <time>2021-02-11T10:10:46Z</time>
      </trkpt>
      <trkpt lat="45.32384" lon="6.22526">
        <ele>1624</ele>
        <time>2021-02-11T10:11:04Z</time>
      </trkpt>
      <trkpt lat="45.32381" lon="6.22513">
        <ele>1625</ele>
        <time>2021-02-11T10:11:20Z</time>
      </trkpt>
      <trkpt lat="45.32392" lon="6.22497">
        <ele>1632</ele>
        <time>2021-02-11T10:11:47Z</time>
      </trkpt>
      <trkpt lat="45.32402" lon="6.2246">
        <ele>1633</ele>
        <time>2021-02-11T10:12:25Z</time>
      </trkpt>
      <trkpt lat="45.3241" lon="6.22446">
        <ele>1633</ele>
        <time>2021-02-11T10:12:43Z</time>
      </trkpt>
      <trkpt lat="45.32415" lon="6.22435">
        <ele>1642</ele>
        <time>2021-02-11T10:13:32Z</time>
      </trkpt>
      <trkpt lat="45.32418" lon="6.22425">
        <ele>1641</ele>
        <time>2021-02-11T10:13:40Z</time>
      </trkpt>
      <trkpt lat="45.32437" lon="6.22413">
        <ele>1649</ele>
        <time>2021-02-11T10:14:14Z</time>
      </trkpt>
      <trkpt lat="45.32443" lon="6.22413">
        <ele>1649</ele>
        <time>2021-02-11T10:14:17Z</time>
      </trkpt>
      <trkpt lat="45.32449" lon="6.22401">
        <ele>1652</ele>
        <time>2021-02-11T10:14:32Z</time>
      </trkpt>
      <trkpt lat="45.32427" lon="6.22399">
        <ele>1655</ele>
        <time>2021-02-11T10:14:58Z</time>
      </trkpt>
      <trkpt lat="45.32416" lon="6.22402">
        <ele>1657</ele>
        <time>2021-02-11T10:15:12Z</time>
      </trkpt>
      <trkpt lat="45.32406" lon="6.22396">
        <ele>1655</ele>
        <time>2021-02-11T10:15:27Z</time>
      </trkpt>
      <trkpt lat="45.32404" lon="6.22392">
        <ele>1652</ele>
        <time>2021-02-11T10:15:30Z</time>
      </trkpt>
      <trkpt lat="45.3241" lon="6.22384">
        <ele>1650</ele>
        <time>2021-02-11T10:15:38Z</time>
      </trkpt>
      <trkpt lat="45.32438" lon="6.22365">
        <ele>1657</ele>
        <time>2021-02-11T10:16:10Z</time>
      </trkpt>
      <trkpt lat="45.32454" lon="6.22341">
        <ele>1664</ele>
        <time>2021-02-11T10:16:41Z</time>
      </trkpt>
      <trkpt lat="45.32462" lon="6.22333">
        <ele>1662</ele>
        <time>2021-02-11T10:16:51Z</time>
      </trkpt>
      <trkpt lat="45.32469" lon="6.22305">
        <ele>1662</ele>
        <time>2021-02-11T10:17:25Z</time>
      </trkpt>
      <trkpt lat="45.32474" lon="6.2229">
        <ele>1664</ele>
        <time>2021-02-11T10:17:43Z</time>
      </trkpt>
      <trkpt lat="45.32474" lon="6.22287">
        <ele>1665</ele>
        <time>2021-02-11T10:17:46Z</time>
      </trkpt>
      <trkpt lat="45.32477" lon="6.22271">
        <ele>1669</ele>
        <time>2021-02-11T10:18:00Z</time>
      </trkpt>
      <trkpt lat="45.32481" lon="6.22266">
        <ele>1672</ele>
        <time>2021-02-11T10:18:06Z</time>
      </trkpt>
      <trkpt lat="45.32487" lon="6.22231">
        <ele>1680</ele>
        <time>2021-02-11T10:18:36Z</time>
      </trkpt>
      <trkpt lat="45.32488" lon="6.22228">
        <ele>1681</ele>
        <time>2021-02-11T10:18:39Z</time>
      </trkpt>
      <trkpt lat="45.3249" lon="6.22191">
        <ele>1687</ele>
        <time>2021-02-11T10:19:11Z</time>
      </trkpt>
      <trkpt lat="45.32489" lon="6.22159">
        <ele>1692</ele>
        <time>2021-02-11T10:19:42Z</time>
      </trkpt>
      <trkpt lat="45.3249" lon="6.22156">
        <ele>1692</ele>
        <time>2021-02-11T10:19:45Z</time>
      </trkpt>
      <trkpt lat="45.32499" lon="6.22115">
        <ele>1697</ele>
        <time>2021-02-11T10:20:26Z</time>
      </trkpt>
      <trkpt lat="45.32504" lon="6.2208">
        <ele>1703</ele>
        <time>2021-02-11T10:20:57Z</time>
      </trkpt>
      <trkpt lat="45.32501" lon="6.22077">
        <ele>1705</ele>
        <time>2021-02-11T10:29:16Z</time>
      </trkpt>
      <trkpt lat="45.32499" lon="6.22076">
        <ele>1706</ele>
        <time>2021-02-11T10:29:17Z</time>
      </trkpt>
      <trkpt lat="45.32497" lon="6.22076">
        <ele>1706</ele>
        <time>2021-02-11T10:29:19Z</time>
      </trkpt>
      <trkpt lat="45.32506" lon="6.22079">
        <ele>1706</ele>
        <time>2021-02-11T10:30:22Z</time>
      </trkpt>
      <trkpt lat="45.32511" lon="6.22072">
        <ele>1706</ele>
        <time>2021-02-11T10:36:26Z</time>
      </trkpt>
      <trkpt lat="45.32512" lon="6.22069">
        <ele>1705</ele>
        <time>2021-02-11T10:36:28Z</time>
      </trkpt>
      <trkpt lat="45.3252" lon="6.22028">
        <ele>1702</ele>
        <time>2021-02-11T10:36:54Z</time>
      </trkpt>
      <trkpt lat="45.32521" lon="6.22025">
        <ele>1701</ele>
        <time>2021-02-11T10:36:56Z</time>
      </trkpt>
      <trkpt lat="45.32531" lon="6.21979">
        <ele>1704</ele>
        <time>2021-02-11T10:37:27Z</time>
      </trkpt>
      <trkpt lat="45.32534" lon="6.21974">
        <ele>1704</ele>
        <time>2021-02-11T10:37:31Z</time>
      </trkpt>
      <trkpt lat="45.32539" lon="6.21957">
        <ele>1706</ele>
        <time>2021-02-11T10:37:43Z</time>
      </trkpt>
      <trkpt lat="45.32541" lon="6.21954">
        <ele>1705</ele>
        <time>2021-02-11T10:37:45Z</time>
      </trkpt>
      <trkpt lat="45.32545" lon="6.21947">
        <ele>1705</ele>
        <time>2021-02-11T10:37:51Z</time>
      </trkpt>
      <trkpt lat="45.32544" lon="6.21945">
        <ele>1705</ele>
        <time>2021-02-11T10:37:53Z</time>
      </trkpt>
      <trkpt lat="45.32547" lon="6.21919">
        <ele>1705</ele>
        <time>2021-02-11T10:38:23Z</time>
      </trkpt>
      <trkpt lat="45.32544" lon="6.21911">
        <ele>1702</ele>
        <time>2021-02-11T10:38:55Z</time>
      </trkpt>
      <trkpt lat="45.32549" lon="6.21874">
        <ele>1702</ele>
        <time>2021-02-11T10:39:27Z</time>
      </trkpt>
      <trkpt lat="45.3255" lon="6.21871">
        <ele>1703</ele>
        <time>2021-02-11T10:39:29Z</time>
      </trkpt>
      <trkpt lat="45.3255" lon="6.21865">
        <ele>1705</ele>
        <time>2021-02-11T10:39:34Z</time>
      </trkpt>
      <trkpt lat="45.32548" lon="6.21848">
        <ele>1708</ele>
        <time>2021-02-11T10:39:51Z</time>
      </trkpt>
      <trkpt lat="45.32554" lon="6.21813">
        <ele>1714</ele>
        <time>2021-02-11T10:40:18Z</time>
      </trkpt>
      <trkpt lat="45.32558" lon="6.21781">
        <ele>1718</ele>
        <time>2021-02-11T10:40:48Z</time>
      </trkpt>
      <trkpt lat="45.32559" lon="6.21774">
        <ele>1719</ele>
        <time>2021-02-11T10:40:54Z</time>
      </trkpt>
      <trkpt lat="45.32562" lon="6.21769">
        <ele>1720</ele>
        <time>2021-02-11T10:40:58Z</time>
      </trkpt>
      <trkpt lat="45.32565" lon="6.21737">
        <ele>1726</ele>
        <time>2021-02-11T10:41:27Z</time>
      </trkpt>
      <trkpt lat="45.32569" lon="6.21697">
        <ele>1730</ele>
        <time>2021-02-11T10:41:57Z</time>
      </trkpt>
      <trkpt lat="45.32571" lon="6.21679">
        <ele>1730</ele>
        <time>2021-02-11T10:42:15Z</time>
      </trkpt>
      <trkpt lat="45.32577" lon="6.21666">
        <ele>1732</ele>
        <time>2021-02-11T10:42:29Z</time>
      </trkpt>
      <trkpt lat="45.32575" lon="6.21664">
        <ele>1733</ele>
        <time>2021-02-11T10:42:31Z</time>
      </trkpt>
      <trkpt lat="45.32576" lon="6.2165">
        <ele>1733</ele>
        <time>2021-02-11T10:43:04Z</time>
      </trkpt>
      <trkpt lat="45.32574" lon="6.21646">
        <ele>1733</ele>
        <time>2021-02-11T10:43:06Z</time>
      </trkpt>
      <trkpt lat="45.3258" lon="6.21631">
        <ele>1736</ele>
        <time>2021-02-11T10:43:36Z</time>
      </trkpt>
      <trkpt lat="45.32576" lon="6.21632">
        <ele>1733</ele>
        <time>2021-02-11T10:43:38Z</time>
      </trkpt>
      <trkpt lat="45.32578" lon="6.2163">
        <ele>1731</ele>
        <time>2021-02-11T10:43:48Z</time>
      </trkpt>
      <trkpt lat="45.32579" lon="6.21627">
        <ele>1732</ele>
        <time>2021-02-11T10:43:51Z</time>
      </trkpt>
      <trkpt lat="45.32585" lon="6.21606">
        <ele>1735</ele>
        <time>2021-02-11T10:44:08Z</time>
      </trkpt>
      <trkpt lat="45.32587" lon="6.21604">
        <ele>1737</ele>
        <time>2021-02-11T10:44:10Z</time>
      </trkpt>
      <trkpt lat="45.3259" lon="6.21596">
        <ele>1739</ele>
        <time>2021-02-11T10:44:16Z</time>
      </trkpt>
      <trkpt lat="45.32589" lon="6.21594">
        <ele>1740</ele>
        <time>2021-02-11T10:44:18Z</time>
      </trkpt>
      <trkpt lat="45.32595" lon="6.2156">
        <ele>1747</ele>
        <time>2021-02-11T10:44:48Z</time>
      </trkpt>
      <trkpt lat="45.32594" lon="6.21557">
        <ele>1748</ele>
        <time>2021-02-11T10:44:50Z</time>
      </trkpt>
      <trkpt lat="45.32595" lon="6.21552">
        <ele>1749</ele>
        <time>2021-02-11T10:44:55Z</time>
      </trkpt>
      <trkpt lat="45.32601" lon="6.21526">
        <ele>1750</ele>
        <time>2021-02-11T10:45:28Z</time>
      </trkpt>
      <trkpt lat="45.3261" lon="6.21496">
        <ele>1753</ele>
        <time>2021-02-11T10:46:02Z</time>
      </trkpt>
      <trkpt lat="45.32614" lon="6.2146">
        <ele>1751</ele>
        <time>2021-02-11T10:46:38Z</time>
      </trkpt>
      <trkpt lat="45.32615" lon="6.21458">
        <ele>1751</ele>
        <time>2021-02-11T10:46:40Z</time>
      </trkpt>
      <trkpt lat="45.32624" lon="6.21449">
        <ele>1753</ele>
        <time>2021-02-11T10:46:48Z</time>
      </trkpt>
      <trkpt lat="45.32638" lon="6.21406">
        <ele>1760</ele>
        <time>2021-02-11T10:47:29Z</time>
      </trkpt>
      <trkpt lat="45.32653" lon="6.2137">
        <ele>1765</ele>
        <time>2021-02-11T10:48:01Z</time>
      </trkpt>
      <trkpt lat="45.32663" lon="6.2135">
        <ele>1766</ele>
        <time>2021-02-11T10:48:21Z</time>
      </trkpt>
      <trkpt lat="45.32663" lon="6.21348">
        <ele>1766</ele>
        <time>2021-02-11T10:48:23Z</time>
      </trkpt>
      <trkpt lat="45.32664" lon="6.21346">
        <ele>1766</ele>
        <time>2021-02-11T10:48:25Z</time>
      </trkpt>
      <trkpt lat="45.32664" lon="6.21338">
        <ele>1767</ele>
        <time>2021-02-11T10:48:30Z</time>
      </trkpt>
      <trkpt lat="45.32663" lon="6.2132">
        <ele>1768</ele>
        <time>2021-02-11T10:48:45Z</time>
      </trkpt>
      <trkpt lat="45.32661" lon="6.21318">
        <ele>1769</ele>
        <time>2021-02-11T10:48:47Z</time>
      </trkpt>
      <trkpt lat="45.3266" lon="6.21312">
        <ele>1771</ele>
        <time>2021-02-11T10:49:26Z</time>
      </trkpt>
      <trkpt lat="45.3266" lon="6.21308">
        <ele>1774</ele>
        <time>2021-02-11T10:49:31Z</time>
      </trkpt>
      <trkpt lat="45.32658" lon="6.21301">
        <ele>1774</ele>
        <time>2021-02-11T10:49:35Z</time>
      </trkpt>
      <trkpt lat="45.32658" lon="6.2128">
        <ele>1777</ele>
        <time>2021-02-11T10:49:54Z</time>
      </trkpt>
      <trkpt lat="45.32655" lon="6.21274">
        <ele>1778</ele>
        <time>2021-02-11T10:50:00Z</time>
      </trkpt>
      <trkpt lat="45.32655" lon="6.21256">
        <ele>1783</ele>
        <time>2021-02-11T10:50:14Z</time>
      </trkpt>
      <trkpt lat="45.32654" lon="6.21226">
        <ele>1784</ele>
        <time>2021-02-11T10:50:45Z</time>
      </trkpt>
      <trkpt lat="45.32653" lon="6.21201">
        <ele>1785</ele>
        <time>2021-02-11T10:51:15Z</time>
      </trkpt>
      <trkpt lat="45.32654" lon="6.21199">
        <ele>1785</ele>
        <time>2021-02-11T10:51:17Z</time>
      </trkpt>
      <trkpt lat="45.32658" lon="6.21197">
        <ele>1785</ele>
        <time>2021-02-11T10:51:19Z</time>
      </trkpt>
      <trkpt lat="45.32661" lon="6.21178">
        <ele>1786</ele>
        <time>2021-02-11T10:51:35Z</time>
      </trkpt>
      <trkpt lat="45.32664" lon="6.21142">
        <ele>1794</ele>
        <time>2021-02-11T10:52:07Z</time>
      </trkpt>
      <trkpt lat="45.32667" lon="6.21105">
        <ele>1801</ele>
        <time>2021-02-11T10:52:40Z</time>
      </trkpt>
      <trkpt lat="45.32665" lon="6.21094">
        <ele>1801</ele>
        <time>2021-02-11T10:52:49Z</time>
      </trkpt>
      <trkpt lat="45.32669" lon="6.21086">
        <ele>1806</ele>
        <time>2021-02-11T10:53:38Z</time>
      </trkpt>
      <trkpt lat="45.32669" lon="6.21083">
        <ele>1807</ele>
        <time>2021-02-11T10:53:39Z</time>
      </trkpt>
      <trkpt lat="45.3267" lon="6.2107">
        <ele>1809</ele>
        <time>2021-02-11T10:55:40Z</time>
      </trkpt>
      <trkpt lat="45.3268" lon="6.21027">
        <ele>1807</ele>
        <time>2021-02-11T10:56:16Z</time>
      </trkpt>
      <trkpt lat="45.32685" lon="6.21015">
        <ele>1805</ele>
        <time>2021-02-11T10:56:34Z</time>
      </trkpt>
      <trkpt lat="45.32688" lon="6.20996">
        <ele>1803</ele>
        <time>2021-02-11T10:56:41Z</time>
      </trkpt>
      <trkpt lat="45.32692" lon="6.20987">
        <ele>1804</ele>
        <time>2021-02-11T10:56:53Z</time>
      </trkpt>
      <trkpt lat="45.32705" lon="6.20952">
        <ele>1810</ele>
        <time>2021-02-11T10:57:24Z</time>
      </trkpt>
      <trkpt lat="45.32716" lon="6.20917">
        <ele>1811</ele>
        <time>2021-02-11T10:57:56Z</time>
      </trkpt>
      <trkpt lat="45.32733" lon="6.20887">
        <ele>1814</ele>
        <time>2021-02-11T10:58:28Z</time>
      </trkpt>
      <trkpt lat="45.32738" lon="6.20871">
        <ele>1815</ele>
        <time>2021-02-11T10:58:43Z</time>
      </trkpt>
      <trkpt lat="45.32732" lon="6.20835">
        <ele>1818</ele>
        <time>2021-02-11T10:59:22Z</time>
      </trkpt>
      <trkpt lat="45.32731" lon="6.20833">
        <ele>1819</ele>
        <time>2021-02-11T10:59:24Z</time>
      </trkpt>
      <trkpt lat="45.32727" lon="6.20816">
        <ele>1821</ele>
        <time>2021-02-11T10:59:40Z</time>
      </trkpt>
      <trkpt lat="45.32723" lon="6.2081">
        <ele>1823</ele>
        <time>2021-02-11T10:59:48Z</time>
      </trkpt>
      <trkpt lat="45.32721" lon="6.20794">
        <ele>1825</ele>
        <time>2021-02-11T11:00:06Z</time>
      </trkpt>
      <trkpt lat="45.32719" lon="6.20778">
        <ele>1829</ele>
        <time>2021-02-11T11:00:25Z</time>
      </trkpt>
      <trkpt lat="45.32724" lon="6.20756">
        <ele>1831</ele>
        <time>2021-02-11T11:00:57Z</time>
      </trkpt>
      <trkpt lat="45.32729" lon="6.2072">
        <ele>1832</ele>
        <time>2021-02-11T11:01:33Z</time>
      </trkpt>
      <trkpt lat="45.32746" lon="6.20698">
        <ele>1832</ele>
        <time>2021-02-11T11:02:14Z</time>
      </trkpt>
      <trkpt lat="45.3276" lon="6.20681">
        <ele>1834</ele>
        <time>2021-02-11T11:02:33Z</time>
      </trkpt>
      <trkpt lat="45.32766" lon="6.20643">
        <ele>1838</ele>
        <time>2021-02-11T11:03:03Z</time>
      </trkpt>
      <trkpt lat="45.32766" lon="6.2064">
        <ele>1838</ele>
        <time>2021-02-11T11:03:05Z</time>
      </trkpt>
      <trkpt lat="45.32771" lon="6.2061">
        <ele>1844</ele>
        <time>2021-02-11T11:03:36Z</time>
      </trkpt>
      <trkpt lat="45.32775" lon="6.20575">
        <ele>1848</ele>
        <time>2021-02-11T11:04:06Z</time>
      </trkpt>
      <trkpt lat="45.32777" lon="6.20535">
        <ele>1848</ele>
        <time>2021-02-11T11:04:40Z</time>
      </trkpt>
      <trkpt lat="45.32778" lon="6.20497">
        <ele>1851</ele>
        <time>2021-02-11T11:05:19Z</time>
      </trkpt>
      <trkpt lat="45.32772" lon="6.2048">
        <ele>1853</ele>
        <time>2021-02-11T11:05:33Z</time>
      </trkpt>
      <trkpt lat="45.32774" lon="6.20469">
        <ele>1855</ele>
        <time>2021-02-11T11:05:42Z</time>
      </trkpt>
      <trkpt lat="45.32766" lon="6.20434">
        <ele>1857</ele>
        <time>2021-02-11T11:06:13Z</time>
      </trkpt>
      <trkpt lat="45.32763" lon="6.20428">
        <ele>1860</ele>
        <time>2021-02-11T11:06:55Z</time>
      </trkpt>
      <trkpt lat="45.32768" lon="6.20429">
        <ele>1862</ele>
        <time>2021-02-11T11:08:37Z</time>
      </trkpt>
      <trkpt lat="45.32767" lon="6.20427">
        <ele>1862</ele>
        <time>2021-02-11T11:08:39Z</time>
      </trkpt>
      <trkpt lat="45.3276" lon="6.20396">
        <ele>1862</ele>
        <time>2021-02-11T11:08:57Z</time>
      </trkpt>
      <trkpt lat="45.32759" lon="6.20387">
        <ele>1863</ele>
        <time>2021-02-11T11:09:02Z</time>
      </trkpt>
      <trkpt lat="45.3276" lon="6.20382">
        <ele>1862</ele>
        <time>2021-02-11T11:09:06Z</time>
      </trkpt>
      <trkpt lat="45.32764" lon="6.20328">
        <ele>1865</ele>
        <time>2021-02-11T11:09:47Z</time>
      </trkpt>
      <trkpt lat="45.32769" lon="6.20292">
        <ele>1867</ele>
        <time>2021-02-11T11:10:17Z</time>
      </trkpt>
      <trkpt lat="45.32776" lon="6.20255">
        <ele>1870</ele>
        <time>2021-02-11T11:10:48Z</time>
      </trkpt>
      <trkpt lat="45.32784" lon="6.20221">
        <ele>1875</ele>
        <time>2021-02-11T11:11:14Z</time>
      </trkpt>
      <trkpt lat="45.32785" lon="6.20218">
        <ele>1875</ele>
        <time>2021-02-11T11:11:16Z</time>
      </trkpt>
      <trkpt lat="45.32794" lon="6.20181">
        <ele>1878</ele>
        <time>2021-02-11T11:11:47Z</time>
      </trkpt>
      <trkpt lat="45.32804" lon="6.20138">
        <ele>1881</ele>
        <time>2021-02-11T11:12:24Z</time>
      </trkpt>
      <trkpt lat="45.32812" lon="6.201">
        <ele>1883</ele>
        <time>2021-02-11T11:13:00Z</time>
      </trkpt>
      <trkpt lat="45.32821" lon="6.2007">
        <ele>1886</ele>
        <time>2021-02-11T11:13:38Z</time>
      </trkpt>
      <trkpt lat="45.32831" lon="6.20032">
        <ele>1889</ele>
        <time>2021-02-11T11:14:22Z</time>
      </trkpt>
      <trkpt lat="45.32832" lon="6.2003">
        <ele>1890</ele>
        <time>2021-02-11T11:14:24Z</time>
      </trkpt>
      <trkpt lat="45.32839" lon="6.20001">
        <ele>1894</ele>
        <time>2021-02-11T11:14:55Z</time>
      </trkpt>
      <trkpt lat="45.32841" lon="6.19998">
        <ele>1895</ele>
        <time>2021-02-11T11:14:58Z</time>
      </trkpt>
      <trkpt lat="45.32844" lon="6.19986">
        <ele>1897</ele>
        <time>2021-02-11T11:15:14Z</time>
      </trkpt>
      <trkpt lat="45.32849" lon="6.1997">
        <ele>1902</ele>
        <time>2021-02-11T11:15:35Z</time>
      </trkpt>
      <trkpt lat="45.32857" lon="6.19943">
        <ele>1907</ele>
        <time>2021-02-11T11:16:09Z</time>
      </trkpt>
      <trkpt lat="45.32868" lon="6.19917">
        <ele>1910</ele>
        <time>2021-02-11T11:16:55Z</time>
      </trkpt>
      <trkpt lat="45.3287" lon="6.19915">
        <ele>1911</ele>
        <time>2021-02-11T11:16:58Z</time>
      </trkpt>
      <trkpt lat="45.32886" lon="6.19896">
        <ele>1918</ele>
        <time>2021-02-11T11:17:29Z</time>
      </trkpt>
      <trkpt lat="45.32895" lon="6.19884">
        <ele>1920</ele>
        <time>2021-02-11T11:18:00Z</time>
      </trkpt>
      <trkpt lat="45.32905" lon="6.19857">
        <ele>1926</ele>
        <time>2021-02-11T11:18:19Z</time>
      </trkpt>
      <trkpt lat="45.3291" lon="6.19826">
        <ele>1934</ele>
        <time>2021-02-11T11:18:54Z</time>
      </trkpt>
      <trkpt lat="45.3291" lon="6.19823">
        <ele>1935</ele>
        <time>2021-02-11T11:18:57Z</time>
      </trkpt>
      <trkpt lat="45.32913" lon="6.19808">
        <ele>1939</ele>
        <time>2021-02-11T11:19:12Z</time>
      </trkpt>
      <trkpt lat="45.32915" lon="6.19795">
        <ele>1941</ele>
        <time>2021-02-11T11:19:26Z</time>
      </trkpt>
      <trkpt lat="45.32922" lon="6.1976">
        <ele>1948</ele>
        <time>2021-02-11T11:20:02Z</time>
      </trkpt>
      <trkpt lat="45.32923" lon="6.19758">
        <ele>1949</ele>
        <time>2021-02-11T11:20:04Z</time>
      </trkpt>
      <trkpt lat="45.32936" lon="6.19722">
        <ele>1953</ele>
        <time>2021-02-11T11:20:38Z</time>
      </trkpt>
      <trkpt lat="45.32937" lon="6.19719">
        <ele>1954</ele>
        <time>2021-02-11T11:20:40Z</time>
      </trkpt>
      <trkpt lat="45.32938" lon="6.19712">
        <ele>1954</ele>
        <time>2021-02-11T11:20:46Z</time>
      </trkpt>
      <trkpt lat="45.3294" lon="6.19706">
        <ele>1955</ele>
        <time>2021-02-11T11:20:50Z</time>
      </trkpt>
      <trkpt lat="45.3294" lon="6.19703">
        <ele>1955</ele>
        <time>2021-02-11T11:20:52Z</time>
      </trkpt>
      <trkpt lat="45.32947" lon="6.19682">
        <ele>1956</ele>
        <time>2021-02-11T11:21:08Z</time>
      </trkpt>
      <trkpt lat="45.32949" lon="6.19681">
        <ele>1959</ele>
        <time>2021-02-11T11:21:26Z</time>
      </trkpt>
      <trkpt lat="45.32963" lon="6.19651">
        <ele>1962</ele>
        <time>2021-02-11T11:21:59Z</time>
      </trkpt>
      <trkpt lat="45.32968" lon="6.19636">
        <ele>1963</ele>
        <time>2021-02-11T11:22:15Z</time>
      </trkpt>
      <trkpt lat="45.32969" lon="6.19623">
        <ele>1964</ele>
        <time>2021-02-11T11:22:25Z</time>
      </trkpt>
      <trkpt lat="45.32968" lon="6.19621">
        <ele>1965</ele>
        <time>2021-02-11T11:22:27Z</time>
      </trkpt>
      <trkpt lat="45.32965" lon="6.19592">
        <ele>1970</ele>
        <time>2021-02-11T11:22:55Z</time>
      </trkpt>
      <trkpt lat="45.32975" lon="6.19591">
        <ele>1972</ele>
        <time>2021-02-11T11:26:17Z</time>
      </trkpt>
      <trkpt lat="45.32977" lon="6.19591">
        <ele>1973</ele>
        <time>2021-02-11T11:26:20Z</time>
      </trkpt>
      <trkpt lat="45.32981" lon="6.19579">
        <ele>1974</ele>
        <time>2021-02-11T11:26:47Z</time>
      </trkpt>
      <trkpt lat="45.32982" lon="6.19576">
        <ele>1975</ele>
        <time>2021-02-11T11:26:50Z</time>
      </trkpt>
      <trkpt lat="45.3298" lon="6.19566">
        <ele>1976</ele>
        <time>2021-02-11T11:26:58Z</time>
      </trkpt>
      <trkpt lat="45.32981" lon="6.19564">
        <ele>1976</ele>
        <time>2021-02-11T11:27:00Z</time>
      </trkpt>
      <trkpt lat="45.32977" lon="6.19547">
        <ele>1974</ele>
        <time>2021-02-11T11:27:17Z</time>
      </trkpt>
      <trkpt lat="45.32977" lon="6.19534">
        <ele>1972</ele>
        <time>2021-02-11T11:27:28Z</time>
      </trkpt>
      <trkpt lat="45.32986" lon="6.19543">
        <ele>1975</ele>
        <time>2021-02-11T11:27:48Z</time>
      </trkpt>
      <trkpt lat="45.32988" lon="6.19543">
        <ele>1976</ele>
        <time>2021-02-11T11:27:51Z</time>
      </trkpt>
      <trkpt lat="45.32999" lon="6.19547">
        <ele>1980</ele>
        <time>2021-02-11T11:28:14Z</time>
      </trkpt>
      <trkpt lat="45.33002" lon="6.19535">
        <ele>1987</ele>
        <time>2021-02-11T11:28:36Z</time>
      </trkpt>
      <trkpt lat="45.33002" lon="6.19532">
        <ele>1991</ele>
        <time>2021-02-11T11:28:38Z</time>
      </trkpt>
      <trkpt lat="45.33003" lon="6.19518">
        <ele>1996</ele>
        <time>2021-02-11T11:28:54Z</time>
      </trkpt>
      <trkpt lat="45.33002" lon="6.19516">
        <ele>1998</ele>
        <time>2021-02-11T11:28:57Z</time>
      </trkpt>
      <trkpt lat="45.33007" lon="6.19505">
        <ele>2001</ele>
        <time>2021-02-11T11:29:28Z</time>
      </trkpt>
      <trkpt lat="45.33022" lon="6.19504">
        <ele>2003</ele>
        <time>2021-02-11T11:29:56Z</time>
      </trkpt>
      <trkpt lat="45.33033" lon="6.19507">
        <ele>2004</ele>
        <time>2021-02-11T11:30:12Z</time>
      </trkpt>
      <trkpt lat="45.33044" lon="6.19511">
        <ele>2009</ele>
        <time>2021-02-11T11:30:33Z</time>
      </trkpt>
      <trkpt lat="45.33046" lon="6.19509">
        <ele>2010</ele>
        <time>2021-02-11T11:30:36Z</time>
      </trkpt>
      <trkpt lat="45.33065" lon="6.1949">
        <ele>2016</ele>
        <time>2021-02-11T11:31:05Z</time>
      </trkpt>
      <trkpt lat="45.33071" lon="6.19479">
        <ele>2017</ele>
        <time>2021-02-11T11:31:21Z</time>
      </trkpt>
      <trkpt lat="45.33076" lon="6.19472">
        <ele>2018</ele>
        <time>2021-02-11T11:31:31Z</time>
      </trkpt>
      <trkpt lat="45.33091" lon="6.19451">
        <ele>2021</ele>
        <time>2021-02-11T11:32:01Z</time>
      </trkpt>
      <trkpt lat="45.33099" lon="6.19439">
        <ele>2024</ele>
        <time>2021-02-11T11:32:16Z</time>
      </trkpt>
      <trkpt lat="45.33106" lon="6.19428">
        <ele>2026</ele>
        <time>2021-02-11T11:32:34Z</time>
      </trkpt>
      <trkpt lat="45.33116" lon="6.19415">
        <ele>2029</ele>
        <time>2021-02-11T11:32:53Z</time>
      </trkpt>
      <trkpt lat="45.33124" lon="6.19404">
        <ele>2031</ele>
        <time>2021-02-11T11:33:11Z</time>
      </trkpt>
      <trkpt lat="45.3313" lon="6.19394">
        <ele>2033</ele>
        <time>2021-02-11T11:33:37Z</time>
      </trkpt>
      <trkpt lat="45.33132" lon="6.19392">
        <ele>2034</ele>
        <time>2021-02-11T11:33:40Z</time>
      </trkpt>
      <trkpt lat="45.33138" lon="6.19382">
        <ele>2035</ele>
        <time>2021-02-11T11:33:55Z</time>
      </trkpt>
      <trkpt lat="45.33148" lon="6.19371">
        <ele>2038</ele>
        <time>2021-02-11T11:34:25Z</time>
      </trkpt>
      <trkpt lat="45.33153" lon="6.19359">
        <ele>2043</ele>
        <time>2021-02-11T11:38:07Z</time>
      </trkpt>
      <trkpt lat="45.33166" lon="6.19331">
        <ele>2045</ele>
        <time>2021-02-11T11:38:42Z</time>
      </trkpt>
      <trkpt lat="45.33166" lon="6.19329">
        <ele>2045</ele>
        <time>2021-02-11T11:38:45Z</time>
      </trkpt>
      <trkpt lat="45.33166" lon="6.19316">
        <ele>2049</ele>
        <time>2021-02-11T11:39:05Z</time>
      </trkpt>
      <trkpt lat="45.33176" lon="6.1929">
        <ele>2050</ele>
        <time>2021-02-11T11:39:56Z</time>
      </trkpt>
      <trkpt lat="45.33192" lon="6.1926">
        <ele>2052</ele>
        <time>2021-02-11T11:40:32Z</time>
      </trkpt>
      <trkpt lat="45.33198" lon="6.19247">
        <ele>2055</ele>
        <time>2021-02-11T11:40:52Z</time>
      </trkpt>
      <trkpt lat="45.33208" lon="6.19232">
        <ele>2063</ele>
        <time>2021-02-11T11:41:16Z</time>
      </trkpt>
      <trkpt lat="45.33205" lon="6.19219">
        <ele>2065</ele>
        <time>2021-02-11T11:41:35Z</time>
      </trkpt>
      <trkpt lat="45.33217" lon="6.19198">
        <ele>2067</ele>
        <time>2021-02-11T11:42:29Z</time>
      </trkpt>
      <trkpt lat="45.33219" lon="6.19196">
        <ele>2068</ele>
        <time>2021-02-11T11:42:32Z</time>
      </trkpt>
      <trkpt lat="45.3322" lon="6.19183">
        <ele>2069</ele>
        <time>2021-02-11T11:42:57Z</time>
      </trkpt>
      <trkpt lat="45.33223" lon="6.19165">
        <ele>2073</ele>
        <time>2021-02-11T11:43:23Z</time>
      </trkpt>
      <trkpt lat="45.33233" lon="6.19162">
        <ele>2076</ele>
        <time>2021-02-11T11:44:02Z</time>
      </trkpt>
      <trkpt lat="45.33234" lon="6.19161">
        <ele>2077</ele>
        <time>2021-02-11T11:44:04Z</time>
      </trkpt>
      <trkpt lat="45.33239" lon="6.19133">
        <ele>2090</ele>
        <time>2021-02-11T11:44:38Z</time>
      </trkpt>
      <trkpt lat="45.33249" lon="6.19132">
        <ele>2092</ele>
        <time>2021-02-11T11:45:25Z</time>
      </trkpt>
      <trkpt lat="45.33251" lon="6.19132">
        <ele>2092</ele>
        <time>2021-02-11T11:45:28Z</time>
      </trkpt>
      <trkpt lat="45.33251" lon="6.19115">
        <ele>2095</ele>
        <time>2021-02-11T11:45:50Z</time>
      </trkpt>
      <trkpt lat="45.3326" lon="6.19112">
        <ele>2098</ele>
        <time>2021-02-11T11:46:15Z</time>
      </trkpt>
      <trkpt lat="45.33271" lon="6.19118">
        <ele>2101</ele>
        <time>2021-02-11T11:46:33Z</time>
      </trkpt>
      <trkpt lat="45.33275" lon="6.1909">
        <ele>2111</ele>
        <time>2021-02-11T11:47:13Z</time>
      </trkpt>
      <trkpt lat="45.33284" lon="6.19099">
        <ele>2114</ele>
        <time>2021-02-11T11:47:32Z</time>
      </trkpt>
      <trkpt lat="45.33289" lon="6.19088">
        <ele>2120</ele>
        <time>2021-02-11T11:48:13Z</time>
      </trkpt>
      <trkpt lat="45.33289" lon="6.19068">
        <ele>2127</ele>
        <time>2021-02-11T11:48:33Z</time>
      </trkpt>
      <trkpt lat="45.33298" lon="6.19071">
        <ele>2133</ele>
        <time>2021-02-11T11:49:17Z</time>
      </trkpt>
      <trkpt lat="45.33301" lon="6.19067">
        <ele>2139</ele>
        <time>2021-02-11T11:49:32Z</time>
      </trkpt>
      <trkpt lat="45.333" lon="6.19049">
        <ele>2146</ele>
        <time>2021-02-11T11:49:51Z</time>
      </trkpt>
      <trkpt lat="45.3331" lon="6.19057">
        <ele>2149</ele>
        <time>2021-02-11T11:50:20Z</time>
      </trkpt>
      <trkpt lat="45.33316" lon="6.19032">
        <ele>2154</ele>
        <time>2021-02-11T11:50:53Z</time>
      </trkpt>
      <trkpt lat="45.33317" lon="6.19029">
        <ele>2156</ele>
        <time>2021-02-11T11:50:56Z</time>
      </trkpt>
      <trkpt lat="45.33325" lon="6.19037">
        <ele>2158</ele>
        <time>2021-02-11T11:51:43Z</time>
      </trkpt>
      <trkpt lat="45.33323" lon="6.19024">
        <ele>2161</ele>
        <time>2021-02-11T11:52:01Z</time>
      </trkpt>
      <trkpt lat="45.33325" lon="6.18993">
        <ele>2168</ele>
        <time>2021-02-11T11:52:33Z</time>
      </trkpt>
      <trkpt lat="45.3333" lon="6.18963">
        <ele>2175</ele>
        <time>2021-02-11T11:53:08Z</time>
      </trkpt>
      <trkpt lat="45.33333" lon="6.18947">
        <ele>2177</ele>
        <time>2021-02-11T11:53:25Z</time>
      </trkpt>
      <trkpt lat="45.33332" lon="6.18944">
        <ele>2178</ele>
        <time>2021-02-11T11:53:28Z</time>
      </trkpt>
      <trkpt lat="45.33341" lon="6.18942">
        <ele>2179</ele>
        <time>2021-02-11T11:53:52Z</time>
      </trkpt>
      <trkpt lat="45.33332" lon="6.18925">
        <ele>2182</ele>
        <time>2021-02-11T11:54:27Z</time>
      </trkpt>
      <trkpt lat="45.3333" lon="6.18923">
        <ele>2183</ele>
        <time>2021-02-11T11:54:30Z</time>
      </trkpt>
      <trkpt lat="45.33335" lon="6.18904">
        <ele>2185</ele>
        <time>2021-02-11T11:54:48Z</time>
      </trkpt>
      <trkpt lat="45.33344" lon="6.18906">
        <ele>2187</ele>
        <time>2021-02-11T11:55:21Z</time>
      </trkpt>
      <trkpt lat="45.33343" lon="6.18887">
        <ele>2190</ele>
        <time>2021-02-11T11:55:38Z</time>
      </trkpt>
      <trkpt lat="45.33338" lon="6.18859">
        <ele>2194</ele>
        <time>2021-02-11T11:56:13Z</time>
      </trkpt>
      <trkpt lat="45.33335" lon="6.1884">
        <ele>2196</ele>
        <time>2021-02-11T11:56:35Z</time>
      </trkpt>
      <trkpt lat="45.33343" lon="6.18832">
        <ele>2200</ele>
        <time>2021-02-11T11:57:20Z</time>
      </trkpt>
      <trkpt lat="45.33341" lon="6.18817">
        <ele>2205</ele>
        <time>2021-02-11T11:57:50Z</time>
      </trkpt>
      <trkpt lat="45.33337" lon="6.18805">
        <ele>2207</ele>
        <time>2021-02-11T11:58:06Z</time>
      </trkpt>
      <trkpt lat="45.33329" lon="6.18798">
        <ele>2214</ele>
        <time>2021-02-11T11:58:40Z</time>
      </trkpt>
      <trkpt lat="45.33339" lon="6.18799">
        <ele>2223</ele>
        <time>2021-02-11T11:59:00Z</time>
      </trkpt>
      <trkpt lat="45.33332" lon="6.18791">
        <ele>2230</ele>
        <time>2021-02-11T11:59:19Z</time>
      </trkpt>
      <trkpt lat="45.33331" lon="6.18789">
        <ele>2232</ele>
        <time>2021-02-11T11:59:22Z</time>
      </trkpt>
      <trkpt lat="45.33335" lon="6.18792">
        <ele>2238</ele>
        <time>2021-02-11T12:03:43Z</time>
      </trkpt>
      <trkpt lat="45.33335" lon="6.18795">
        <ele>2240</ele>
        <time>2021-02-11T12:03:45Z</time>
      </trkpt>
      <trkpt lat="45.33332" lon="6.18789">
        <ele>2245</ele>
        <time>2021-02-11T12:04:45Z</time>
      </trkpt>
      <trkpt lat="45.3333" lon="6.18786">
        <ele>2246</ele>
        <time>2021-02-11T12:04:49Z</time>
      </trkpt>
      <trkpt lat="45.33329" lon="6.18783">
        <ele>2245</ele>
        <time>2021-02-11T12:04:51Z</time>
      </trkpt>
      <trkpt lat="45.33328" lon="6.18782">
        <ele>2245</ele>
        <time>2021-02-11T12:04:52Z</time>
      </trkpt>
      <trkpt lat="45.33324" lon="6.18777">
        <ele>2244</ele>
        <time>2021-02-11T12:04:57Z</time>
      </trkpt>
      <trkpt lat="45.33332" lon="6.18788">
        <ele>2245</ele>
        <time>2021-02-11T12:05:17Z</time>
      </trkpt>
      <trkpt lat="45.33333" lon="6.18788">
        <ele>2244</ele>
        <time>2021-02-11T12:12:34Z</time>
      </trkpt>
      <trkpt lat="45.33326" lon="6.18779">
        <ele>2244</ele>
        <time>2021-02-11T12:20:39Z</time>
      </trkpt>
      <trkpt lat="45.33331" lon="6.18788">
        <ele>2246</ele>
        <time>2021-02-11T12:21:31Z</time>
      </trkpt>
      <trkpt lat="45.3333" lon="6.18788">
        <ele>2245</ele>
        <time>2021-02-11T12:22:47Z</time>
      </trkpt>
      <trkpt lat="45.33338" lon="6.18783">
        <ele>2244</ele>
        <time>2021-02-11T12:23:33Z</time>
      </trkpt>
      <trkpt lat="45.33328" lon="6.18787">
        <ele>2247</ele>
        <time>2021-02-11T12:23:56Z</time>
      </trkpt>
      <trkpt lat="45.33336" lon="6.18794">
        <ele>2244</ele>
        <time>2021-02-11T12:35:38Z</time>
      </trkpt>
      <trkpt lat="45.33338" lon="6.18791">
        <ele>2242</ele>
        <time>2021-02-11T12:36:46Z</time>
      </trkpt>
      <trkpt lat="45.33337" lon="6.1879">
        <ele>2241</ele>
        <time>2021-02-11T12:42:21Z</time>
      </trkpt>
      <trkpt lat="45.33343" lon="6.188">
        <ele>2236</ele>
        <time>2021-02-11T12:43:40Z</time>
      </trkpt>
      <trkpt lat="45.33343" lon="6.18803">
        <ele>2233</ele>
        <time>2021-02-11T12:43:43Z</time>
      </trkpt>
      <trkpt lat="45.33329" lon="6.18802">
        <ele>2239</ele>
        <time>2021-02-11T12:43:52Z</time>
      </trkpt>
      <trkpt lat="45.33335" lon="6.18817">
        <ele>2237</ele>
        <time>2021-02-11T12:44:06Z</time>
      </trkpt>
      <trkpt lat="45.33337" lon="6.1882">
        <ele>2236</ele>
        <time>2021-02-11T12:44:07Z</time>
      </trkpt>
      <trkpt lat="45.3334" lon="6.18825">
        <ele>2234</ele>
        <time>2021-02-11T12:44:09Z</time>
      </trkpt>
      <trkpt lat="45.33339" lon="6.18828">
        <ele>2232</ele>
        <time>2021-02-11T12:44:11Z</time>
      </trkpt>
      <trkpt lat="45.33339" lon="6.18833">
        <ele>2228</ele>
        <time>2021-02-11T12:44:17Z</time>
      </trkpt>
      <trkpt lat="45.3334" lon="6.18838">
        <ele>2225</ele>
        <time>2021-02-11T12:44:19Z</time>
      </trkpt>
      <trkpt lat="45.33342" lon="6.18839">
        <ele>2223</ele>
        <time>2021-02-11T12:44:22Z</time>
      </trkpt>
      <trkpt lat="45.33342" lon="6.18846">
        <ele>2221</ele>
        <time>2021-02-11T12:44:45Z</time>
      </trkpt>
      <trkpt lat="45.33341" lon="6.18847">
        <ele>2220</ele>
        <time>2021-02-11T12:44:47Z</time>
      </trkpt>
      <trkpt lat="45.33341" lon="6.1885">
        <ele>2219</ele>
        <time>2021-02-11T12:44:49Z</time>
      </trkpt>
      <trkpt lat="45.3334" lon="6.18852">
        <ele>2219</ele>
        <time>2021-02-11T12:44:50Z</time>
      </trkpt>
      <trkpt lat="45.33338" lon="6.18852">
        <ele>2218</ele>
        <time>2021-02-11T12:44:51Z</time>
      </trkpt>
      <trkpt lat="45.33336" lon="6.18854">
        <ele>2218</ele>
        <time>2021-02-11T12:44:53Z</time>
      </trkpt>
      <trkpt lat="45.33339" lon="6.18865">
        <ele>2215</ele>
        <time>2021-02-11T12:44:59Z</time>
      </trkpt>
      <trkpt lat="45.3334" lon="6.18868">
        <ele>2213</ele>
        <time>2021-02-11T12:45:00Z</time>
      </trkpt>
      <trkpt lat="45.33342" lon="6.18871">
        <ele>2212</ele>
        <time>2021-02-11T12:45:01Z</time>
      </trkpt>
      <trkpt lat="45.33346" lon="6.18889">
        <ele>2206</ele>
        <time>2021-02-11T12:45:09Z</time>
      </trkpt>
      <trkpt lat="45.33343" lon="6.18903">
        <ele>2208</ele>
        <time>2021-02-11T12:45:29Z</time>
      </trkpt>
      <trkpt lat="45.3334" lon="6.18904">
        <ele>2208</ele>
        <time>2021-02-11T12:45:31Z</time>
      </trkpt>
      <trkpt lat="45.3334" lon="6.18908">
        <ele>2208</ele>
        <time>2021-02-11T12:45:32Z</time>
      </trkpt>
      <trkpt lat="45.3334" lon="6.18915">
        <ele>2207</ele>
        <time>2021-02-11T12:45:34Z</time>
      </trkpt>
      <trkpt lat="45.33338" lon="6.18915">
        <ele>2207</ele>
        <time>2021-02-11T12:45:36Z</time>
      </trkpt>
      <trkpt lat="45.33333" lon="6.18918">
        <ele>2205</ele>
        <time>2021-02-11T12:45:38Z</time>
      </trkpt>
      <trkpt lat="45.3333" lon="6.18917">
        <ele>2204</ele>
        <time>2021-02-11T12:45:39Z</time>
      </trkpt>
      <trkpt lat="45.33327" lon="6.18918">
        <ele>2203</ele>
        <time>2021-02-11T12:45:40Z</time>
      </trkpt>
      <trkpt lat="45.33328" lon="6.18931">
        <ele>2198</ele>
        <time>2021-02-11T12:45:45Z</time>
      </trkpt>
      <trkpt lat="45.33327" lon="6.18934">
        <ele>2198</ele>
        <time>2021-02-11T12:45:46Z</time>
      </trkpt>
      <trkpt lat="45.33325" lon="6.18934">
        <ele>2197</ele>
        <time>2021-02-11T12:45:47Z</time>
      </trkpt>
      <trkpt lat="45.33323" lon="6.18934">
        <ele>2197</ele>
        <time>2021-02-11T12:45:48Z</time>
      </trkpt>
      <trkpt lat="45.33321" lon="6.18935">
        <ele>2196</ele>
        <time>2021-02-11T12:45:49Z</time>
      </trkpt>
      <trkpt lat="45.3332" lon="6.18937">
        <ele>2195</ele>
        <time>2021-02-11T12:45:50Z</time>
      </trkpt>
      <trkpt lat="45.33316" lon="6.1894">
        <ele>2193</ele>
        <time>2021-02-11T12:45:52Z</time>
      </trkpt>
      <trkpt lat="45.33314" lon="6.18942">
        <ele>2192</ele>
        <time>2021-02-11T12:45:53Z</time>
      </trkpt>
      <trkpt lat="45.33312" lon="6.18943">
        <ele>2192</ele>
        <time>2021-02-11T12:45:54Z</time>
      </trkpt>
      <trkpt lat="45.3331" lon="6.18944">
        <ele>2190</ele>
        <time>2021-02-11T12:45:55Z</time>
      </trkpt>
      <trkpt lat="45.33308" lon="6.18945">
        <ele>2190</ele>
        <time>2021-02-11T12:45:56Z</time>
      </trkpt>
      <trkpt lat="45.33307" lon="6.18948">
        <ele>2188</ele>
        <time>2021-02-11T12:45:57Z</time>
      </trkpt>
      <trkpt lat="45.33306" lon="6.18951">
        <ele>2187</ele>
        <time>2021-02-11T12:45:58Z</time>
      </trkpt>
      <trkpt lat="45.33304" lon="6.18951">
        <ele>2185</ele>
        <time>2021-02-11T12:45:59Z</time>
      </trkpt>
      <trkpt lat="45.33303" lon="6.18952">
        <ele>2184</ele>
        <time>2021-02-11T12:46:00Z</time>
      </trkpt>
      <trkpt lat="45.33303" lon="6.18954">
        <ele>2183</ele>
        <time>2021-02-11T12:46:01Z</time>
      </trkpt>
      <trkpt lat="45.33303" lon="6.18957">
        <ele>2179</ele>
        <time>2021-02-11T12:46:03Z</time>
      </trkpt>
      <trkpt lat="45.33299" lon="6.18962">
        <ele>2178</ele>
        <time>2021-02-11T12:46:26Z</time>
      </trkpt>
      <trkpt lat="45.33297" lon="6.18963">
        <ele>2175</ele>
        <time>2021-02-11T12:46:28Z</time>
      </trkpt>
      <trkpt lat="45.3329" lon="6.18971">
        <ele>2164</ele>
        <time>2021-02-11T12:46:31Z</time>
      </trkpt>
      <trkpt lat="45.33288" lon="6.18975">
        <ele>2163</ele>
        <time>2021-02-11T12:46:32Z</time>
      </trkpt>
      <trkpt lat="45.33286" lon="6.18978">
        <ele>2161</ele>
        <time>2021-02-11T12:46:33Z</time>
      </trkpt>
      <trkpt lat="45.33283" lon="6.18981">
        <ele>2160</ele>
        <time>2021-02-11T12:46:34Z</time>
      </trkpt>
      <trkpt lat="45.33282" lon="6.18984">
        <ele>2159</ele>
        <time>2021-02-11T12:46:35Z</time>
      </trkpt>
      <trkpt lat="45.33281" lon="6.18987">
        <ele>2158</ele>
        <time>2021-02-11T12:46:36Z</time>
      </trkpt>
      <trkpt lat="45.33278" lon="6.18989">
        <ele>2157</ele>
        <time>2021-02-11T12:46:37Z</time>
      </trkpt>
      <trkpt lat="45.33277" lon="6.18991">
        <ele>2155</ele>
        <time>2021-02-11T12:46:38Z</time>
      </trkpt>
      <trkpt lat="45.33277" lon="6.18995">
        <ele>2154</ele>
        <time>2021-02-11T12:46:39Z</time>
      </trkpt>
      <trkpt lat="45.33278" lon="6.18998">
        <ele>2152</ele>
        <time>2021-02-11T12:46:40Z</time>
      </trkpt>
      <trkpt lat="45.33275" lon="6.19004">
        <ele>2150</ele>
        <time>2021-02-11T12:46:42Z</time>
      </trkpt>
      <trkpt lat="45.33274" lon="6.19008">
        <ele>2148</ele>
        <time>2021-02-11T12:46:43Z</time>
      </trkpt>
      <trkpt lat="45.33273" lon="6.19011">
        <ele>2146</ele>
        <time>2021-02-11T12:46:44Z</time>
      </trkpt>
      <trkpt lat="45.33271" lon="6.19014">
        <ele>2144</ele>
        <time>2021-02-11T12:46:45Z</time>
      </trkpt>
      <trkpt lat="45.33269" lon="6.19018">
        <ele>2143</ele>
        <time>2021-02-11T12:46:46Z</time>
      </trkpt>
      <trkpt lat="45.33268" lon="6.19022">
        <ele>2141</ele>
        <time>2021-02-11T12:46:47Z</time>
      </trkpt>
      <trkpt lat="45.33266" lon="6.19023">
        <ele>2140</ele>
        <time>2021-02-11T12:46:48Z</time>
      </trkpt>
      <trkpt lat="45.3326" lon="6.19027">
        <ele>2136</ele>
        <time>2021-02-11T12:46:50Z</time>
      </trkpt>
      <trkpt lat="45.33256" lon="6.1903">
        <ele>2135</ele>
        <time>2021-02-11T12:46:51Z</time>
      </trkpt>
      <trkpt lat="45.33253" lon="6.1903">
        <ele>2131</ele>
        <time>2021-02-11T12:46:52Z</time>
      </trkpt>
      <trkpt lat="45.33251" lon="6.19038">
        <ele>2127</ele>
        <time>2021-02-11T12:46:54Z</time>
      </trkpt>
      <trkpt lat="45.33249" lon="6.19041">
        <ele>2126</ele>
        <time>2021-02-11T12:46:55Z</time>
      </trkpt>
      <trkpt lat="45.33247" lon="6.19042">
        <ele>2124</ele>
        <time>2021-02-11T12:46:56Z</time>
      </trkpt>
      <trkpt lat="45.33245" lon="6.19045">
        <ele>2123</ele>
        <time>2021-02-11T12:46:57Z</time>
      </trkpt>
      <trkpt lat="45.33242" lon="6.19046">
        <ele>2121</ele>
        <time>2021-02-11T12:46:58Z</time>
      </trkpt>
      <trkpt lat="45.33239" lon="6.1905">
        <ele>2120</ele>
        <time>2021-02-11T12:46:59Z</time>
      </trkpt>
      <trkpt lat="45.33238" lon="6.19054">
        <ele>2119</ele>
        <time>2021-02-11T12:47:00Z</time>
      </trkpt>
      <trkpt lat="45.33237" lon="6.19057">
        <ele>2118</ele>
        <time>2021-02-11T12:47:01Z</time>
      </trkpt>
      <trkpt lat="45.33231" lon="6.19062">
        <ele>2115</ele>
        <time>2021-02-11T12:47:03Z</time>
      </trkpt>
      <trkpt lat="45.33229" lon="6.19064">
        <ele>2114</ele>
        <time>2021-02-11T12:47:04Z</time>
      </trkpt>
      <trkpt lat="45.33232" lon="6.1907">
        <ele>2111</ele>
        <time>2021-02-11T12:47:06Z</time>
      </trkpt>
      <trkpt lat="45.33233" lon="6.19076">
        <ele>2109</ele>
        <time>2021-02-11T12:48:22Z</time>
      </trkpt>
      <trkpt lat="45.33231" lon="6.1908">
        <ele>2109</ele>
        <time>2021-02-11T12:48:23Z</time>
      </trkpt>
      <trkpt lat="45.33229" lon="6.19086">
        <ele>2108</ele>
        <time>2021-02-11T12:48:24Z</time>
      </trkpt>
      <trkpt lat="45.33224" lon="6.19091">
        <ele>2108</ele>
        <time>2021-02-11T12:48:25Z</time>
      </trkpt>
      <trkpt lat="45.3322" lon="6.19105">
        <ele>2107</ele>
        <time>2021-02-11T12:48:27Z</time>
      </trkpt>
      <trkpt lat="45.33215" lon="6.19149">
        <ele>2099</ele>
        <time>2021-02-11T12:48:34Z</time>
      </trkpt>
      <trkpt lat="45.33214" lon="6.19153">
        <ele>2097</ele>
        <time>2021-02-11T12:48:35Z</time>
      </trkpt>
      <trkpt lat="45.33211" lon="6.19156">
        <ele>2096</ele>
        <time>2021-02-11T12:48:36Z</time>
      </trkpt>
      <trkpt lat="45.33207" lon="6.19167">
        <ele>2094</ele>
        <time>2021-02-11T12:48:38Z</time>
      </trkpt>
      <trkpt lat="45.33203" lon="6.19201">
        <ele>2092</ele>
        <time>2021-02-11T12:48:43Z</time>
      </trkpt>
      <trkpt lat="45.33202" lon="6.19203">
        <ele>2090</ele>
        <time>2021-02-11T12:48:45Z</time>
      </trkpt>
      <trkpt lat="45.332" lon="6.19206">
        <ele>2088</ele>
        <time>2021-02-11T12:48:46Z</time>
      </trkpt>
      <trkpt lat="45.332" lon="6.1921">
        <ele>2087</ele>
        <time>2021-02-11T12:48:47Z</time>
      </trkpt>
      <trkpt lat="45.33199" lon="6.19213">
        <ele>2086</ele>
        <time>2021-02-11T12:48:48Z</time>
      </trkpt>
      <trkpt lat="45.33194" lon="6.19221">
        <ele>2084</ele>
        <time>2021-02-11T12:48:50Z</time>
      </trkpt>
      <trkpt lat="45.3319" lon="6.19227">
        <ele>2082</ele>
        <time>2021-02-11T12:48:51Z</time>
      </trkpt>
      <trkpt lat="45.33161" lon="6.19299">
        <ele>2067</ele>
        <time>2021-02-11T12:49:02Z</time>
      </trkpt>
      <trkpt lat="45.33159" lon="6.19304">
        <ele>2066</ele>
        <time>2021-02-11T12:49:03Z</time>
      </trkpt>
      <trkpt lat="45.3316" lon="6.19313">
        <ele>2065</ele>
        <time>2021-02-11T12:49:05Z</time>
      </trkpt>
      <trkpt lat="45.33163" lon="6.19317">
        <ele>2063</ele>
        <time>2021-02-11T12:50:34Z</time>
      </trkpt>
      <trkpt lat="45.33162" lon="6.1932">
        <ele>2059</ele>
        <time>2021-02-11T12:50:36Z</time>
      </trkpt>
      <trkpt lat="45.3316" lon="6.19324">
        <ele>2058</ele>
        <time>2021-02-11T12:50:37Z</time>
      </trkpt>
      <trkpt lat="45.33115" lon="6.19373">
        <ele>2050</ele>
        <time>2021-02-11T12:50:49Z</time>
      </trkpt>
      <trkpt lat="45.33111" lon="6.19375">
        <ele>2049</ele>
        <time>2021-02-11T12:50:50Z</time>
      </trkpt>
      <trkpt lat="45.33108" lon="6.19378">
        <ele>2048</ele>
        <time>2021-02-11T12:50:51Z</time>
      </trkpt>
      <trkpt lat="45.33107" lon="6.19382">
        <ele>2047</ele>
        <time>2021-02-11T12:50:52Z</time>
      </trkpt>
      <trkpt lat="45.33107" lon="6.19384">
        <ele>2042</ele>
        <time>2021-02-11T12:50:53Z</time>
      </trkpt>
      <trkpt lat="45.33105" lon="6.19388">
        <ele>2036</ele>
        <time>2021-02-11T12:50:54Z</time>
      </trkpt>
      <trkpt lat="45.33104" lon="6.19397">
        <ele>2031</ele>
        <time>2021-02-11T12:50:56Z</time>
      </trkpt>
      <trkpt lat="45.33102" lon="6.19403">
        <ele>2028</ele>
        <time>2021-02-11T12:50:57Z</time>
      </trkpt>
      <trkpt lat="45.33101" lon="6.19419">
        <ele>2027</ele>
        <time>2021-02-11T12:50:59Z</time>
      </trkpt>
      <trkpt lat="45.33094" lon="6.19443">
        <ele>2023</ele>
        <time>2021-02-11T12:51:02Z</time>
      </trkpt>
      <trkpt lat="45.33083" lon="6.19453">
        <ele>2020</ele>
        <time>2021-02-11T12:51:04Z</time>
      </trkpt>
      <trkpt lat="45.3308" lon="6.19459">
        <ele>2019</ele>
        <time>2021-02-11T12:51:05Z</time>
      </trkpt>
      <trkpt lat="45.33075" lon="6.19509">
        <ele>2013</ele>
        <time>2021-02-11T12:51:11Z</time>
      </trkpt>
      <trkpt lat="45.33068" lon="6.19526">
        <ele>2010</ele>
        <time>2021-02-11T12:51:14Z</time>
      </trkpt>
      <trkpt lat="45.33064" lon="6.19535">
        <ele>2009</ele>
        <time>2021-02-11T12:51:16Z</time>
      </trkpt>
      <trkpt lat="45.33046" lon="6.19552">
        <ele>2007</ele>
        <time>2021-02-11T12:51:20Z</time>
      </trkpt>
      <trkpt lat="45.33043" lon="6.19556">
        <ele>2006</ele>
        <time>2021-02-11T12:51:21Z</time>
      </trkpt>
      <trkpt lat="45.33043" lon="6.19559">
        <ele>2006</ele>
        <time>2021-02-11T12:51:22Z</time>
      </trkpt>
      <trkpt lat="45.33045" lon="6.1957">
        <ele>2005</ele>
        <time>2021-02-11T12:52:23Z</time>
      </trkpt>
      <trkpt lat="45.33041" lon="6.19571">
        <ele>2005</ele>
        <time>2021-02-11T12:52:24Z</time>
      </trkpt>
      <trkpt lat="45.33038" lon="6.19572">
        <ele>2004</ele>
        <time>2021-02-11T12:52:25Z</time>
      </trkpt>
      <trkpt lat="45.33034" lon="6.19573">
        <ele>2004</ele>
        <time>2021-02-11T12:52:26Z</time>
      </trkpt>
      <trkpt lat="45.33029" lon="6.19575">
        <ele>2004</ele>
        <time>2021-02-11T12:52:27Z</time>
      </trkpt>
      <trkpt lat="45.33023" lon="6.1958">
        <ele>2003</ele>
        <time>2021-02-11T12:52:29Z</time>
      </trkpt>
      <trkpt lat="45.33021" lon="6.19584">
        <ele>2002</ele>
        <time>2021-02-11T12:52:30Z</time>
      </trkpt>
      <trkpt lat="45.33019" lon="6.19587">
        <ele>2002</ele>
        <time>2021-02-11T12:52:31Z</time>
      </trkpt>
      <trkpt lat="45.33004" lon="6.19605">
        <ele>1997</ele>
        <time>2021-02-11T12:52:36Z</time>
      </trkpt>
      <trkpt lat="45.33001" lon="6.19607">
        <ele>1996</ele>
        <time>2021-02-11T12:52:37Z</time>
      </trkpt>
      <trkpt lat="45.32997" lon="6.19611">
        <ele>1995</ele>
        <time>2021-02-11T12:52:38Z</time>
      </trkpt>
      <trkpt lat="45.3298" lon="6.19661">
        <ele>1987</ele>
        <time>2021-02-11T12:52:44Z</time>
      </trkpt>
      <trkpt lat="45.32977" lon="6.19668">
        <ele>1985</ele>
        <time>2021-02-11T12:52:45Z</time>
      </trkpt>
      <trkpt lat="45.32973" lon="6.19674">
        <ele>1984</ele>
        <time>2021-02-11T12:52:46Z</time>
      </trkpt>
      <trkpt lat="45.32967" lon="6.19683">
        <ele>1981</ele>
        <time>2021-02-11T12:52:48Z</time>
      </trkpt>
      <trkpt lat="45.32941" lon="6.1974">
        <ele>1966</ele>
        <time>2021-02-11T12:52:56Z</time>
      </trkpt>
      <trkpt lat="45.32938" lon="6.19759">
        <ele>1959</ele>
        <time>2021-02-11T12:53:03Z</time>
      </trkpt>
      <trkpt lat="45.3294" lon="6.19758">
        <ele>1959</ele>
        <time>2021-02-11T12:54:23Z</time>
      </trkpt>
      <trkpt lat="45.32936" lon="6.19767">
        <ele>1960</ele>
        <time>2021-02-11T12:55:11Z</time>
      </trkpt>
      <trkpt lat="45.32933" lon="6.1977">
        <ele>1961</ele>
        <time>2021-02-11T12:55:13Z</time>
      </trkpt>
      <trkpt lat="45.32924" lon="6.1979">
        <ele>1962</ele>
        <time>2021-02-11T12:55:16Z</time>
      </trkpt>
      <trkpt lat="45.32921" lon="6.19802">
        <ele>1961</ele>
        <time>2021-02-11T12:55:18Z</time>
      </trkpt>
      <trkpt lat="45.32919" lon="6.19808">
        <ele>1960</ele>
        <time>2021-02-11T12:55:19Z</time>
      </trkpt>
      <trkpt lat="45.32918" lon="6.19824">
        <ele>1956</ele>
        <time>2021-02-11T12:55:22Z</time>
      </trkpt>
      <trkpt lat="45.32916" lon="6.19835">
        <ele>1954</ele>
        <time>2021-02-11T12:55:24Z</time>
      </trkpt>
      <trkpt lat="45.32916" lon="6.19847">
        <ele>1950</ele>
        <time>2021-02-11T12:55:26Z</time>
      </trkpt>
      <trkpt lat="45.3291" lon="6.19873">
        <ele>1944</ele>
        <time>2021-02-11T12:55:30Z</time>
      </trkpt>
      <trkpt lat="45.32892" lon="6.19919">
        <ele>1939</ele>
        <time>2021-02-11T12:55:39Z</time>
      </trkpt>
      <trkpt lat="45.32883" lon="6.19934">
        <ele>1938</ele>
        <time>2021-02-11T12:55:45Z</time>
      </trkpt>
      <trkpt lat="45.32871" lon="6.19976">
        <ele>1928</ele>
        <time>2021-02-11T12:56:14Z</time>
      </trkpt>
      <trkpt lat="45.32869" lon="6.19983">
        <ele>1926</ele>
        <time>2021-02-11T12:56:16Z</time>
      </trkpt>
      <trkpt lat="45.32849" lon="6.20067">
        <ele>1919</ele>
        <time>2021-02-11T12:56:36Z</time>
      </trkpt>
      <trkpt lat="45.32839" lon="6.20103">
        <ele>1915</ele>
        <time>2021-02-11T12:56:46Z</time>
      </trkpt>
      <trkpt lat="45.32812" lon="6.20225">
        <ele>1905</ele>
        <time>2021-02-11T12:57:16Z</time>
      </trkpt>
      <trkpt lat="45.32807" lon="6.20248">
        <ele>1902</ele>
        <time>2021-02-11T12:57:21Z</time>
      </trkpt>
      <trkpt lat="45.32807" lon="6.20254">
        <ele>1900</ele>
        <time>2021-02-11T12:57:29Z</time>
      </trkpt>
      <trkpt lat="45.32803" lon="6.20256">
        <ele>1898</ele>
        <time>2021-02-11T12:58:20Z</time>
      </trkpt>
      <trkpt lat="45.32798" lon="6.20257">
        <ele>1896</ele>
        <time>2021-02-11T12:58:27Z</time>
      </trkpt>
      <trkpt lat="45.32799" lon="6.2026">
        <ele>1896</ele>
        <time>2021-02-11T12:58:41Z</time>
      </trkpt>
      <trkpt lat="45.32793" lon="6.20278">
        <ele>1887</ele>
        <time>2021-02-11T12:58:44Z</time>
      </trkpt>
      <trkpt lat="45.32792" lon="6.20281">
        <ele>1886</ele>
        <time>2021-02-11T12:58:45Z</time>
      </trkpt>
      <trkpt lat="45.32788" lon="6.20285">
        <ele>1885</ele>
        <time>2021-02-11T12:58:46Z</time>
      </trkpt>
      <trkpt lat="45.32782" lon="6.20297">
        <ele>1884</ele>
        <time>2021-02-11T12:58:48Z</time>
      </trkpt>
      <trkpt lat="45.32771" lon="6.2031">
        <ele>1882</ele>
        <time>2021-02-11T12:58:50Z</time>
      </trkpt>
      <trkpt lat="45.32767" lon="6.20318">
        <ele>1881</ele>
        <time>2021-02-11T12:58:51Z</time>
      </trkpt>
      <trkpt lat="45.32763" lon="6.20337">
        <ele>1880</ele>
        <time>2021-02-11T12:58:53Z</time>
      </trkpt>
      <trkpt lat="45.32757" lon="6.20389">
        <ele>1872</ele>
        <time>2021-02-11T12:58:58Z</time>
      </trkpt>
      <trkpt lat="45.32763" lon="6.20428">
        <ele>1868</ele>
        <time>2021-02-11T12:59:03Z</time>
      </trkpt>
      <trkpt lat="45.32768" lon="6.20441">
        <ele>1867</ele>
        <time>2021-02-11T12:59:07Z</time>
      </trkpt>
      <trkpt lat="45.32769" lon="6.20448">
        <ele>1866</ele>
        <time>2021-02-11T13:00:05Z</time>
      </trkpt>
      <trkpt lat="45.32775" lon="6.20499">
        <ele>1860</ele>
        <time>2021-02-11T13:00:13Z</time>
      </trkpt>
      <trkpt lat="45.32769" lon="6.206">
        <ele>1852</ele>
        <time>2021-02-11T13:00:24Z</time>
      </trkpt>
      <trkpt lat="45.32759" lon="6.20674">
        <ele>1847</ele>
        <time>2021-02-11T13:00:32Z</time>
      </trkpt>
      <trkpt lat="45.32753" lon="6.20692">
        <ele>1846</ele>
        <time>2021-02-11T13:00:34Z</time>
      </trkpt>
      <trkpt lat="45.32744" lon="6.20705">
        <ele>1844</ele>
        <time>2021-02-11T13:00:36Z</time>
      </trkpt>
      <trkpt lat="45.32739" lon="6.20715">
        <ele>1843</ele>
        <time>2021-02-11T13:00:38Z</time>
      </trkpt>
      <trkpt lat="45.32736" lon="6.20733">
        <ele>1839</ele>
        <time>2021-02-11T13:00:46Z</time>
      </trkpt>
      <trkpt lat="45.32736" lon="6.20735">
        <ele>1839</ele>
        <time>2021-02-11T13:00:47Z</time>
      </trkpt>
      <trkpt lat="45.32736" lon="6.20757">
        <ele>1835</ele>
        <time>2021-02-11T13:00:54Z</time>
      </trkpt>
      <trkpt lat="45.32736" lon="6.2076">
        <ele>1834</ele>
        <time>2021-02-11T13:00:55Z</time>
      </trkpt>
      <trkpt lat="45.32738" lon="6.2078">
        <ele>1830</ele>
        <time>2021-02-11T13:01:00Z</time>
      </trkpt>
      <trkpt lat="45.32738" lon="6.20785">
        <ele>1830</ele>
        <time>2021-02-11T13:01:01Z</time>
      </trkpt>
      <trkpt lat="45.32733" lon="6.20795">
        <ele>1829</ele>
        <time>2021-02-11T13:01:03Z</time>
      </trkpt>
      <trkpt lat="45.32729" lon="6.20801">
        <ele>1829</ele>
        <time>2021-02-11T13:01:04Z</time>
      </trkpt>
      <trkpt lat="45.32726" lon="6.20806">
        <ele>1828</ele>
        <time>2021-02-11T13:01:05Z</time>
      </trkpt>
      <trkpt lat="45.32724" lon="6.20814">
        <ele>1827</ele>
        <time>2021-02-11T13:01:06Z</time>
      </trkpt>
      <trkpt lat="45.32733" lon="6.20862">
        <ele>1820</ele>
        <time>2021-02-11T13:01:12Z</time>
      </trkpt>
      <trkpt lat="45.32733" lon="6.20889">
        <ele>1817</ele>
        <time>2021-02-11T13:01:15Z</time>
      </trkpt>
      <trkpt lat="45.3273" lon="6.20897">
        <ele>1816</ele>
        <time>2021-02-11T13:01:16Z</time>
      </trkpt>
      <trkpt lat="45.3272" lon="6.20914">
        <ele>1814</ele>
        <time>2021-02-11T13:01:19Z</time>
      </trkpt>
      <trkpt lat="45.32713" lon="6.20924">
        <ele>1813</ele>
        <time>2021-02-11T13:01:21Z</time>
      </trkpt>
      <trkpt lat="45.32673" lon="6.21051">
        <ele>1814</ele>
        <time>2021-02-11T13:01:48Z</time>
      </trkpt>
      <trkpt lat="45.32671" lon="6.21062">
        <ele>1812</ele>
        <time>2021-02-11T13:01:51Z</time>
      </trkpt>
      <trkpt lat="45.3267" lon="6.21078">
        <ele>1810</ele>
        <time>2021-02-11T13:01:57Z</time>
      </trkpt>
      <trkpt lat="45.32673" lon="6.21076">
        <ele>1809</ele>
        <time>2021-02-11T13:02:31Z</time>
      </trkpt>
      <trkpt lat="45.32664" lon="6.2108">
        <ele>1811</ele>
        <time>2021-02-11T13:04:26Z</time>
      </trkpt>
      <trkpt lat="45.32663" lon="6.2109">
        <ele>1810</ele>
        <time>2021-02-11T13:04:28Z</time>
      </trkpt>
      <trkpt lat="45.32663" lon="6.21117">
        <ele>1806</ele>
        <time>2021-02-11T13:04:33Z</time>
      </trkpt>
      <trkpt lat="45.32664" lon="6.21128">
        <ele>1804</ele>
        <time>2021-02-11T13:04:35Z</time>
      </trkpt>
      <trkpt lat="45.32668" lon="6.21146">
        <ele>1803</ele>
        <time>2021-02-11T13:04:39Z</time>
      </trkpt>
      <trkpt lat="45.32673" lon="6.21196">
        <ele>1800</ele>
        <time>2021-02-11T13:04:52Z</time>
      </trkpt>
      <trkpt lat="45.32672" lon="6.21206">
        <ele>1800</ele>
        <time>2021-02-11T13:04:55Z</time>
      </trkpt>
      <trkpt lat="45.32673" lon="6.21213">
        <ele>1799</ele>
        <time>2021-02-11T13:04:57Z</time>
      </trkpt>
      <trkpt lat="45.32673" lon="6.21217">
        <ele>1798</ele>
        <time>2021-02-11T13:04:58Z</time>
      </trkpt>
      <trkpt lat="45.32669" lon="6.21224">
        <ele>1796</ele>
        <time>2021-02-11T13:05:00Z</time>
      </trkpt>
      <trkpt lat="45.32669" lon="6.2123">
        <ele>1795</ele>
        <time>2021-02-11T13:05:01Z</time>
      </trkpt>
      <trkpt lat="45.32665" lon="6.21239">
        <ele>1792</ele>
        <time>2021-02-11T13:05:03Z</time>
      </trkpt>
      <trkpt lat="45.32662" lon="6.21251">
        <ele>1790</ele>
        <time>2021-02-11T13:05:05Z</time>
      </trkpt>
      <trkpt lat="45.32665" lon="6.21298">
        <ele>1779</ele>
        <time>2021-02-11T13:05:12Z</time>
      </trkpt>
      <trkpt lat="45.32668" lon="6.21311">
        <ele>1776</ele>
        <time>2021-02-11T13:05:14Z</time>
      </trkpt>
      <trkpt lat="45.3267" lon="6.21317">
        <ele>1774</ele>
        <time>2021-02-11T13:05:15Z</time>
      </trkpt>
      <trkpt lat="45.32672" lon="6.21322">
        <ele>1773</ele>
        <time>2021-02-11T13:05:16Z</time>
      </trkpt>
      <trkpt lat="45.32673" lon="6.21328">
        <ele>1772</ele>
        <time>2021-02-11T13:05:17Z</time>
      </trkpt>
      <trkpt lat="45.32672" lon="6.21336">
        <ele>1771</ele>
        <time>2021-02-11T13:05:18Z</time>
      </trkpt>
      <trkpt lat="45.32631" lon="6.21423">
        <ele>1758</ele>
        <time>2021-02-11T13:05:31Z</time>
      </trkpt>
      <trkpt lat="45.32628" lon="6.21433">
        <ele>1757</ele>
        <time>2021-02-11T13:05:33Z</time>
      </trkpt>
      <trkpt lat="45.32623" lon="6.21445">
        <ele>1756</ele>
        <time>2021-02-11T13:05:36Z</time>
      </trkpt>
      <trkpt lat="45.32615" lon="6.21474">
        <ele>1757</ele>
        <time>2021-02-11T13:05:42Z</time>
      </trkpt>
      <trkpt lat="45.32613" lon="6.21494">
        <ele>1755</ele>
        <time>2021-02-11T13:05:47Z</time>
      </trkpt>
      <trkpt lat="45.32603" lon="6.21527">
        <ele>1751</ele>
        <time>2021-02-11T13:05:56Z</time>
      </trkpt>
      <trkpt lat="45.326" lon="6.21577">
        <ele>1743</ele>
        <time>2021-02-11T13:06:10Z</time>
      </trkpt>
      <trkpt lat="45.326" lon="6.21592">
        <ele>1743</ele>
        <time>2021-02-11T13:06:15Z</time>
      </trkpt>
      <trkpt lat="45.32599" lon="6.21595">
        <ele>1742</ele>
        <time>2021-02-11T13:06:16Z</time>
      </trkpt>
      <trkpt lat="45.32599" lon="6.21602">
        <ele>1742</ele>
        <time>2021-02-11T13:06:18Z</time>
      </trkpt>
      <trkpt lat="45.32596" lon="6.21619">
        <ele>1743</ele>
        <time>2021-02-11T13:06:25Z</time>
      </trkpt>
      <trkpt lat="45.32593" lon="6.21627">
        <ele>1743</ele>
        <time>2021-02-11T13:07:22Z</time>
      </trkpt>
      <trkpt lat="45.32591" lon="6.21622">
        <ele>1742</ele>
        <time>2021-02-11T13:07:24Z</time>
      </trkpt>
      <trkpt lat="45.32591" lon="6.21619">
        <ele>1742</ele>
        <time>2021-02-11T13:07:25Z</time>
      </trkpt>
      <trkpt lat="45.32589" lon="6.21618">
        <ele>1742</ele>
        <time>2021-02-11T13:07:26Z</time>
      </trkpt>
      <trkpt lat="45.32586" lon="6.21618">
        <ele>1742</ele>
        <time>2021-02-11T13:07:27Z</time>
      </trkpt>
      <trkpt lat="45.32583" lon="6.21621">
        <ele>1742</ele>
        <time>2021-02-11T13:07:28Z</time>
      </trkpt>
      <trkpt lat="45.32581" lon="6.21626">
        <ele>1741</ele>
        <time>2021-02-11T13:07:29Z</time>
      </trkpt>
      <trkpt lat="45.32578" lon="6.21633">
        <ele>1740</ele>
        <time>2021-02-11T13:07:30Z</time>
      </trkpt>
      <trkpt lat="45.32577" lon="6.21652">
        <ele>1737</ele>
        <time>2021-02-11T13:07:33Z</time>
      </trkpt>
      <trkpt lat="45.32562" lon="6.217">
        <ele>1728</ele>
        <time>2021-02-11T13:07:42Z</time>
      </trkpt>
      <trkpt lat="45.32566" lon="6.21738">
        <ele>1722</ele>
        <time>2021-02-11T13:07:53Z</time>
      </trkpt>
      <trkpt lat="45.32562" lon="6.21745">
        <ele>1723</ele>
        <time>2021-02-11T13:08:45Z</time>
      </trkpt>
      <trkpt lat="45.32557" lon="6.21782">
        <ele>1721</ele>
        <time>2021-02-11T13:08:51Z</time>
      </trkpt>
      <trkpt lat="45.32546" lon="6.21923">
        <ele>1706</ele>
        <time>2021-02-11T13:09:12Z</time>
      </trkpt>
      <trkpt lat="45.32539" lon="6.21955">
        <ele>1703</ele>
        <time>2021-02-11T13:09:16Z</time>
      </trkpt>
      <trkpt lat="45.32527" lon="6.21986">
        <ele>1702</ele>
        <time>2021-02-11T13:09:23Z</time>
      </trkpt>
      <trkpt lat="45.32513" lon="6.22062">
        <ele>1701</ele>
        <time>2021-02-11T13:09:42Z</time>
      </trkpt>
      <trkpt lat="45.32512" lon="6.22065">
        <ele>1701</ele>
        <time>2021-02-11T13:09:44Z</time>
      </trkpt>
      <trkpt lat="45.325" lon="6.22073">
        <ele>1702</ele>
        <time>2021-02-11T13:09:50Z</time>
      </trkpt>
      <trkpt lat="45.32497" lon="6.22075">
        <ele>1702</ele>
        <time>2021-02-11T13:09:51Z</time>
      </trkpt>
      <trkpt lat="45.32487" lon="6.22095">
        <ele>1700</ele>
        <time>2021-02-11T13:09:57Z</time>
      </trkpt>
      <trkpt lat="45.32486" lon="6.22104">
        <ele>1698</ele>
        <time>2021-02-11T13:11:37Z</time>
      </trkpt>
      <trkpt lat="45.32486" lon="6.22111">
        <ele>1698</ele>
        <time>2021-02-11T13:11:38Z</time>
      </trkpt>
      <trkpt lat="45.32486" lon="6.22118">
        <ele>1697</ele>
        <time>2021-02-11T13:11:39Z</time>
      </trkpt>
      <trkpt lat="45.32487" lon="6.22138">
        <ele>1694</ele>
        <time>2021-02-11T13:11:42Z</time>
      </trkpt>
      <trkpt lat="45.32485" lon="6.22151">
        <ele>1691</ele>
        <time>2021-02-11T13:11:44Z</time>
      </trkpt>
      <trkpt lat="45.32484" lon="6.22164">
        <ele>1688</ele>
        <time>2021-02-11T13:11:46Z</time>
      </trkpt>
      <trkpt lat="45.32483" lon="6.22171">
        <ele>1687</ele>
        <time>2021-02-11T13:11:47Z</time>
      </trkpt>
      <trkpt lat="45.32483" lon="6.22186">
        <ele>1683</ele>
        <time>2021-02-11T13:11:49Z</time>
      </trkpt>
      <trkpt lat="45.32479" lon="6.22207">
        <ele>1679</ele>
        <time>2021-02-11T13:11:52Z</time>
      </trkpt>
      <trkpt lat="45.32478" lon="6.22215">
        <ele>1678</ele>
        <time>2021-02-11T13:11:53Z</time>
      </trkpt>
      <trkpt lat="45.3248" lon="6.22229">
        <ele>1676</ele>
        <time>2021-02-11T13:11:55Z</time>
      </trkpt>
      <trkpt lat="45.32481" lon="6.22265">
        <ele>1673</ele>
        <time>2021-02-11T13:12:26Z</time>
      </trkpt>
      <trkpt lat="45.32479" lon="6.22284">
        <ele>1672</ele>
        <time>2021-02-11T13:12:29Z</time>
      </trkpt>
      <trkpt lat="45.32477" lon="6.2229">
        <ele>1670</ele>
        <time>2021-02-11T13:12:30Z</time>
      </trkpt>
      <trkpt lat="45.32484" lon="6.22314">
        <ele>1664</ele>
        <time>2021-02-11T13:12:38Z</time>
      </trkpt>
      <trkpt lat="45.32485" lon="6.22322">
        <ele>1662</ele>
        <time>2021-02-11T13:12:40Z</time>
      </trkpt>
      <trkpt lat="45.32485" lon="6.22327">
        <ele>1661</ele>
        <time>2021-02-11T13:12:41Z</time>
      </trkpt>
      <trkpt lat="45.32483" lon="6.22332">
        <ele>1660</ele>
        <time>2021-02-11T13:12:43Z</time>
      </trkpt>
      <trkpt lat="45.32479" lon="6.22334">
        <ele>1660</ele>
        <time>2021-02-11T13:12:48Z</time>
      </trkpt>
      <trkpt lat="45.32475" lon="6.22333">
        <ele>1659</ele>
        <time>2021-02-11T13:12:52Z</time>
      </trkpt>
      <trkpt lat="45.32471" lon="6.22333">
        <ele>1658</ele>
        <time>2021-02-11T13:12:54Z</time>
      </trkpt>
      <trkpt lat="45.32453" lon="6.22344">
        <ele>1656</ele>
        <time>2021-02-11T13:13:02Z</time>
      </trkpt>
      <trkpt lat="45.32446" lon="6.2235">
        <ele>1656</ele>
        <time>2021-02-11T13:13:05Z</time>
      </trkpt>
      <trkpt lat="45.32438" lon="6.22369">
        <ele>1654</ele>
        <time>2021-02-11T13:13:10Z</time>
      </trkpt>
      <trkpt lat="45.32432" lon="6.22376">
        <ele>1653</ele>
        <time>2021-02-11T13:13:12Z</time>
      </trkpt>
      <trkpt lat="45.32427" lon="6.2238">
        <ele>1651</ele>
        <time>2021-02-11T13:13:14Z</time>
      </trkpt>
      <trkpt lat="45.32416" lon="6.22385">
        <ele>1650</ele>
        <time>2021-02-11T13:13:20Z</time>
      </trkpt>
      <trkpt lat="45.32414" lon="6.22389">
        <ele>1650</ele>
        <time>2021-02-11T13:13:22Z</time>
      </trkpt>
      <trkpt lat="45.32412" lon="6.22393">
        <ele>1650</ele>
        <time>2021-02-11T13:13:24Z</time>
      </trkpt>
      <trkpt lat="45.32413" lon="6.22395">
        <ele>1650</ele>
        <time>2021-02-11T13:13:26Z</time>
      </trkpt>
      <trkpt lat="45.32421" lon="6.22401">
        <ele>1649</ele>
        <time>2021-02-11T13:13:30Z</time>
      </trkpt>
      <trkpt lat="45.32436" lon="6.22401">
        <ele>1647</ele>
        <time>2021-02-11T13:13:38Z</time>
      </trkpt>
      <trkpt lat="45.3244" lon="6.22402">
        <ele>1647</ele>
        <time>2021-02-11T13:13:40Z</time>
      </trkpt>
      <trkpt lat="45.32441" lon="6.22402">
        <ele>1647</ele>
        <time>2021-02-11T13:13:41Z</time>
      </trkpt>
      <trkpt lat="45.32442" lon="6.22405">
        <ele>1648</ele>
        <time>2021-02-11T13:13:42Z</time>
      </trkpt>
      <trkpt lat="45.32442" lon="6.22409">
        <ele>1648</ele>
        <time>2021-02-11T13:13:43Z</time>
      </trkpt>
      <trkpt lat="45.32439" lon="6.22418">
        <ele>1647</ele>
        <time>2021-02-11T13:13:45Z</time>
      </trkpt>
      <trkpt lat="45.32434" lon="6.22425">
        <ele>1646</ele>
        <time>2021-02-11T13:13:47Z</time>
      </trkpt>
      <trkpt lat="45.32422" lon="6.22431">
        <ele>1642</ele>
        <time>2021-02-11T13:13:55Z</time>
      </trkpt>
      <trkpt lat="45.32421" lon="6.22443">
        <ele>1644</ele>
        <time>2021-02-11T13:14:09Z</time>
      </trkpt>
      <trkpt lat="45.32432" lon="6.22447">
        <ele>1643</ele>
        <time>2021-02-11T13:14:13Z</time>
      </trkpt>
      <trkpt lat="45.32425" lon="6.22457">
        <ele>1639</ele>
        <time>2021-02-11T13:15:40Z</time>
      </trkpt>
      <trkpt lat="45.32422" lon="6.22465">
        <ele>1637</ele>
        <time>2021-02-11T13:15:42Z</time>
      </trkpt>
      <trkpt lat="45.32417" lon="6.22468">
        <ele>1635</ele>
        <time>2021-02-11T13:15:44Z</time>
      </trkpt>
      <trkpt lat="45.32415" lon="6.2247">
        <ele>1634</ele>
        <time>2021-02-11T13:15:45Z</time>
      </trkpt>
      <trkpt lat="45.32412" lon="6.22475">
        <ele>1632</ele>
        <time>2021-02-11T13:15:47Z</time>
      </trkpt>
      <trkpt lat="45.3241" lon="6.22477">
        <ele>1630</ele>
        <time>2021-02-11T13:15:48Z</time>
      </trkpt>
      <trkpt lat="45.32407" lon="6.22478">
        <ele>1629</ele>
        <time>2021-02-11T13:15:50Z</time>
      </trkpt>
      <trkpt lat="45.32404" lon="6.22486">
        <ele>1625</ele>
        <time>2021-02-11T13:15:53Z</time>
      </trkpt>
      <trkpt lat="45.324" lon="6.22495">
        <ele>1623</ele>
        <time>2021-02-11T13:15:55Z</time>
      </trkpt>
      <trkpt lat="45.32398" lon="6.22521">
        <ele>1624</ele>
        <time>2021-02-11T13:16:13Z</time>
      </trkpt>
      <trkpt lat="45.32398" lon="6.22523">
        <ele>1625</ele>
        <time>2021-02-11T13:16:30Z</time>
      </trkpt>
      <trkpt lat="45.32404" lon="6.22522">
        <ele>1624</ele>
        <time>2021-02-11T13:16:32Z</time>
      </trkpt>
      <trkpt lat="45.32408" lon="6.22521">
        <ele>1623</ele>
        <time>2021-02-11T13:16:33Z</time>
      </trkpt>
      <trkpt lat="45.32421" lon="6.22514">
        <ele>1621</ele>
        <time>2021-02-11T13:16:38Z</time>
      </trkpt>
      <trkpt lat="45.32427" lon="6.22511">
        <ele>1618</ele>
        <time>2021-02-11T13:16:42Z</time>
      </trkpt>
      <trkpt lat="45.32437" lon="6.22514">
        <ele>1618</ele>
        <time>2021-02-11T13:16:57Z</time>
      </trkpt>
      <trkpt lat="45.32442" lon="6.22513">
        <ele>1618</ele>
        <time>2021-02-11T13:16:59Z</time>
      </trkpt>
      <trkpt lat="45.32444" lon="6.22514">
        <ele>1618</ele>
        <time>2021-02-11T13:17:00Z</time>
      </trkpt>
      <trkpt lat="45.32448" lon="6.22514">
        <ele>1618</ele>
        <time>2021-02-11T13:17:02Z</time>
      </trkpt>
      <trkpt lat="45.3245" lon="6.22512">
        <ele>1617</ele>
        <time>2021-02-11T13:17:04Z</time>
      </trkpt>
      <trkpt lat="45.32456" lon="6.22514">
        <ele>1617</ele>
        <time>2021-02-11T13:17:08Z</time>
      </trkpt>
      <trkpt lat="45.32459" lon="6.22512">
        <ele>1617</ele>
        <time>2021-02-11T13:17:10Z</time>
      </trkpt>
      <trkpt lat="45.32467" lon="6.22516">
        <ele>1618</ele>
        <time>2021-02-11T13:17:13Z</time>
      </trkpt>
      <trkpt lat="45.32472" lon="6.22517">
        <ele>1618</ele>
        <time>2021-02-11T13:17:15Z</time>
      </trkpt>
      <trkpt lat="45.32468" lon="6.22523">
        <ele>1614</ele>
        <time>2021-02-11T13:17:17Z</time>
      </trkpt>
      <trkpt lat="45.32461" lon="6.22531">
        <ele>1611</ele>
        <time>2021-02-11T13:17:19Z</time>
      </trkpt>
      <trkpt lat="45.32452" lon="6.22545">
        <ele>1609</ele>
        <time>2021-02-11T13:17:22Z</time>
      </trkpt>
      <trkpt lat="45.32452" lon="6.22547">
        <ele>1608</ele>
        <time>2021-02-11T13:17:24Z</time>
      </trkpt>
      <trkpt lat="45.3245" lon="6.22556">
        <ele>1609</ele>
        <time>2021-02-11T13:17:40Z</time>
      </trkpt>
      <trkpt lat="45.32445" lon="6.2256">
        <ele>1609</ele>
        <time>2021-02-11T13:17:43Z</time>
      </trkpt>
      <trkpt lat="45.32422" lon="6.22583">
        <ele>1603</ele>
        <time>2021-02-11T13:17:53Z</time>
      </trkpt>
      <trkpt lat="45.32418" lon="6.22587">
        <ele>1601</ele>
        <time>2021-02-11T13:17:55Z</time>
      </trkpt>
      <trkpt lat="45.32413" lon="6.2259">
        <ele>1598</ele>
        <time>2021-02-11T13:17:58Z</time>
      </trkpt>
      <trkpt lat="45.32404" lon="6.226">
        <ele>1597</ele>
        <time>2021-02-11T13:18:02Z</time>
      </trkpt>
      <trkpt lat="45.32398" lon="6.2261">
        <ele>1595</ele>
        <time>2021-02-11T13:18:05Z</time>
      </trkpt>
      <trkpt lat="45.32384" lon="6.22625">
        <ele>1591</ele>
        <time>2021-02-11T13:18:10Z</time>
      </trkpt>
      <trkpt lat="45.32367" lon="6.2264">
        <ele>1587</ele>
        <time>2021-02-11T13:18:14Z</time>
      </trkpt>
      <trkpt lat="45.32358" lon="6.2265">
        <ele>1585</ele>
        <time>2021-02-11T13:18:16Z</time>
      </trkpt>
      <trkpt lat="45.32355" lon="6.22656">
        <ele>1584</ele>
        <time>2021-02-11T13:18:17Z</time>
      </trkpt>
      <trkpt lat="45.32349" lon="6.22678">
        <ele>1581</ele>
        <time>2021-02-11T13:18:21Z</time>
      </trkpt>
      <trkpt lat="45.32348" lon="6.22684">
        <ele>1580</ele>
        <time>2021-02-11T13:18:23Z</time>
      </trkpt>
      <trkpt lat="45.3235" lon="6.22688">
        <ele>1582</ele>
        <time>2021-02-11T13:18:25Z</time>
      </trkpt>
      <trkpt lat="45.32348" lon="6.22699">
        <ele>1584</ele>
        <time>2021-02-11T13:19:04Z</time>
      </trkpt>
      <trkpt lat="45.32348" lon="6.22702">
        <ele>1585</ele>
        <time>2021-02-11T13:19:06Z</time>
      </trkpt>
      <trkpt lat="45.32349" lon="6.22704">
        <ele>1585</ele>
        <time>2021-02-11T13:19:08Z</time>
      </trkpt>
      <trkpt lat="45.3235" lon="6.22738">
        <ele>1580</ele>
        <time>2021-02-11T13:19:15Z</time>
      </trkpt>
      <trkpt lat="45.32377" lon="6.229">
        <ele>1553</ele>
        <time>2021-02-11T13:19:45Z</time>
      </trkpt>
      <trkpt lat="45.32377" lon="6.22948">
        <ele>1550</ele>
        <time>2021-02-11T13:19:55Z</time>
      </trkpt>
      <trkpt lat="45.32378" lon="6.22952">
        <ele>1549</ele>
        <time>2021-02-11T13:19:56Z</time>
      </trkpt>
      <trkpt lat="45.3238" lon="6.22955">
        <ele>1549</ele>
        <time>2021-02-11T13:19:57Z</time>
      </trkpt>
      <trkpt lat="45.32381" lon="6.22956">
        <ele>1549</ele>
        <time>2021-02-11T13:19:58Z</time>
      </trkpt>
      <trkpt lat="45.32383" lon="6.22955">
        <ele>1549</ele>
        <time>2021-02-11T13:20:00Z</time>
      </trkpt>
      <trkpt lat="45.32383" lon="6.22952">
        <ele>1548</ele>
        <time>2021-02-11T13:20:03Z</time>
      </trkpt>
      <trkpt lat="45.32385" lon="6.22929">
        <ele>1547</ele>
        <time>2021-02-11T13:20:11Z</time>
      </trkpt>
      <trkpt lat="45.32391" lon="6.22918">
        <ele>1544</ele>
        <time>2021-02-11T13:20:13Z</time>
      </trkpt>
      <trkpt lat="45.32392" lon="6.22907">
        <ele>1542</ele>
        <time>2021-02-11T13:20:16Z</time>
      </trkpt>
      <trkpt lat="45.32392" lon="6.22902">
        <ele>1541</ele>
        <time>2021-02-11T13:20:17Z</time>
      </trkpt>
      <trkpt lat="45.32394" lon="6.22893">
        <ele>1539</ele>
        <time>2021-02-11T13:20:19Z</time>
      </trkpt>
      <trkpt lat="45.32396" lon="6.22885">
        <ele>1537</ele>
        <time>2021-02-11T13:20:21Z</time>
      </trkpt>
      <trkpt lat="45.32395" lon="6.22859">
        <ele>1533</ele>
        <time>2021-02-11T13:20:28Z</time>
      </trkpt>
      <trkpt lat="45.32395" lon="6.22855">
        <ele>1532</ele>
        <time>2021-02-11T13:20:29Z</time>
      </trkpt>
      <trkpt lat="45.32397" lon="6.22851">
        <ele>1532</ele>
        <time>2021-02-11T13:20:30Z</time>
      </trkpt>
      <trkpt lat="45.32399" lon="6.22842">
        <ele>1530</ele>
        <time>2021-02-11T13:20:33Z</time>
      </trkpt>
      <trkpt lat="45.32407" lon="6.22813">
        <ele>1526</ele>
        <time>2021-02-11T13:20:45Z</time>
      </trkpt>
      <trkpt lat="45.32407" lon="6.2281">
        <ele>1525</ele>
        <time>2021-02-11T13:20:46Z</time>
      </trkpt>
      <trkpt lat="45.32407" lon="6.22806">
        <ele>1525</ele>
        <time>2021-02-11T13:20:47Z</time>
      </trkpt>
      <trkpt lat="45.32406" lon="6.22802">
        <ele>1525</ele>
        <time>2021-02-11T13:20:48Z</time>
      </trkpt>
      <trkpt lat="45.32404" lon="6.22799">
        <ele>1527</ele>
        <time>2021-02-11T13:20:49Z</time>
      </trkpt>
      <trkpt lat="45.32403" lon="6.22796">
        <ele>1528</ele>
        <time>2021-02-11T13:20:50Z</time>
      </trkpt>
      <trkpt lat="45.32402" lon="6.22793">
        <ele>1529</ele>
        <time>2021-02-11T13:20:51Z</time>
      </trkpt>
      <trkpt lat="45.32402" lon="6.2279">
        <ele>1529</ele>
        <time>2021-02-11T13:20:52Z</time>
      </trkpt>
      <trkpt lat="45.32406" lon="6.2278">
        <ele>1528</ele>
        <time>2021-02-11T13:20:55Z</time>
      </trkpt>
      <trkpt lat="45.32408" lon="6.22777">
        <ele>1528</ele>
        <time>2021-02-11T13:20:56Z</time>
      </trkpt>
      <trkpt lat="45.32413" lon="6.2277">
        <ele>1527</ele>
        <time>2021-02-11T13:20:59Z</time>
      </trkpt>
      <trkpt lat="45.32416" lon="6.2277">
        <ele>1526</ele>
        <time>2021-02-11T13:21:01Z</time>
      </trkpt>
      <trkpt lat="45.32418" lon="6.22772">
        <ele>1525</ele>
        <time>2021-02-11T13:21:03Z</time>
      </trkpt>
      <trkpt lat="45.32424" lon="6.22781">
        <ele>1525</ele>
        <time>2021-02-11T13:21:07Z</time>
      </trkpt>
      <trkpt lat="45.32425" lon="6.22781">
        <ele>1525</ele>
        <time>2021-02-11T13:21:08Z</time>
      </trkpt>
      <trkpt lat="45.32433" lon="6.22777">
        <ele>1526</ele>
        <time>2021-02-11T13:21:11Z</time>
      </trkpt>
      <trkpt lat="45.32436" lon="6.22775">
        <ele>1526</ele>
        <time>2021-02-11T13:21:12Z</time>
      </trkpt>
      <trkpt lat="45.32438" lon="6.22773">
        <ele>1526</ele>
        <time>2021-02-11T13:21:13Z</time>
      </trkpt>
      <trkpt lat="45.32441" lon="6.22772">
        <ele>1523</ele>
        <time>2021-02-11T13:21:14Z</time>
      </trkpt>
      <trkpt lat="45.32443" lon="6.22773">
        <ele>1521</ele>
        <time>2021-02-11T13:21:17Z</time>
      </trkpt>
      <trkpt lat="45.32443" lon="6.22784">
        <ele>1520</ele>
        <time>2021-02-11T13:21:49Z</time>
      </trkpt>
      <trkpt lat="45.3244" lon="6.22815">
        <ele>1519</ele>
        <time>2021-02-11T13:21:57Z</time>
      </trkpt>
      <trkpt lat="45.32441" lon="6.22826">
        <ele>1519</ele>
        <time>2021-02-11T13:21:59Z</time>
      </trkpt>
      <trkpt lat="45.32448" lon="6.22849">
        <ele>1515</ele>
        <time>2021-02-11T13:22:04Z</time>
      </trkpt>
      <trkpt lat="45.32456" lon="6.22954">
        <ele>1495</ele>
        <time>2021-02-11T13:22:19Z</time>
      </trkpt>
      <trkpt lat="45.32459" lon="6.2297">
        <ele>1493</ele>
        <time>2021-02-11T13:22:21Z</time>
      </trkpt>
      <trkpt lat="45.32461" lon="6.22992">
        <ele>1491</ele>
        <time>2021-02-11T13:22:24Z</time>
      </trkpt>
      <trkpt lat="45.32462" lon="6.22997">
        <ele>1490</ele>
        <time>2021-02-11T13:22:25Z</time>
      </trkpt>
      <trkpt lat="45.32465" lon="6.23027">
        <ele>1486</ele>
        <time>2021-02-11T13:22:30Z</time>
      </trkpt>
      <trkpt lat="45.32471" lon="6.23014">
        <ele>1485</ele>
        <time>2021-02-11T13:22:35Z</time>
      </trkpt>
      <trkpt lat="45.32472" lon="6.23008">
        <ele>1486</ele>
        <time>2021-02-11T13:22:37Z</time>
      </trkpt>
      <trkpt lat="45.32473" lon="6.23004">
        <ele>1486</ele>
        <time>2021-02-11T13:22:38Z</time>
      </trkpt>
      <trkpt lat="45.32475" lon="6.23002">
        <ele>1487</ele>
        <time>2021-02-11T13:22:39Z</time>
      </trkpt>
      <trkpt lat="45.32481" lon="6.23001">
        <ele>1488</ele>
        <time>2021-02-11T13:22:41Z</time>
      </trkpt>
      <trkpt lat="45.32487" lon="6.23003">
        <ele>1489</ele>
        <time>2021-02-11T13:22:44Z</time>
      </trkpt>
      <trkpt lat="45.3251" lon="6.23035">
        <ele>1486</ele>
        <time>2021-02-11T13:23:04Z</time>
      </trkpt>
      <trkpt lat="45.32525" lon="6.23073">
        <ele>1482</ele>
        <time>2021-02-11T13:23:11Z</time>
      </trkpt>
      <trkpt lat="45.32533" lon="6.23105">
        <ele>1477</ele>
        <time>2021-02-11T13:23:15Z</time>
      </trkpt>
      <trkpt lat="45.32546" lon="6.23146">
        <ele>1471</ele>
        <time>2021-02-11T13:23:20Z</time>
      </trkpt>
      <trkpt lat="45.32547" lon="6.23159">
        <ele>1470</ele>
        <time>2021-02-11T13:23:22Z</time>
      </trkpt>
      <trkpt lat="45.32543" lon="6.2316">
        <ele>1469</ele>
        <time>2021-02-11T13:23:23Z</time>
      </trkpt>
      <trkpt lat="45.32535" lon="6.23155">
        <ele>1467</ele>
        <time>2021-02-11T13:23:25Z</time>
      </trkpt>
      <trkpt lat="45.32531" lon="6.23155">
        <ele>1466</ele>
        <time>2021-02-11T13:23:26Z</time>
      </trkpt>
      <trkpt lat="45.32527" lon="6.23157">
        <ele>1465</ele>
        <time>2021-02-11T13:23:27Z</time>
      </trkpt>
      <trkpt lat="45.32526" lon="6.2316">
        <ele>1464</ele>
        <time>2021-02-11T13:23:28Z</time>
      </trkpt>
      <trkpt lat="45.32526" lon="6.23162">
        <ele>1464</ele>
        <time>2021-02-11T13:23:29Z</time>
      </trkpt>
      <trkpt lat="45.32528" lon="6.23167">
        <ele>1462</ele>
        <time>2021-02-11T13:23:31Z</time>
      </trkpt>
      <trkpt lat="45.32531" lon="6.23172">
        <ele>1461</ele>
        <time>2021-02-11T13:23:35Z</time>
      </trkpt>
      <trkpt lat="45.32541" lon="6.2319">
        <ele>1460</ele>
        <time>2021-02-11T13:23:49Z</time>
      </trkpt>
      <trkpt lat="45.32545" lon="6.232">
        <ele>1461</ele>
        <time>2021-02-11T13:23:51Z</time>
      </trkpt>
      <trkpt lat="45.32553" lon="6.23202">
        <ele>1462</ele>
        <time>2021-02-11T13:25:08Z</time>
      </trkpt>
      <trkpt lat="45.32556" lon="6.23208">
        <ele>1462</ele>
        <time>2021-02-11T13:25:10Z</time>
      </trkpt>
      <trkpt lat="45.32559" lon="6.23215">
        <ele>1461</ele>
        <time>2021-02-11T13:25:12Z</time>
      </trkpt>
      <trkpt lat="45.32568" lon="6.23237">
        <ele>1457</ele>
        <time>2021-02-11T13:25:17Z</time>
      </trkpt>
      <trkpt lat="45.32571" lon="6.2325">
        <ele>1455</ele>
        <time>2021-02-11T13:25:19Z</time>
      </trkpt>
      <trkpt lat="45.32572" lon="6.23259">
        <ele>1455</ele>
        <time>2021-02-11T13:25:20Z</time>
      </trkpt>
      <trkpt lat="45.3257" lon="6.23265">
        <ele>1454</ele>
        <time>2021-02-11T13:25:21Z</time>
      </trkpt>
      <trkpt lat="45.3257" lon="6.23269">
        <ele>1453</ele>
        <time>2021-02-11T13:25:22Z</time>
      </trkpt>
      <trkpt lat="45.32569" lon="6.23273">
        <ele>1452</ele>
        <time>2021-02-11T13:25:23Z</time>
      </trkpt>
      <trkpt lat="45.32566" lon="6.23299">
        <ele>1445</ele>
        <time>2021-02-11T13:25:28Z</time>
      </trkpt>
      <trkpt lat="45.32564" lon="6.23303">
        <ele>1444</ele>
        <time>2021-02-11T13:25:29Z</time>
      </trkpt>
      <trkpt lat="45.32564" lon="6.23305">
        <ele>1442</ele>
        <time>2021-02-11T13:25:30Z</time>
      </trkpt>
      <trkpt lat="45.32555" lon="6.23303">
        <ele>1446</ele>
        <time>2021-02-11T13:26:02Z</time>
      </trkpt>
      <trkpt lat="45.32555" lon="6.23313">
        <ele>1450</ele>
        <time>2021-02-11T13:26:41Z</time>
      </trkpt>
      <trkpt lat="45.32558" lon="6.23319">
        <ele>1449</ele>
        <time>2021-02-11T13:26:43Z</time>
      </trkpt>
      <trkpt lat="45.32558" lon="6.23322">
        <ele>1448</ele>
        <time>2021-02-11T13:26:44Z</time>
      </trkpt>
      <trkpt lat="45.32556" lon="6.23324">
        <ele>1447</ele>
        <time>2021-02-11T13:26:45Z</time>
      </trkpt>
      <trkpt lat="45.32557" lon="6.23327">
        <ele>1445</ele>
        <time>2021-02-11T13:26:47Z</time>
      </trkpt>
      <trkpt lat="45.32553" lon="6.2334">
        <ele>1441</ele>
        <time>2021-02-11T13:27:16Z</time>
      </trkpt>
      <trkpt lat="45.3255" lon="6.23343">
        <ele>1440</ele>
        <time>2021-02-11T13:27:17Z</time>
      </trkpt>
      <trkpt lat="45.32551" lon="6.2335">
        <ele>1437</ele>
        <time>2021-02-11T13:27:18Z</time>
      </trkpt>
      <trkpt lat="45.32544" lon="6.23365">
        <ele>1432</ele>
        <time>2021-02-11T13:27:22Z</time>
      </trkpt>
      <trkpt lat="45.32544" lon="6.23368">
        <ele>1430</ele>
        <time>2021-02-11T13:27:23Z</time>
      </trkpt>
      <trkpt lat="45.32545" lon="6.23372">
        <ele>1429</ele>
        <time>2021-02-11T13:27:24Z</time>
      </trkpt>
      <trkpt lat="45.32548" lon="6.23382">
        <ele>1425</ele>
        <time>2021-02-11T13:27:26Z</time>
      </trkpt>
      <trkpt lat="45.32548" lon="6.23392">
        <ele>1421</ele>
        <time>2021-02-11T13:27:28Z</time>
      </trkpt>
      <trkpt lat="45.32548" lon="6.23397">
        <ele>1419</ele>
        <time>2021-02-11T13:27:29Z</time>
      </trkpt>
      <trkpt lat="45.32547" lon="6.23403">
        <ele>1417</ele>
        <time>2021-02-11T13:27:30Z</time>
      </trkpt>
      <trkpt lat="45.32547" lon="6.23409">
        <ele>1415</ele>
        <time>2021-02-11T13:27:31Z</time>
      </trkpt>
      <trkpt lat="45.3255" lon="6.23419">
        <ele>1411</ele>
        <time>2021-02-11T13:27:33Z</time>
      </trkpt>
      <trkpt lat="45.32557" lon="6.23438">
        <ele>1406</ele>
        <time>2021-02-11T13:27:38Z</time>
      </trkpt>
      <trkpt lat="45.32557" lon="6.23452">
        <ele>1409</ele>
        <time>2021-02-11T13:27:45Z</time>
      </trkpt>
      <trkpt lat="45.32552" lon="6.23453">
        <ele>1413</ele>
        <time>2021-02-11T13:28:38Z</time>
      </trkpt>
      <trkpt lat="45.32551" lon="6.23458">
        <ele>1413</ele>
        <time>2021-02-11T13:28:39Z</time>
      </trkpt>
      <trkpt lat="45.32547" lon="6.23472">
        <ele>1412</ele>
        <time>2021-02-11T13:28:42Z</time>
      </trkpt>
      <trkpt lat="45.32544" lon="6.23473">
        <ele>1412</ele>
        <time>2021-02-11T13:28:43Z</time>
      </trkpt>
      <trkpt lat="45.32541" lon="6.23471">
        <ele>1412</ele>
        <time>2021-02-11T13:28:44Z</time>
      </trkpt>
      <trkpt lat="45.32538" lon="6.23466">
        <ele>1411</ele>
        <time>2021-02-11T13:28:46Z</time>
      </trkpt>
      <trkpt lat="45.32535" lon="6.23466">
        <ele>1410</ele>
        <time>2021-02-11T13:28:47Z</time>
      </trkpt>
      <trkpt lat="45.32531" lon="6.23468">
        <ele>1408</ele>
        <time>2021-02-11T13:28:48Z</time>
      </trkpt>
      <trkpt lat="45.32523" lon="6.23484">
        <ele>1398</ele>
        <time>2021-02-11T13:28:59Z</time>
      </trkpt>
      <trkpt lat="45.32526" lon="6.23491">
        <ele>1393</ele>
        <time>2021-02-11T13:29:01Z</time>
      </trkpt>
      <trkpt lat="45.32526" lon="6.23495">
        <ele>1391</ele>
        <time>2021-02-11T13:29:02Z</time>
      </trkpt>
      <trkpt lat="45.32527" lon="6.235">
        <ele>1390</ele>
        <time>2021-02-11T13:29:03Z</time>
      </trkpt>
      <trkpt lat="45.32526" lon="6.2351">
        <ele>1387</ele>
        <time>2021-02-11T13:29:05Z</time>
      </trkpt>
      <trkpt lat="45.32529" lon="6.23517">
        <ele>1384</ele>
        <time>2021-02-11T13:29:09Z</time>
      </trkpt>
      <trkpt lat="45.32525" lon="6.23535">
        <ele>1388</ele>
        <time>2021-02-11T13:29:41Z</time>
      </trkpt>
      <trkpt lat="45.32518" lon="6.23548">
        <ele>1393</ele>
        <time>2021-02-11T13:29:56Z</time>
      </trkpt>
      <trkpt lat="45.32518" lon="6.23551">
        <ele>1393</ele>
        <time>2021-02-11T13:29:57Z</time>
      </trkpt>
      <trkpt lat="45.32515" lon="6.23559">
        <ele>1392</ele>
        <time>2021-02-11T13:29:59Z</time>
      </trkpt>
      <trkpt lat="45.32513" lon="6.23563">
        <ele>1390</ele>
        <time>2021-02-11T13:30:00Z</time>
      </trkpt>
      <trkpt lat="45.32511" lon="6.23566">
        <ele>1389</ele>
        <time>2021-02-11T13:30:01Z</time>
      </trkpt>
      <trkpt lat="45.32511" lon="6.2357">
        <ele>1387</ele>
        <time>2021-02-11T13:30:02Z</time>
      </trkpt>
      <trkpt lat="45.32509" lon="6.23578">
        <ele>1383</ele>
        <time>2021-02-11T13:30:04Z</time>
      </trkpt>
      <trkpt lat="45.32506" lon="6.23582">
        <ele>1381</ele>
        <time>2021-02-11T13:30:05Z</time>
      </trkpt>
      <trkpt lat="45.32506" lon="6.23586">
        <ele>1378</ele>
        <time>2021-02-11T13:30:06Z</time>
      </trkpt>
      <trkpt lat="45.32505" lon="6.23591">
        <ele>1376</ele>
        <time>2021-02-11T13:30:07Z</time>
      </trkpt>
      <trkpt lat="45.32501" lon="6.23596">
        <ele>1373</ele>
        <time>2021-02-11T13:30:08Z</time>
      </trkpt>
      <trkpt lat="45.32494" lon="6.23614">
        <ele>1364</ele>
        <time>2021-02-11T13:30:13Z</time>
      </trkpt>
      <trkpt lat="45.32493" lon="6.23628">
        <ele>1368</ele>
        <time>2021-02-11T13:30:28Z</time>
      </trkpt>
      <trkpt lat="45.32489" lon="6.23635">
        <ele>1373</ele>
        <time>2021-02-11T13:30:45Z</time>
      </trkpt>
      <trkpt lat="45.32486" lon="6.23638">
        <ele>1373</ele>
        <time>2021-02-11T13:30:46Z</time>
      </trkpt>
      <trkpt lat="45.32485" lon="6.23642">
        <ele>1372</ele>
        <time>2021-02-11T13:30:47Z</time>
      </trkpt>
      <trkpt lat="45.32484" lon="6.23647">
        <ele>1371</ele>
        <time>2021-02-11T13:30:48Z</time>
      </trkpt>
      <trkpt lat="45.32481" lon="6.2365">
        <ele>1370</ele>
        <time>2021-02-11T13:30:49Z</time>
      </trkpt>
      <trkpt lat="45.32472" lon="6.23669">
        <ele>1367</ele>
        <time>2021-02-11T13:30:53Z</time>
      </trkpt>
      <trkpt lat="45.32469" lon="6.23665">
        <ele>1365</ele>
        <time>2021-02-11T13:30:56Z</time>
      </trkpt>
      <trkpt lat="45.32467" lon="6.23663">
        <ele>1363</ele>
        <time>2021-02-11T13:30:57Z</time>
      </trkpt>
      <trkpt lat="45.32466" lon="6.23665">
        <ele>1359</ele>
        <time>2021-02-11T13:31:00Z</time>
      </trkpt>
      <trkpt lat="45.32466" lon="6.2366">
        <ele>1356</ele>
        <time>2021-02-11T13:31:02Z</time>
      </trkpt>
      <trkpt lat="45.32463" lon="6.23653">
        <ele>1350</ele>
        <time>2021-02-11T13:31:04Z</time>
      </trkpt>
      <trkpt lat="45.32461" lon="6.23652">
        <ele>1348</ele>
        <time>2021-02-11T13:31:05Z</time>
      </trkpt>
      <trkpt lat="45.32461" lon="6.23656">
        <ele>1346</ele>
        <time>2021-02-11T13:31:07Z</time>
      </trkpt>
      <trkpt lat="45.32455" lon="6.23654">
        <ele>1343</ele>
        <time>2021-02-11T13:31:12Z</time>
      </trkpt>
      <trkpt lat="45.32444" lon="6.23652">
        <ele>1341</ele>
        <time>2021-02-11T13:31:31Z</time>
      </trkpt>
      <trkpt lat="45.32442" lon="6.23658">
        <ele>1341</ele>
        <time>2021-02-11T13:31:33Z</time>
      </trkpt>
      <trkpt lat="45.32441" lon="6.23661">
        <ele>1341</ele>
        <time>2021-02-11T13:31:34Z</time>
      </trkpt>
      <trkpt lat="45.32438" lon="6.23661">
        <ele>1341</ele>
        <time>2021-02-11T13:31:36Z</time>
      </trkpt>
      <trkpt lat="45.32436" lon="6.23662">
        <ele>1341</ele>
        <time>2021-02-11T13:31:37Z</time>
      </trkpt>
      <trkpt lat="45.32434" lon="6.23666">
        <ele>1341</ele>
        <time>2021-02-11T13:31:38Z</time>
      </trkpt>
      <trkpt lat="45.32433" lon="6.23669">
        <ele>1341</ele>
        <time>2021-02-11T13:31:39Z</time>
      </trkpt>
      <trkpt lat="45.3243" lon="6.2367">
        <ele>1341</ele>
        <time>2021-02-11T13:31:40Z</time>
      </trkpt>
      <trkpt lat="45.32427" lon="6.23672">
        <ele>1341</ele>
        <time>2021-02-11T13:31:41Z</time>
      </trkpt>
      <trkpt lat="45.32426" lon="6.23675">
        <ele>1341</ele>
        <time>2021-02-11T13:31:42Z</time>
      </trkpt>
      <trkpt lat="45.32424" lon="6.23678">
        <ele>1341</ele>
        <time>2021-02-11T13:31:43Z</time>
      </trkpt>
      <trkpt lat="45.32422" lon="6.23679">
        <ele>1340</ele>
        <time>2021-02-11T13:31:44Z</time>
      </trkpt>
      <trkpt lat="45.32421" lon="6.23682">
        <ele>1340</ele>
        <time>2021-02-11T13:31:45Z</time>
      </trkpt>
      <trkpt lat="45.3242" lon="6.23687">
        <ele>1339</ele>
        <time>2021-02-11T13:31:46Z</time>
      </trkpt>
      <trkpt lat="45.32418" lon="6.23689">
        <ele>1338</ele>
        <time>2021-02-11T13:31:47Z</time>
      </trkpt>
      <trkpt lat="45.32417" lon="6.23693">
        <ele>1336</ele>
        <time>2021-02-11T13:31:48Z</time>
      </trkpt>
      <trkpt lat="45.32415" lon="6.23695">
        <ele>1335</ele>
        <time>2021-02-11T13:31:49Z</time>
      </trkpt>
      <trkpt lat="45.32413" lon="6.23695">
        <ele>1334</ele>
        <time>2021-02-11T13:31:50Z</time>
      </trkpt>
      <trkpt lat="45.32409" lon="6.23696">
        <ele>1333</ele>
        <time>2021-02-11T13:32:21Z</time>
      </trkpt>
      <trkpt lat="45.32407" lon="6.23698">
        <ele>1333</ele>
        <time>2021-02-11T13:32:22Z</time>
      </trkpt>
      <trkpt lat="45.324" lon="6.23717">
        <ele>1332</ele>
        <time>2021-02-11T13:32:26Z</time>
      </trkpt>
      <trkpt lat="45.32393" lon="6.23717">
        <ele>1330</ele>
        <time>2021-02-11T13:32:28Z</time>
      </trkpt>
      <trkpt lat="45.32389" lon="6.23719">
        <ele>1329</ele>
        <time>2021-02-11T13:32:29Z</time>
      </trkpt>
      <trkpt lat="45.32377" lon="6.2375">
        <ele>1317</ele>
        <time>2021-02-11T13:32:35Z</time>
      </trkpt>
      <trkpt lat="45.32369" lon="6.23756">
        <ele>1314</ele>
        <time>2021-02-11T13:32:37Z</time>
      </trkpt>
      <trkpt lat="45.32367" lon="6.23755">
        <ele>1313</ele>
        <time>2021-02-11T13:32:38Z</time>
      </trkpt>
      <trkpt lat="45.32362" lon="6.23745">
        <ele>1309</ele>
        <time>2021-02-11T13:33:45Z</time>
      </trkpt>
      <trkpt lat="45.3236" lon="6.23746">
        <ele>1310</ele>
        <time>2021-02-11T13:33:47Z</time>
      </trkpt>
      <trkpt lat="45.32358" lon="6.23758">
        <ele>1310</ele>
        <time>2021-02-11T13:33:52Z</time>
      </trkpt>
      <trkpt lat="45.32354" lon="6.23773">
        <ele>1308</ele>
        <time>2021-02-11T13:33:55Z</time>
      </trkpt>
      <trkpt lat="45.32351" lon="6.23777">
        <ele>1307</ele>
        <time>2021-02-11T13:33:56Z</time>
      </trkpt>
      <trkpt lat="45.32349" lon="6.23784">
        <ele>1306</ele>
        <time>2021-02-11T13:33:57Z</time>
      </trkpt>
      <trkpt lat="45.32329" lon="6.23818">
        <ele>1298</ele>
        <time>2021-02-11T13:34:04Z</time>
      </trkpt>
      <trkpt lat="45.3232" lon="6.23828">
        <ele>1293</ele>
        <time>2021-02-11T13:34:07Z</time>
      </trkpt>
      <trkpt lat="45.32309" lon="6.23844">
        <ele>1285</ele>
        <time>2021-02-11T13:34:11Z</time>
      </trkpt>
      <trkpt lat="45.32305" lon="6.23848">
        <ele>1284</ele>
        <time>2021-02-11T13:34:12Z</time>
      </trkpt>
      <trkpt lat="45.32289" lon="6.23856">
        <ele>1279</ele>
        <time>2021-02-11T13:34:16Z</time>
      </trkpt>
      <trkpt lat="45.32285" lon="6.2386">
        <ele>1278</ele>
        <time>2021-02-11T13:34:17Z</time>
      </trkpt>
      <trkpt lat="45.32255" lon="6.23873">
        <ele>1270</ele>
        <time>2021-02-11T13:34:24Z</time>
      </trkpt>
      <trkpt lat="45.3225" lon="6.23881">
        <ele>1268</ele>
        <time>2021-02-11T13:34:26Z</time>
      </trkpt>
      <trkpt lat="45.32242" lon="6.23882">
        <ele>1269</ele>
        <time>2021-02-11T13:35:19Z</time>
      </trkpt>
      <trkpt lat="45.32239" lon="6.23883">
        <ele>1269</ele>
        <time>2021-02-11T13:35:20Z</time>
      </trkpt>
      <trkpt lat="45.32236" lon="6.23886">
        <ele>1269</ele>
        <time>2021-02-11T13:35:21Z</time>
      </trkpt>
      <trkpt lat="45.32232" lon="6.2389">
        <ele>1269</ele>
        <time>2021-02-11T13:35:22Z</time>
      </trkpt>
      <trkpt lat="45.32229" lon="6.23894">
        <ele>1269</ele>
        <time>2021-02-11T13:35:23Z</time>
      </trkpt>
      <trkpt lat="45.32226" lon="6.23898">
        <ele>1269</ele>
        <time>2021-02-11T13:35:24Z</time>
      </trkpt>
      <trkpt lat="45.32223" lon="6.23901">
        <ele>1269</ele>
        <time>2021-02-11T13:35:25Z</time>
      </trkpt>
      <trkpt lat="45.3222" lon="6.23904">
        <ele>1268</ele>
        <time>2021-02-11T13:35:26Z</time>
      </trkpt>
      <trkpt lat="45.32216" lon="6.23909">
        <ele>1267</ele>
        <time>2021-02-11T13:35:27Z</time>
      </trkpt>
      <trkpt lat="45.32213" lon="6.23913">
        <ele>1265</ele>
        <time>2021-02-11T13:35:28Z</time>
      </trkpt>
      <trkpt lat="45.32209" lon="6.23917">
        <ele>1264</ele>
        <time>2021-02-11T13:35:29Z</time>
      </trkpt>
      <trkpt lat="45.32207" lon="6.23921">
        <ele>1263</ele>
        <time>2021-02-11T13:35:30Z</time>
      </trkpt>
      <trkpt lat="45.32203" lon="6.23925">
        <ele>1262</ele>
        <time>2021-02-11T13:35:31Z</time>
      </trkpt>
      <trkpt lat="45.322" lon="6.23928">
        <ele>1261</ele>
        <time>2021-02-11T13:35:32Z</time>
      </trkpt>
      <trkpt lat="45.32194" lon="6.23935">
        <ele>1257</ele>
        <time>2021-02-11T13:35:34Z</time>
      </trkpt>
      <trkpt lat="45.32185" lon="6.23952">
        <ele>1249</ele>
        <time>2021-02-11T13:35:38Z</time>
      </trkpt>
      <trkpt lat="45.32183" lon="6.23955">
        <ele>1247</ele>
        <time>2021-02-11T13:35:39Z</time>
      </trkpt>
      <trkpt lat="45.32183" lon="6.23958">
        <ele>1246</ele>
        <time>2021-02-11T13:35:40Z</time>
      </trkpt>
      <trkpt lat="45.32182" lon="6.23961">
        <ele>1245</ele>
        <time>2021-02-11T13:35:41Z</time>
      </trkpt>
      <trkpt lat="45.32181" lon="6.23964">
        <ele>1244</ele>
        <time>2021-02-11T13:35:42Z</time>
      </trkpt>
      <trkpt lat="45.32179" lon="6.23967">
        <ele>1243</ele>
        <time>2021-02-11T13:35:43Z</time>
      </trkpt>
      <trkpt lat="45.32172" lon="6.23976">
        <ele>1239</ele>
        <time>2021-02-11T13:35:46Z</time>
      </trkpt>
      <trkpt lat="45.32161" lon="6.23982">
        <ele>1236</ele>
        <time>2021-02-11T13:35:49Z</time>
      </trkpt>
      <trkpt lat="45.32158" lon="6.23985">
        <ele>1236</ele>
        <time>2021-02-11T13:35:50Z</time>
      </trkpt>
      <trkpt lat="45.32154" lon="6.23988">
        <ele>1235</ele>
        <time>2021-02-11T13:35:51Z</time>
      </trkpt>
      <trkpt lat="45.32149" lon="6.2399">
        <ele>1234</ele>
        <time>2021-02-11T13:35:52Z</time>
      </trkpt>
      <trkpt lat="45.32144" lon="6.23992">
        <ele>1232</ele>
        <time>2021-02-11T13:35:53Z</time>
      </trkpt>
      <trkpt lat="45.32138" lon="6.24">
        <ele>1230</ele>
        <time>2021-02-11T13:35:55Z</time>
      </trkpt>
      <trkpt lat="45.32136" lon="6.24002">
        <ele>1229</ele>
        <time>2021-02-11T13:35:56Z</time>
      </trkpt>
      <trkpt lat="45.32131" lon="6.24002">
        <ele>1227</ele>
        <time>2021-02-11T13:36:38Z</time>
      </trkpt>
      <trkpt lat="45.32129" lon="6.24003">
        <ele>1227</ele>
        <time>2021-02-11T13:36:39Z</time>
      </trkpt>
      <trkpt lat="45.32128" lon="6.24006">
        <ele>1227</ele>
        <time>2021-02-11T13:36:40Z</time>
      </trkpt>
      <trkpt lat="45.32125" lon="6.2402">
        <ele>1226</ele>
        <time>2021-02-11T13:36:43Z</time>
      </trkpt>
      <trkpt lat="45.32124" lon="6.24025">
        <ele>1225</ele>
        <time>2021-02-11T13:36:44Z</time>
      </trkpt>
      <trkpt lat="45.32103" lon="6.24056">
        <ele>1219</ele>
        <time>2021-02-11T13:36:50Z</time>
      </trkpt>
      <trkpt lat="45.321" lon="6.24063">
        <ele>1218</ele>
        <time>2021-02-11T13:36:51Z</time>
      </trkpt>
      <trkpt lat="45.32097" lon="6.24068">
        <ele>1217</ele>
        <time>2021-02-11T13:36:52Z</time>
      </trkpt>
      <trkpt lat="45.32081" lon="6.24097">
        <ele>1211</ele>
        <time>2021-02-11T13:36:58Z</time>
      </trkpt>
      <trkpt lat="45.32073" lon="6.24108">
        <ele>1206</ele>
        <time>2021-02-11T13:37:01Z</time>
      </trkpt>
      <trkpt lat="45.3207" lon="6.24113">
        <ele>1204</ele>
        <time>2021-02-11T13:37:02Z</time>
      </trkpt>
      <trkpt lat="45.32066" lon="6.24117">
        <ele>1203</ele>
        <time>2021-02-11T13:37:03Z</time>
      </trkpt>
      <trkpt lat="45.32064" lon="6.24121">
        <ele>1201</ele>
        <time>2021-02-11T13:37:04Z</time>
      </trkpt>
      <trkpt lat="45.32056" lon="6.24129">
        <ele>1198</ele>
        <time>2021-02-11T13:37:06Z</time>
      </trkpt>
      <trkpt lat="45.32054" lon="6.24134">
        <ele>1195</ele>
        <time>2021-02-11T13:37:07Z</time>
      </trkpt>
      <trkpt lat="45.32051" lon="6.2414">
        <ele>1194</ele>
        <time>2021-02-11T13:37:08Z</time>
      </trkpt>
      <trkpt lat="45.32048" lon="6.24145">
        <ele>1193</ele>
        <time>2021-02-11T13:37:09Z</time>
      </trkpt>
      <trkpt lat="45.32045" lon="6.2415">
        <ele>1192</ele>
        <time>2021-02-11T13:37:10Z</time>
      </trkpt>
      <trkpt lat="45.32037" lon="6.24165">
        <ele>1187</ele>
        <time>2021-02-11T13:37:13Z</time>
      </trkpt>
      <trkpt lat="45.32034" lon="6.2417">
        <ele>1186</ele>
        <time>2021-02-11T13:37:14Z</time>
      </trkpt>
      <trkpt lat="45.32031" lon="6.24173">
        <ele>1184</ele>
        <time>2021-02-11T13:37:15Z</time>
      </trkpt>
      <trkpt lat="45.32022" lon="6.24188">
        <ele>1178</ele>
        <time>2021-02-11T13:37:20Z</time>
      </trkpt>
      <trkpt lat="45.32021" lon="6.24195">
        <ele>1179</ele>
        <time>2021-02-11T13:38:23Z</time>
      </trkpt>
      <trkpt lat="45.32023" lon="6.24191">
        <ele>1182</ele>
        <time>2021-02-11T13:38:24Z</time>
      </trkpt>
      <trkpt lat="45.32021" lon="6.24185">
        <ele>1183</ele>
        <time>2021-02-11T13:38:30Z</time>
      </trkpt>
      <trkpt lat="45.32012" lon="6.24174">
        <ele>1185</ele>
        <time>2021-02-11T13:38:33Z</time>
      </trkpt>
      <trkpt lat="45.32009" lon="6.24171">
        <ele>1186</ele>
        <time>2021-02-11T13:38:34Z</time>
      </trkpt>
      <trkpt lat="45.32002" lon="6.24171">
        <ele>1186</ele>
        <time>2021-02-11T13:38:36Z</time>
      </trkpt>
      <trkpt lat="45.31998" lon="6.24171">
        <ele>1187</ele>
        <time>2021-02-11T13:38:37Z</time>
      </trkpt>
      <trkpt lat="45.31997" lon="6.2417">
        <ele>1187</ele>
        <time>2021-02-11T13:38:38Z</time>
      </trkpt>
      <trkpt lat="45.31992" lon="6.24164">
        <ele>1189</ele>
        <time>2021-02-11T13:38:42Z</time>
      </trkpt>
      <trkpt lat="45.31987" lon="6.24167">
        <ele>1189</ele>
        <time>2021-02-11T13:38:46Z</time>
      </trkpt>
      <trkpt lat="45.31984" lon="6.24173">
        <ele>1189</ele>
        <time>2021-02-11T13:38:49Z</time>
      </trkpt>
      <trkpt lat="45.31981" lon="6.24177">
        <ele>1191</ele>
        <time>2021-02-11T13:38:51Z</time>
      </trkpt>
      <trkpt lat="45.31981" lon="6.2418">
        <ele>1191</ele>
        <time>2021-02-11T13:38:52Z</time>
      </trkpt>
      <trkpt lat="45.31978" lon="6.24184">
        <ele>1195</ele>
        <time>2021-02-11T13:38:57Z</time>
      </trkpt>
      <trkpt lat="45.31973" lon="6.24182">
        <ele>1196</ele>
        <time>2021-02-11T13:39:22Z</time>
      </trkpt>
      <trkpt lat="45.31968" lon="6.2419">
        <ele>1191</ele>
        <time>2021-02-11T13:40:13Z</time>
      </trkpt>
      <trkpt lat="45.3195" lon="6.2421">
        <ele>1185</ele>
        <time>2021-02-11T13:40:45Z</time>
      </trkpt>
      <trkpt lat="45.31949" lon="6.24212">
        <ele>1184</ele>
        <time>2021-02-11T13:40:47Z</time>
      </trkpt>
      <trkpt lat="45.3194" lon="6.24221">
        <ele>1182</ele>
        <time>2021-02-11T13:41:01Z</time>
      </trkpt>
      <trkpt lat="45.3194" lon="6.24214">
        <ele>1180</ele>
        <time>2021-02-11T13:42:16Z</time>
      </trkpt>
      <trkpt lat="45.31936" lon="6.24214">
        <ele>1181</ele>
        <time>2021-02-11T13:42:25Z</time>
      </trkpt>
      <trkpt lat="45.31935" lon="6.2422">
        <ele>1180</ele>
        <time>2021-02-11T13:46:30Z</time>
      </trkpt>
      <trkpt lat="45.31917" lon="6.24249">
        <ele>1177</ele>
        <time>2021-02-11T13:46:36Z</time>
      </trkpt>
      <trkpt lat="45.3191" lon="6.24264">
        <ele>1174</ele>
        <time>2021-02-11T13:46:39Z</time>
      </trkpt>
      <trkpt lat="45.31899" lon="6.24276">
        <ele>1170</ele>
        <time>2021-02-11T13:46:42Z</time>
      </trkpt>
      <trkpt lat="45.31866" lon="6.2429">
        <ele>1160</ele>
        <time>2021-02-11T13:46:49Z</time>
      </trkpt>
      <trkpt lat="45.31842" lon="6.24291">
        <ele>1153</ele>
        <time>2021-02-11T13:46:53Z</time>
      </trkpt>
      <trkpt lat="45.31768" lon="6.24265">
        <ele>1135</ele>
        <time>2021-02-11T13:47:07Z</time>
      </trkpt>
      <trkpt lat="45.31757" lon="6.24268">
        <ele>1134</ele>
        <time>2021-02-11T13:47:09Z</time>
      </trkpt>
      <trkpt lat="45.31734" lon="6.24286">
        <ele>1134</ele>
        <time>2021-02-11T13:47:14Z</time>
      </trkpt>
      <trkpt lat="45.31727" lon="6.24296">
        <ele>1136</ele>
        <time>2021-02-11T13:47:17Z</time>
      </trkpt>
      <trkpt lat="45.31723" lon="6.24304">
        <ele>1138</ele>
        <time>2021-02-11T13:47:19Z</time>
      </trkpt>
      <trkpt lat="45.31718" lon="6.24312">
        <ele>1140</ele>
        <time>2021-02-11T13:47:22Z</time>
      </trkpt>
      <trkpt lat="45.31699" lon="6.24332">
        <ele>1143</ele>
        <time>2021-02-11T13:47:39Z</time>
      </trkpt>
      <trkpt lat="45.31698" lon="6.24334">
        <ele>1143</ele>
        <time>2021-02-11T13:47:40Z</time>
      </trkpt>
      <trkpt lat="45.31678" lon="6.24348">
        <ele>1142</ele>
        <time>2021-02-11T13:48:31Z</time>
      </trkpt>
      <trkpt lat="45.31677" lon="6.2435">
        <ele>1142</ele>
        <time>2021-02-11T13:48:33Z</time>
      </trkpt>
      <trkpt lat="45.31667" lon="6.24375">
        <ele>1142</ele>
        <time>2021-02-11T13:48:40Z</time>
      </trkpt>
      <trkpt lat="45.31648" lon="6.244">
        <ele>1136</ele>
        <time>2021-02-11T13:48:46Z</time>
      </trkpt>
      <trkpt lat="45.31634" lon="6.24419">
        <ele>1132</ele>
        <time>2021-02-11T13:49:17Z</time>
      </trkpt>
      <trkpt lat="45.3163" lon="6.24426">
        <ele>1132</ele>
        <time>2021-02-11T13:49:20Z</time>
      </trkpt>
      <trkpt lat="45.31625" lon="6.24429">
        <ele>1130</ele>
        <time>2021-02-11T13:49:25Z</time>
      </trkpt>
      <trkpt lat="45.31618" lon="6.24436">
        <ele>1127</ele>
        <time>2021-02-11T13:49:28Z</time>
      </trkpt>
      <trkpt lat="45.31615" lon="6.2444">
        <ele>1126</ele>
        <time>2021-02-11T13:49:29Z</time>
      </trkpt>
      <trkpt lat="45.31605" lon="6.2446">
        <ele>1125</ele>
        <time>2021-02-11T13:49:33Z</time>
      </trkpt>
      <trkpt lat="45.31599" lon="6.24474">
        <ele>1126</ele>
        <time>2021-02-11T13:49:36Z</time>
      </trkpt>
      <trkpt lat="45.3159" lon="6.24511">
        <ele>1125</ele>
        <time>2021-02-11T13:49:44Z</time>
      </trkpt>
      <trkpt lat="45.31587" lon="6.24518">
        <ele>1124</ele>
        <time>2021-02-11T13:49:46Z</time>
      </trkpt>
      <trkpt lat="45.31584" lon="6.24522">
        <ele>1124</ele>
        <time>2021-02-11T13:49:47Z</time>
      </trkpt>
      <trkpt lat="45.31579" lon="6.24525">
        <ele>1123</ele>
        <time>2021-02-11T13:49:49Z</time>
      </trkpt>
      <trkpt lat="45.31576" lon="6.24527">
        <ele>1123</ele>
        <time>2021-02-11T13:49:50Z</time>
      </trkpt>
      <trkpt lat="45.31573" lon="6.24528">
        <ele>1123</ele>
        <time>2021-02-11T13:49:51Z</time>
      </trkpt>
      <trkpt lat="45.3157" lon="6.24527">
        <ele>1123</ele>
        <time>2021-02-11T13:49:52Z</time>
      </trkpt>
      <trkpt lat="45.31549" lon="6.24509">
        <ele>1122</ele>
        <time>2021-02-11T13:50:01Z</time>
      </trkpt>
      <trkpt lat="45.31541" lon="6.24498">
        <ele>1119</ele>
        <time>2021-02-11T13:50:05Z</time>
      </trkpt>
      <trkpt lat="45.31536" lon="6.24491">
        <ele>1115</ele>
        <time>2021-02-11T13:50:11Z</time>
      </trkpt>
      <trkpt lat="45.31525" lon="6.24499">
        <ele>1119</ele>
        <time>2021-02-11T13:50:33Z</time>
      </trkpt>
      <trkpt lat="45.31516" lon="6.24501">
        <ele>1120</ele>
        <time>2021-02-11T13:50:45Z</time>
      </trkpt>
      <trkpt lat="45.31515" lon="6.24499">
        <ele>1120</ele>
        <time>2021-02-11T13:50:47Z</time>
      </trkpt>
      <trkpt lat="45.31492" lon="6.24508">
        <ele>1122</ele>
        <time>2021-02-11T13:51:18Z</time>
      </trkpt>
      <trkpt lat="45.31488" lon="6.24506">
        <ele>1122</ele>
        <time>2021-02-11T13:51:22Z</time>
      </trkpt>
      <trkpt lat="45.31486" lon="6.24506">
        <ele>1122</ele>
        <time>2021-02-11T13:51:23Z</time>
      </trkpt>
      <trkpt lat="45.31485" lon="6.24505">
        <ele>1121</ele>
        <time>2021-02-11T13:51:25Z</time>
      </trkpt>
      <trkpt lat="45.31481" lon="6.24509">
        <ele>1120</ele>
        <time>2021-02-11T13:52:28Z</time>
      </trkpt>
      <trkpt lat="45.3148" lon="6.24504">
        <ele>1120</ele>
        <time>2021-02-11T13:52:30Z</time>
      </trkpt>
      <trkpt lat="45.31478" lon="6.24499">
        <ele>1120</ele>
        <time>2021-02-11T13:52:32Z</time>
      </trkpt>
      <trkpt lat="45.31476" lon="6.24493">
        <ele>1119</ele>
        <time>2021-02-11T13:52:34Z</time>
      </trkpt>
      <trkpt lat="45.31474" lon="6.2449">
        <ele>1119</ele>
        <time>2021-02-11T13:52:37Z</time>
      </trkpt>
      <trkpt lat="45.31471" lon="6.24477">
        <ele>1118</ele>
        <time>2021-02-11T13:53:05Z</time>
      </trkpt>
      <trkpt lat="45.31461" lon="6.24492">
        <ele>1122</ele>
        <time>2021-02-11T13:53:35Z</time>
      </trkpt>
      <trkpt lat="45.3146" lon="6.24496">
        <ele>1121</ele>
        <time>2021-02-11T13:53:37Z</time>
      </trkpt>
      <trkpt lat="45.31447" lon="6.24527">
        <ele>1122</ele>
        <time>2021-02-11T13:53:48Z</time>
      </trkpt>
      <trkpt lat="45.31441" lon="6.24531">
        <ele>1123</ele>
        <time>2021-02-11T13:53:51Z</time>
      </trkpt>
      <trkpt lat="45.31427" lon="6.24537">
        <ele>1122</ele>
        <time>2021-02-11T13:54:00Z</time>
      </trkpt>
      <trkpt lat="45.31426" lon="6.24538">
        <ele>1122</ele>
        <time>2021-02-11T13:54:01Z</time>
      </trkpt>
      <trkpt lat="45.31416" lon="6.24542">
        <ele>1120</ele>
        <time>2021-02-11T13:54:06Z</time>
      </trkpt>
      <trkpt lat="45.31412" lon="6.24545">
        <ele>1119</ele>
        <time>2021-02-11T13:54:08Z</time>
      </trkpt>
      <trkpt lat="45.3141" lon="6.24546">
        <ele>1118</ele>
        <time>2021-02-11T13:54:09Z</time>
      </trkpt>
      <trkpt lat="45.31398" lon="6.2458">
        <ele>1119</ele>
        <time>2021-02-11T13:54:33Z</time>
      </trkpt>
      <trkpt lat="45.31408" lon="6.2458">
        <ele>1122</ele>
        <time>2021-02-11T13:56:29Z</time>
      </trkpt>
      <trkpt lat="45.31409" lon="6.24579">
        <ele>1123</ele>
        <time>2021-02-11T13:56:31Z</time>
      </trkpt>
      <trkpt lat="45.314" lon="6.24578">
        <ele>1124</ele>
        <time>2021-02-11T13:57:15Z</time>
      </trkpt>
      <trkpt lat="45.31399" lon="6.2458">
        <ele>1121</ele>
        <time>2021-02-11T13:59:33Z</time>
      </trkpt>
      <trkpt lat="45.31392" lon="6.24594">
        <ele>1112</ele>
        <time>2021-02-11T13:59:36Z</time>
      </trkpt>
      <trkpt lat="45.31389" lon="6.24594">
        <ele>1108</ele>
        <time>2021-02-11T13:59:38Z</time>
      </trkpt>
      <trkpt lat="45.31387" lon="6.24597">
        <ele>1105</ele>
        <time>2021-02-11T13:59:42Z</time>
      </trkpt>
      <trkpt lat="45.31386" lon="6.24603">
        <ele>1101</ele>
        <time>2021-02-11T13:59:50Z</time>
      </trkpt>
      <trkpt lat="45.31388" lon="6.24608">
        <ele>1101</ele>
        <time>2021-02-11T13:59:51Z</time>
      </trkpt>
      <trkpt lat="45.31383" lon="6.24622">
        <ele>1104</ele>
        <time>2021-02-11T14:00:09Z</time>
      </trkpt>
      <trkpt lat="45.31383" lon="6.24624">
        <ele>1106</ele>
        <time>2021-02-11T14:00:22Z</time>
      </trkpt>
      <trkpt lat="45.31385" lon="6.24629">
        <ele>1114</ele>
        <time>2021-02-11T14:00:41Z</time>
      </trkpt>
      <trkpt lat="45.31388" lon="6.24631">
        <ele>1117</ele>
        <time>2021-02-11T14:00:42Z</time>
      </trkpt>
      <trkpt lat="45.31393" lon="6.24635">
        <ele>1125</ele>
        <time>2021-02-11T14:00:49Z</time>
      </trkpt>
      <trkpt lat="45.31389" lon="6.24683">
        <ele>1135</ele>
        <time>2021-02-11T14:01:22Z</time>
      </trkpt>
      <trkpt lat="45.31387" lon="6.24694">
        <ele>1136</ele>
        <time>2021-02-11T14:01:36Z</time>
      </trkpt>
      <trkpt lat="45.31389" lon="6.24707">
        <ele>1133</ele>
        <time>2021-02-11T14:01:54Z</time>
      </trkpt>
      <trkpt lat="45.31387" lon="6.24722">
        <ele>1125</ele>
        <time>2021-02-11T14:02:12Z</time>
      </trkpt>
      <trkpt lat="45.31391" lon="6.24731">
        <ele>1122</ele>
        <time>2021-02-11T14:02:17Z</time>
      </trkpt>
      <trkpt lat="45.31393" lon="6.24734">
        <ele>1121</ele>
        <time>2021-02-11T14:02:19Z</time>
      </trkpt>
      <trkpt lat="45.31394" lon="6.24739">
        <ele>1121</ele>
        <time>2021-02-11T14:02:21Z</time>
      </trkpt>
      <trkpt lat="45.31391" lon="6.24741">
        <ele>1121</ele>
        <time>2021-02-11T14:02:26Z</time>
      </trkpt>
      <trkpt lat="45.31391" lon="6.24745">
        <ele>1120</ele>
        <time>2021-02-11T14:02:30Z</time>
      </trkpt>
      <trkpt lat="45.31392" lon="6.24748">
        <ele>1119</ele>
        <time>2021-02-11T14:02:33Z</time>
      </trkpt>
      <trkpt lat="45.31394" lon="6.24764">
        <ele>1123</ele>
        <time>2021-02-11T14:02:47Z</time>
      </trkpt>
      <trkpt lat="45.31397" lon="6.2478">
        <ele>1127</ele>
        <time>2021-02-11T14:03:01Z</time>
      </trkpt>
      <trkpt lat="45.31386" lon="6.24829">
        <ele>1128</ele>
        <time>2021-02-11T14:03:42Z</time>
      </trkpt>
      <trkpt lat="45.31383" lon="6.24856">
        <ele>1128</ele>
        <time>2021-02-11T14:03:51Z</time>
      </trkpt>
      <trkpt lat="45.31367" lon="6.24873">
        <ele>1126</ele>
        <time>2021-02-11T14:04:35Z</time>
      </trkpt>
      <trkpt lat="45.31357" lon="6.2488">
        <ele>1125</ele>
        <time>2021-02-11T14:04:50Z</time>
      </trkpt>
      <trkpt lat="45.31349" lon="6.24899">
        <ele>1127</ele>
        <time>2021-02-11T14:04:58Z</time>
      </trkpt>
      <trkpt lat="45.31335" lon="6.24902">
        <ele>1127</ele>
        <time>2021-02-11T14:05:16Z</time>
      </trkpt>
      <trkpt lat="45.31327" lon="6.24911">
        <ele>1122</ele>
        <time>2021-02-11T14:05:20Z</time>
      </trkpt>
      <trkpt lat="45.31306" lon="6.2491">
        <ele>1115</ele>
        <time>2021-02-11T14:05:38Z</time>
      </trkpt>
      <trkpt lat="45.31283" lon="6.24901">
        <ele>1108</ele>
        <time>2021-02-11T14:06:09Z</time>
      </trkpt>
      <trkpt lat="45.3128" lon="6.24905">
        <ele>1107</ele>
        <time>2021-02-11T14:06:11Z</time>
      </trkpt>
      <trkpt lat="45.31266" lon="6.24909">
        <ele>1104</ele>
        <time>2021-02-11T14:06:27Z</time>
      </trkpt>
      <trkpt lat="45.31264" lon="6.24907">
        <ele>1104</ele>
        <time>2021-02-11T14:06:29Z</time>
      </trkpt>
      <trkpt lat="45.31246" lon="6.24921">
        <ele>1103</ele>
        <time>2021-02-11T14:06:46Z</time>
      </trkpt>
      <trkpt lat="45.31219" lon="6.24912">
        <ele>1098</ele>
        <time>2021-02-11T14:07:19Z</time>
      </trkpt>
      <trkpt lat="45.31183" lon="6.24888">
        <ele>1090</ele>
        <time>2021-02-11T14:08:01Z</time>
      </trkpt>
      <trkpt lat="45.3115" lon="6.24874">
        <ele>1088</ele>
        <time>2021-02-11T14:08:31Z</time>
      </trkpt>
      <trkpt lat="45.31136" lon="6.24868">
        <ele>1091</ele>
        <time>2021-02-11T14:08:41Z</time>
      </trkpt>
      <trkpt lat="45.31124" lon="6.24871">
        <ele>1092</ele>
        <time>2021-02-11T14:09:07Z</time>
      </trkpt>
      <trkpt lat="45.31123" lon="6.24873">
        <ele>1095</ele>
        <time>2021-02-11T14:10:10Z</time>
      </trkpt>
      <trkpt lat="45.31127" lon="6.24872">
        <ele>1101</ele>
        <time>2021-02-11T14:10:43Z</time>
      </trkpt>
      <trkpt lat="45.31129" lon="6.24871">
        <ele>1102</ele>
        <time>2021-02-11T14:10:45Z</time>
      </trkpt>
      <trkpt lat="45.31131" lon="6.24869">
        <ele>1102</ele>
        <time>2021-02-11T14:10:47Z</time>
      </trkpt>
      <trkpt lat="45.31135" lon="6.24868">
        <ele>1102</ele>
        <time>2021-02-11T14:10:51Z</time>
      </trkpt>
      <trkpt lat="45.31145" lon="6.24867">
        <ele>1102</ele>
        <time>2021-02-11T14:10:59Z</time>
      </trkpt>
      <trkpt lat="45.31154" lon="6.2486">
        <ele>1102</ele>
        <time>2021-02-11T14:11:17Z</time>
      </trkpt>
      <trkpt lat="45.31152" lon="6.24856">
        <ele>1102</ele>
        <time>2021-02-11T14:14:17Z</time>
      </trkpt>
      <trkpt lat="45.31156" lon="6.2487">
        <ele>1123</ele>
        <time>2021-02-11T14:14:50Z</time>
      </trkpt>
      <trkpt lat="45.31154" lon="6.24869">
        <ele>1132</ele>
        <time>2021-02-11T14:14:53Z</time>
      </trkpt>
      <trkpt lat="45.31155" lon="6.2486">
        <ele>1120</ele>
        <time>2021-02-11T14:15:25Z</time>
      </trkpt>
      <trkpt lat="45.31159" lon="6.24861">
        <ele>1110</ele>
        <time>2021-02-11T14:15:29Z</time>
      </trkpt>
      <trkpt lat="45.31152" lon="6.2486">
        <ele>1105</ele>
        <time>2021-02-11T14:15:50Z</time>
      </trkpt>
      <trkpt lat="45.31145" lon="6.2487">
        <ele>1103</ele>
        <time>2021-02-11T14:15:54Z</time>
      </trkpt>
      <trkpt lat="45.31143" lon="6.2487">
        <ele>1103</ele>
        <time>2021-02-11T14:15:55Z</time>
      </trkpt>
      <trkpt lat="45.31142" lon="6.24869">
        <ele>1102</ele>
        <time>2021-02-11T14:15:56Z</time>
      </trkpt>
      <trkpt lat="45.31138" lon="6.24871">
        <ele>1101</ele>
        <time>2021-02-11T14:15:58Z</time>
      </trkpt>
      <trkpt lat="45.31136" lon="6.2487">
        <ele>1100</ele>
        <time>2021-02-11T14:16:00Z</time>
      </trkpt>
      <trkpt lat="45.31132" lon="6.24869">
        <ele>1099</ele>
        <time>2021-02-11T14:16:02Z</time>
      </trkpt>
      <trkpt lat="45.3113" lon="6.24869">
        <ele>1098</ele>
        <time>2021-02-11T14:16:03Z</time>
      </trkpt>
      <trkpt lat="45.31129" lon="6.2487">
        <ele>1098</ele>
        <time>2021-02-11T14:16:04Z</time>
      </trkpt>
      <trkpt lat="45.31123" lon="6.24879">
        <ele>1096</ele>
        <time>2021-02-11T14:16:11Z</time>
      </trkpt>
      <trkpt lat="45.31119" lon="6.24877">
        <ele>1097</ele>
        <time>2021-02-11T14:16:27Z</time>
      </trkpt>
      <trkpt lat="45.31122" lon="6.24875">
        <ele>1098</ele>
        <time>2021-02-11T14:17:42Z</time>
      </trkpt>
    </trkseg>
  </trk>
</gpx>